Darstellungsparameter: Aktuell verwendete Einstellungen:
Skalierung der Graphiken ... ?
xyx+y,   Skalierungsfaktor:      Skalierung: Modus: x, Faktor: 1
Darstellungszeitraum ... ?
Vom - - bis: - -   Zeitraum: 14.02.2004 - 13.08.2004
Min/Max/Avg-Anzeige ... ?
Zeige MMA aktuell
Zeige MMA Monat
Zeige MMA alles
Zeige --A aktuell
Zeige --A Monat
Zeige --A alles
Keine MMA-Anzeige
MMA:
Minimum Maximum Average (ber die Originaldaten)
MMA-Basis: 14.02.2004 - 13.08.2004
Quicknavigation für Darstellung... ?
Tage:      1T, 2T, 3T, 5T -1T -2T -3T -5T +1T +2T +3T +5T
Wochen: 1W, 2W, 3W -1W -2W -3W +1W +2W +3W
Monate: 1M, 3M, 6M -1M -3M -6M +1M +3M +6M
Jahre:    1J, 3J, 5J, 10J -1J -3J -5J -10J +1J +3J +5J +10J
Nutze für die Darstellung ... ?
Originaldaten oder Mittelwerte auf ...
Stundenbasis Tagesbasis Wochenbasis
Monatsbasis Jahresbasis      Datenbasis: Original-Daten
Darstellen als:
Statistik (Auto) Statistik J:M      Darstellung:
Zur Graphik,    zurück zur Übersicht aller Sensoren.
 
Tabellarische Datenbersicht: ?
 
Sensor: Nr:Datum:Temp:Feuchte:Taupunkt:
Aussen-T/F 1 14-02-2004 00:01:01 6.3 C 78 % 2.75 C
2 14-02-2004 00:13:01 6.3 C 78 % 2.75 C
3 14-02-2004 00:25:01 6.3 C 78 % 2.75 C
4 14-02-2004 00:37:01 6.2 C 78 % 2.66 C
5 14-02-2004 00:49:00 6.2 C 78 % 2.66 C
6 14-02-2004 01:01:00 6.2 C 78 % 2.66 C
7 14-02-2004 01:13:00 6.2 C 78 % 2.66 C
8 14-02-2004 01:25:59 6 C 78 % 2.46 C
9 14-02-2004 01:37:58 6.1 C 78 % 2.56 C
10 14-02-2004 01:49:01 6.1 C 78 % 2.56 C
11 14-02-2004 02:01:01 6.1 C 78 % 2.56 C
12 14-02-2004 02:13:01 6.1 C 78 % 2.56 C
13 14-02-2004 02:25:01 6 C 78 % 2.46 C
14 14-02-2004 02:37:01 6 C 78 % 2.46 C
15 14-02-2004 02:50:01 6 C 78 % 2.46 C
16 14-02-2004 03:02:01 6 C 78 % 2.46 C
17 14-02-2004 03:14:00 6 C 78 % 2.46 C
18 14-02-2004 03:26:00 6 C 78 % 2.46 C
19 14-02-2004 03:38:01 5.9 C 79 % 2.54 C
20 14-02-2004 03:50:01 5.9 C 79 % 2.54 C
21 14-02-2004 04:02:01 5.9 C 79 % 2.54 C
22 14-02-2004 04:14:01 5.9 C 79 % 2.54 C
23 14-02-2004 04:26:00 5.9 C 79 % 2.54 C
24 14-02-2004 04:38:00 5.8 C 79 % 2.45 C
25 14-02-2004 04:50:01 5.8 C 79 % 2.45 C
Sensor: Nr:Datum:Temp:Feuchte:Taupunkt:
Aussen-T/F 26 14-02-2004 05:02:01 5.7 C 79 % 2.35 C
27 14-02-2004 05:14:01 5.7 C 80 % 2.53 C
28 14-02-2004 05:26:01 5.6 C 80 % 2.43 C
29 14-02-2004 05:38:01 5.5 C 80 % 2.33 C
30 14-02-2004 05:50:00 5.6 C 80 % 2.43 C
31 14-02-2004 06:02:59 5.6 C 80 % 2.43 C
32 14-02-2004 06:14:58 5.6 C 80 % 2.43 C
33 14-02-2004 06:26:58 5.5 C 80 % 2.33 C
34 14-02-2004 06:38:57 5.5 C 80 % 2.33 C
35 14-02-2004 06:50:01 5.5 C 81 % 2.51 C
36 14-02-2004 07:02:01 5.5 C 81 % 2.51 C
37 14-02-2004 07:14:01 5.5 C 81 % 2.51 C
38 14-02-2004 07:26:01 5.5 C 81 % 2.51 C
39 14-02-2004 07:38:00 5.3 C 81 % 2.31 C
40 14-02-2004 07:50:01 5.3 C 81 % 2.31 C
41 14-02-2004 08:02:01 5.3 C 81 % 2.31 C
42 14-02-2004 08:14:01 5.4 C 81 % 2.41 C
43 14-02-2004 08:26:01 5.5 C 81 % 2.51 C
44 14-02-2004 08:38:01 5.6 C 81 % 2.6 C
45 14-02-2004 08:50:00 5.7 C 80 % 2.53 C
46 14-02-2004 09:02:00 5.9 C 79 % 2.54 C
47 14-02-2004 09:14:00 6 C 78 % 2.46 C
48 14-02-2004 09:26:59 6.1 C 77 % 2.38 C
49 14-02-2004 09:38:58 6.2 C 77 % 2.48 C
50 14-02-2004 09:50:01 6.4 C 76 % 2.49 C
Sensor: Nr:Datum:Temp:Feuchte:Taupunkt:
Aussen-T/F 51 14-02-2004 10:02:01 6.5 C 76 % 2.58 C
52 14-02-2004 10:14:01 6.6 C 76 % 2.68 C
53 14-02-2004 10:26:01 6.9 C 75 % 2.78 C
54 14-02-2004 10:38:01 7.2 C 73 % 2.69 C
55 14-02-2004 10:50:01 7.2 C 73 % 2.69 C
56 14-02-2004 11:02:01 7.4 C 72 % 2.69 C
57 14-02-2004 11:14:01 7.5 C 72 % 2.79 C
58 14-02-2004 11:26:01 7.8 C 71 % 2.88 C
59 14-02-2004 11:38:01 8.2 C 69 % 2.86 C
60 14-02-2004 11:50:01 8.4 C 69 % 3.05 C
61 14-02-2004 12:02:00 8.1 C 68 % 2.56 C
62 14-02-2004 12:14:00 8.2 C 69 % 2.86 C
63 14-02-2004 12:26:59 8.4 C 69 % 3.05 C
64 14-02-2004 12:38:57 8.7 C 67 % 2.92 C
65 14-02-2004 12:50:01 8.8 C 67 % 3.02 C
66 14-02-2004 13:02:01 8.7 C 67 % 2.92 C
67 14-02-2004 13:14:01 8.7 C 68 % 3.13 C
68 14-02-2004 13:26:01 8.6 C 66 % 2.62 C
69 14-02-2004 13:38:01 8.6 C 67 % 2.83 C
70 14-02-2004 13:50:00 8.5 C 67 % 2.73 C
71 14-02-2004 14:14:00 8.2 C 69 % 2.86 C
72 14-02-2004 14:14:58 8.2 C 70 % 3.06 C
73 14-02-2004 14:26:58 8.4 C 70 % 3.26 C
74 14-02-2004 14:38:57 8.6 C 69 % 3.24 C
75 14-02-2004 14:50:01 8.6 C 68 % 3.04 C
Sensor: Nr:Datum:Temp:Feuchte:Taupunkt:
Aussen-T/F 76 14-02-2004 15:02:01 8.6 C 68 % 3.04 C
77 14-02-2004 15:14:01 8.4 C 68 % 2.85 C
78 14-02-2004 15:26:01 8.5 C 69 % 3.15 C
79 14-02-2004 15:38:01 8.5 C 69 % 3.15 C
80 14-02-2004 15:50:01 8.6 C 68 % 3.04 C
81 14-02-2004 16:02:01 8.6 C 68 % 3.04 C
82 14-02-2004 16:14:01 8.6 C 68 % 3.04 C
83 14-02-2004 16:26:01 8.5 C 67 % 2.73 C
84 14-02-2004 16:38:01 8.4 C 66 % 2.43 C
85 14-02-2004 16:50:00 8.5 C 66 % 2.52 C
86 14-02-2004 17:02:00 8.4 C 67 % 2.64 C
87 14-02-2004 17:14:00 8.3 C 66 % 2.33 C
88 14-02-2004 17:26:59 8.1 C 67 % 2.35 C
89 14-02-2004 17:38:58 8 C 68 % 2.47 C
90 14-02-2004 17:50:01 7.9 C 70 % 2.78 C
91 14-02-2004 18:02:01 7.8 C 67 % 2.07 C
92 14-02-2004 18:14:01 7.7 C 68 % 2.18 C
93 14-02-2004 18:26:01 7.6 C 65 % 1.45 C
94 14-02-2004 18:38:01 7.6 C 68 % 2.08 C
95 14-02-2004 18:50:00 7.4 C 69 % 2.1 C
96 14-02-2004 19:14:00 7.3 C 68 % 1.8 C
97 14-02-2004 19:14:58 7.3 C 68 % 1.8 C
98 14-02-2004 19:26:58 7.1 C 68 % 1.61 C
99 14-02-2004 19:38:57 7.2 C 68 % 1.7 C
100 14-02-2004 19:50:01 7.1 C 70 % 2.01 C
Sensor: Nr:Datum:Temp:Feuchte:Taupunkt:
Aussen-T/F 101 14-02-2004 20:02:01 7 C 70 % 1.91 C
102 14-02-2004 20:14:01 7 C 69 % 1.71 C
103 14-02-2004 20:26:01 7 C 69 % 1.71 C
104 14-02-2004 20:38:01 6.9 C 70 % 1.82 C
105 14-02-2004 20:50:01 6.9 C 71 % 2.02 C
106 14-02-2004 21:02:01 6.8 C 72 % 2.12 C
107 14-02-2004 21:14:01 6.7 C 72 % 2.02 C
108 14-02-2004 21:26:01 6.7 C 72 % 2.02 C
109 14-02-2004 21:38:01 6.7 C 73 % 2.21 C
110 14-02-2004 21:50:00 6.6 C 73 % 2.12 C
111 14-02-2004 22:02:00 6.6 C 73 % 2.12 C
112 14-02-2004 22:14:00 6.6 C 73 % 2.12 C
113 14-02-2004 22:26:59 6.5 C 73 % 2.02 C
114 14-02-2004 22:38:57 6.5 C 74 % 2.21 C
115 14-02-2004 22:50:01 6.5 C 74 % 2.21 C
116 14-02-2004 23:02:01 6.4 C 74 % 2.11 C
117 14-02-2004 23:14:01 6.4 C 74 % 2.11 C
118 14-02-2004 23:26:01 6.3 C 74 % 2.02 C
119 14-02-2004 23:38:01 6.2 C 74 % 1.92 C
120 14-02-2004 23:50:00 6.2 C 75 % 2.11 C
121 15-02-2004 00:13:59 6.1 C 75 % 2.01 C
122 15-02-2004 00:14:59 6 C 75 % 1.91 C
123 15-02-2004 00:26:59 6 C 75 % 1.91 C
124 15-02-2004 00:38:57 6 C 75 % 1.91 C
125 15-02-2004 00:50:01 6 C 76 % 2.1 C
Sensor: Nr:Datum:Temp:Feuchte:Taupunkt:
Aussen-T/F 126 15-02-2004 01:02:01 6 C 76 % 2.1 C
127 15-02-2004 01:14:01 5.9 C 77 % 2.19 C
128 15-02-2004 01:26:01 5.9 C 77 % 2.19 C
129 15-02-2004 01:38:01 5.9 C 77 % 2.19 C
130 15-02-2004 01:50:01 5.8 C 77 % 2.09 C
131 15-02-2004 02:02:01 5.8 C 77 % 2.09 C
132 15-02-2004 02:14:01 5.7 C 77 % 1.99 C
133 15-02-2004 02:26:01 5.7 C 77 % 1.99 C
134 15-02-2004 02:38:01 5.7 C 78 % 2.17 C
135 15-02-2004 02:51:01 5.7 C 77 % 1.99 C
136 15-02-2004 03:03:01 5.6 C 78 % 2.07 C
137 15-02-2004 03:15:00 5.6 C 78 % 2.07 C
138 15-02-2004 03:27:00 5.5 C 78 % 1.98 C
139 15-02-2004 03:39:01 5.4 C 79 % 2.06 C
140 15-02-2004 03:51:01 5.4 C 79 % 2.06 C
141 15-02-2004 04:03:01 5.4 C 79 % 2.06 C
142 15-02-2004 04:15:00 5.4 C 79 % 2.06 C
143 15-02-2004 04:27:00 5.4 C 79 % 2.06 C
144 15-02-2004 04:39:00 5.4 C 79 % 2.06 C
145 15-02-2004 04:51:01 5.3 C 79 % 1.96 C
146 15-02-2004 05:03:01 5.3 C 79 % 1.96 C
147 15-02-2004 05:15:01 5.2 C 79 % 1.86 C
148 15-02-2004 05:27:01 5.2 C 79 % 1.86 C
149 15-02-2004 05:39:01 5.1 C 79 % 1.77 C
150 15-02-2004 05:51:00 5.1 C 79 % 1.77 C
Sensor: Nr:Datum:Temp:Feuchte:Taupunkt:
Aussen-T/F 151 15-02-2004 06:03:59 5.1 C 79 % 1.77 C
152 15-02-2004 06:15:58 5 C 79 % 1.67 C
153 15-02-2004 06:27:58 5 C 79 % 1.67 C
154 15-02-2004 06:39:57 5 C 79 % 1.67 C
155 15-02-2004 06:51:01 5 C 79 % 1.67 C
156 15-02-2004 07:03:01 5 C 79 % 1.67 C
157 15-02-2004 07:15:01 5 C 80 % 1.84 C
158 15-02-2004 07:27:01 5 C 79 % 1.67 C
159 15-02-2004 07:39:01 5 C 79 % 1.67 C
160 15-02-2004 07:51:01 5 C 79 % 1.67 C
161 15-02-2004 08:03:01 5 C 79 % 1.67 C
162 15-02-2004 08:15:01 5 C 79 % 1.67 C
163 15-02-2004 08:27:01 5 C 79 % 1.67 C
164 15-02-2004 08:39:01 5.1 C 78 % 1.59 C
165 15-02-2004 08:51:00 5.1 C 78 % 1.59 C
166 15-02-2004 09:03:00 5.1 C 78 % 1.59 C
167 15-02-2004 09:15:58 5.2 C 78 % 1.69 C
168 15-02-2004 09:27:58 5.2 C 78 % 1.69 C
169 15-02-2004 09:39:57 5.3 C 78 % 1.78 C
170 15-02-2004 09:51:01 5.4 C 78 % 1.88 C
171 15-02-2004 10:03:01 5.4 C 77 % 1.7 C
172 15-02-2004 10:15:01 5.7 C 76 % 1.81 C
173 15-02-2004 10:27:01 5.9 C 75 % 1.82 C
174 15-02-2004 10:39:01 6 C 73 % 1.54 C
175 15-02-2004 10:51:00 6.3 C 72 % 1.63 C
Sensor: Nr:Datum:Temp:Feuchte:Taupunkt:
Aussen-T/F 176 15-02-2004 11:03:59 6.6 C 71 % 1.73 C
177 15-02-2004 11:15:58 6.6 C 71 % 1.73 C
178 15-02-2004 11:27:58 6.8 C 70 % 1.72 C
179 15-02-2004 11:39:57 6.9 C 70 % 1.82 C
180 15-02-2004 11:51:01 7.1 C 66 % 1.19 C
181 15-02-2004 12:03:01 7.3 C 66 % 1.38 C
182 15-02-2004 12:15:01 7.5 C 65 % 1.36 C
183 15-02-2004 12:27:01 7.5 C 65 % 1.36 C
184 15-02-2004 12:39:00 7.6 C 66 % 1.67 C
185 15-02-2004 12:51:01 7.6 C 65 % 1.45 C
186 15-02-2004 13:03:01 7.6 C 65 % 1.45 C
187 15-02-2004 13:15:01 7.5 C 65 % 1.36 C
188 15-02-2004 13:27:01 7.5 C 65 % 1.36 C
189 15-02-2004 13:39:01 7.7 C 64 % 1.33 C
190 15-02-2004 13:51:01 7.8 C 63 % 1.21 C
191 15-02-2004 14:03:00 7.7 C 62 % 0.89 C
192 15-02-2004 14:15:58 7.9 C 61 % 0.86 C
193 15-02-2004 14:27:58 7.6 C 62 % 0.8 C
194 15-02-2004 14:39:57 7.6 C 62 % 0.8 C
195 15-02-2004 14:51:01 7.6 C 62 % 0.8 C
196 15-02-2004 15:03:02 7.6 C 62 % 0.8 C
197 15-02-2004 15:15:01 7.7 C 62 % 0.89 C
198 15-02-2004 15:27:01 7.6 C 62 % 0.8 C
199 15-02-2004 15:39:01 7.6 C 63 % 1.02 C
200 15-02-2004 15:51:00 7.6 C 64 % 1.24 C
Sensor: Nr:Datum:Temp:Feuchte:Taupunkt:
Aussen-T/F 201 15-02-2004 16:03:59 7.5 C 64 % 1.14 C
202 15-02-2004 16:15:58 7.4 C 65 % 1.26 C
203 15-02-2004 16:27:58 7.4 C 65 % 1.26 C
204 15-02-2004 16:39:57 7.3 C 65 % 1.17 C
205 15-02-2004 16:51:01 7.3 C 66 % 1.38 C
206 15-02-2004 17:03:01 7.2 C 66 % 1.29 C
207 15-02-2004 17:15:01 7.2 C 67 % 1.49 C
208 15-02-2004 17:27:01 7.1 C 67 % 1.4 C
209 15-02-2004 17:39:01 6.9 C 68 % 1.41 C
210 15-02-2004 17:51:01 6.8 C 69 % 1.52 C
211 15-02-2004 18:03:01 6.7 C 70 % 1.63 C
212 15-02-2004 18:15:01 6.7 C 70 % 1.63 C
213 15-02-2004 18:27:01 6.7 C 70 % 1.63 C
214 15-02-2004 18:39:01 6.6 C 71 % 1.73 C
215 15-02-2004 18:51:00 6.7 C 71 % 1.82 C
216 15-02-2004 19:03:00 6.7 C 71 % 1.82 C
217 15-02-2004 19:15:58 6.6 C 72 % 1.92 C
218 15-02-2004 19:27:58 6.5 C 72 % 1.83 C
219 15-02-2004 19:39:57 6.4 C 72 % 1.73 C
220 15-02-2004 19:51:01 6.4 C 73 % 1.92 C
221 15-02-2004 20:03:01 6.4 C 73 % 1.92 C
222 15-02-2004 20:15:01 6.4 C 74 % 2.11 C
223 15-02-2004 20:27:01 6.5 C 74 % 2.21 C
224 15-02-2004 20:39:01 6.5 C 74 % 2.21 C
225 15-02-2004 20:51:00 6.5 C 74 % 2.21 C
Sensor: Nr:Datum:Temp:Feuchte:Taupunkt:
Aussen-T/F 226 15-02-2004 21:03:00 6.6 C 73 % 2.12 C
227 15-02-2004 21:15:58 6.6 C 74 % 2.31 C
228 15-02-2004 21:27:58 6.6 C 74 % 2.31 C
229 15-02-2004 21:39:57 6.5 C 75 % 2.4 C
230 15-02-2004 21:51:01 6.3 C 76 % 2.39 C
231 15-02-2004 22:03:01 6.4 C 77 % 2.67 C
232 15-02-2004 22:15:30 6.3 C 77 % 2.57 C
233 15-02-2004 22:27:01 6.3 C 77 % 2.57 C
234 15-02-2004 22:39:01 6.4 C 76 % 2.49 C
235 15-02-2004 22:51:01 6.4 C 76 % 2.49 C
236 15-02-2004 23:03:01 6.4 C 75 % 2.3 C
237 15-02-2004 23:15:01 6.4 C 75 % 2.3 C
238 15-02-2004 23:27:01 6.4 C 75 % 2.3 C
239 15-02-2004 23:39:01 6.2 C 75 % 2.11 C
240 15-02-2004 23:51:00 5.9 C 77 % 2.19 C
241 16-02-2004 00:03:00 5.7 C 77 % 1.99 C
242 16-02-2004 00:15:59 5.6 C 78 % 2.07 C
243 16-02-2004 00:27:59 5.5 C 78 % 1.98 C
244 16-02-2004 00:39:58 5.5 C 78 % 1.98 C
245 16-02-2004 00:51:01 5.5 C 79 % 2.16 C
246 16-02-2004 01:03:00 5.5 C 79 % 2.16 C
247 16-02-2004 01:15:00 5.5 C 79 % 2.16 C
248 16-02-2004 01:27:00 5.6 C 79 % 2.25 C
249 16-02-2004 01:39:00 5.4 C 78 % 1.88 C
250 16-02-2004 01:51:01 5.5 C 79 % 2.16 C
Sensor: Nr:Datum:Temp:Feuchte:Taupunkt:
Aussen-T/F 251 16-02-2004 02:03:01 5.2 C 78 % 1.69 C
252 16-02-2004 02:15:01 5.1 C 78 % 1.59 C
253 16-02-2004 02:27:01 4.9 C 79 % 1.57 C
254 16-02-2004 02:39:01 4.9 C 79 % 1.57 C
255 16-02-2004 02:52:03 4.9 C 80 % 1.75 C
256 16-02-2004 03:04:03 5 C 79 % 1.67 C
257 16-02-2004 03:16:03 5 C 79 % 1.67 C
258 16-02-2004 03:28:03 5.1 C 78 % 1.59 C
259 16-02-2004 03:40:00 4.9 C 78 % 1.39 C
260 16-02-2004 03:52:00 4.7 C 78 % 1.2 C
261 16-02-2004 04:04:00 4.7 C 78 % 1.2 C
262 16-02-2004 04:16:59 4.6 C 78 % 1.1 C
263 16-02-2004 04:28:59 4.5 C 77 % 0.83 C
264 16-02-2004 04:40:58 4.4 C 77 % 0.73 C
265 16-02-2004 04:52:01 4.3 C 77 % 0.63 C
266 16-02-2004 05:04:01 4.2 C 77 % 0.54 C
267 16-02-2004 05:16:00 4.2 C 77 % 0.54 C
268 16-02-2004 05:28:00 4.1 C 76 % 0.26 C
269 16-02-2004 05:40:00 3.9 C 77 % 0.25 C
270 16-02-2004 05:52:01 3.7 C 77 % 0.05 C
271 16-02-2004 06:04:01 3.6 C 77 % -0.05 C
272 16-02-2004 06:16:01 3.6 C 77 % -0.05 C
273 16-02-2004 06:28:01 3.4 C 77 % -0.24 C
274 16-02-2004 06:40:01 3.3 C 77 % -0.34 C
275 16-02-2004 06:52:01 3 C 77 % -0.63 C
Sensor: Nr:Datum:Temp:Feuchte:Taupunkt:
Aussen-T/F 276 16-02-2004 07:04:01 2.6 C 78 % -0.84 C
277 16-02-2004 07:16:01 2.3 C 79 % -0.96 C
278 16-02-2004 07:28:01 2 C 79 % -1.25 C
279 16-02-2004 07:40:01 1.7 C 81 % -1.2 C
280 16-02-2004 07:52:00 1.6 C 81 % -1.3 C
281 16-02-2004 08:04:00 1.6 C 81 % -1.3 C
282 16-02-2004 08:16:59 1.6 C 82 % -1.13 C
283 16-02-2004 08:28:59 1.5 C 81 % -1.4 C
284 16-02-2004 08:40:57 1.6 C 82 % -1.13 C
285 16-02-2004 08:52:01 1.6 C 82 % -1.13 C
286 16-02-2004 09:04:01 1.6 C 82 % -1.13 C
287 16-02-2004 09:16:01 1.7 C 82 % -1.03 C
288 16-02-2004 09:28:01 1.9 C 83 % -0.67 C
289 16-02-2004 09:40:01 2.5 C 83 % -0.09 C
290 16-02-2004 09:52:00 3 C 83 % 0.4 C
291 16-02-2004 10:03:59 3.3 C 79 % 0.02 C
292 16-02-2004 10:16:58 3.9 C 77 % 0.25 C
293 16-02-2004 10:28:58 4 C 75 % -0.02 C
294 16-02-2004 10:40:57 4.4 C 74 % 0.18 C
295 16-02-2004 10:52:01 5.1 C 71 % 0.29 C
296 16-02-2004 11:04:01 5.2 C 69 % -0.01 C
297 16-02-2004 11:16:01 5.2 C 69 % -0.01 C
298 16-02-2004 11:28:01 5.5 C 68 % 0.08 C
299 16-02-2004 11:40:01 6.2 C 65 % 0.12 C
300 16-02-2004 11:52:01 6.5 C 62 % -0.24 C
Sensor: Nr:Datum:Temp:Feuchte:Taupunkt:
Aussen-T/F 301 16-02-2004 12:04:01 6.7 C 63 % 0.17 C
302 16-02-2004 12:16:01 7 C 61 % 0.01 C
303 16-02-2004 12:28:01 7.4 C 60 % 0.16 C
304 16-02-2004 12:40:01 7.6 C 59 % 0.11 C
305 16-02-2004 12:52:00 7.9 C 58 % 0.16 C
306 16-02-2004 13:04:00 8.6 C 55 % 0.08 C
307 16-02-2004 13:16:58 9 C 54 % 0.2 C
308 16-02-2004 13:28:58 9.1 C 51 % -0.49 C
309 16-02-2004 13:40:57 9.5 C 51 % -0.12 C
310 16-02-2004 13:52:01 9.2 C 50 % -0.67 C
311 16-02-2004 14:04:01 10.1 C 49 % -0.11 C
312 16-02-2004 14:16:01 10.1 C 49 % -0.11 C
313 16-02-2004 14:28:01 10 C 49 % -0.21 C
314 16-02-2004 14:40:01 10.2 C 48 % -0.31 C
315 16-02-2004 14:52:00 10.3 C 48 % -0.21 C
316 16-02-2004 15:04:59 10.2 C 48 % -0.31 C
317 16-02-2004 15:16:58 9.8 C 48 % -0.67 C
318 16-02-2004 15:28:58 9.3 C 49 % -0.85 C
319 16-02-2004 15:40:57 9.5 C 49 % -0.67 C
320 16-02-2004 15:52:01 8.7 C 50 % -1.13 C
321 16-02-2004 16:04:01 8.4 C 50 % -1.4 C
322 16-02-2004 16:16:01 8.3 C 52 % -0.96 C
323 16-02-2004 16:28:01 8 C 52 % -1.24 C
324 16-02-2004 16:40:00 8.3 C 52 % -0.96 C
325 16-02-2004 16:52:01 8.6 C 52 % -0.68 C
Sensor: Nr:Datum:Temp:Feuchte:Taupunkt:
Aussen-T/F 326 16-02-2004 17:04:01 8.1 C 53 % -0.89 C
327 16-02-2004 17:16:01 6.4 C 56 % -1.72 C
328 16-02-2004 17:28:01 6.5 C 59 % -0.92 C
329 16-02-2004 17:40:01 6.2 C 60 % -0.97 C
330 16-02-2004 17:52:00 5.7 C 62 % -1 C
331 16-02-2004 18:04:00 5.1 C 64 % -1.13 C
332 16-02-2004 18:16:58 4.7 C 67 % -0.89 C
333 16-02-2004 18:28:58 4.5 C 69 % -0.68 C
334 16-02-2004 18:40:57 4.3 C 70 % -0.68 C
335 16-02-2004 18:52:01 4.3 C 71 % -0.48 C
336 16-02-2004 19:04:01 4.2 C 71 % -0.58 C
337 16-02-2004 19:16:01 4.1 C 71 % -0.67 C
338 16-02-2004 19:28:01 4 C 72 % -0.58 C
339 16-02-2004 19:40:01 4.1 C 73 % -0.29 C
340 16-02-2004 19:52:01 4.3 C 72 % -0.29 C
341 16-02-2004 20:04:01 4.7 C 72 % 0.09 C
342 16-02-2004 20:16:01 4.9 C 71 % 0.09 C
343 16-02-2004 20:28:01 5.1 C 69 % -0.11 C
344 16-02-2004 20:40:02 5.1 C 69 % -0.11 C
345 16-02-2004 20:52:01 5.2 C 69 % -0.01 C
346 16-02-2004 21:04:01 5.1 C 69 % -0.11 C
347 16-02-2004 21:16:01 5.2 C 69 % -0.01 C
348 16-02-2004 21:28:01 5.1 C 69 % -0.11 C
349 16-02-2004 21:40:58 5.2 C 69 % -0.01 C
350 16-02-2004 21:52:00 5.1 C 70 % 0.09 C
Sensor: Nr:Datum:Temp:Feuchte:Taupunkt:
Aussen-T/F 351 16-02-2004 22:04:00 5.2 C 70 % 0.19 C
352 16-02-2004 22:16:00 5.1 C 70 % 0.09 C
353 16-02-2004 22:28:00 5 C 70 % 0 C
354 16-02-2004 22:40:01 5 C 70 % 0 C
355 16-02-2004 22:52:00 5 C 70 % 0 C
356 16-02-2004 23:04:00 5 C 70 % 0 C
357 16-02-2004 23:16:59 5 C 70 % 0 C
358 16-02-2004 23:28:59 4.9 C 70 % -0.1 C
359 16-02-2004 23:40:57 4.7 C 70 % -0.29 C
360 16-02-2004 23:52:01 4.6 C 70 % -0.39 C
361 17-02-2004 00:04:01 4.5 C 70 % -0.48 C
362 17-02-2004 00:16:01 4.5 C 71 % -0.29 C
363 17-02-2004 00:28:01 4.4 C 71 % -0.39 C
364 17-02-2004 00:40:01 4.4 C 71 % -0.39 C
365 17-02-2004 00:52:00 4.3 C 71 % -0.48 C
366 17-02-2004 01:04:00 4.3 C 71 % -0.48 C
367 17-02-2004 01:16:58 4.3 C 71 % -0.48 C
368 17-02-2004 01:28:58 4.1 C 71 % -0.67 C
369 17-02-2004 01:40:57 4.1 C 71 % -0.67 C
370 17-02-2004 01:52:01 4.1 C 71 % -0.67 C
371 17-02-2004 02:04:01 4 C 71 % -0.77 C
372 17-02-2004 02:16:01 4 C 71 % -0.77 C
373 17-02-2004 02:28:01 3.9 C 72 % -0.68 C
374 17-02-2004 02:40:01 4 C 71 % -0.77 C
375 17-02-2004 02:53:02 4 C 71 % -0.77 C
Sensor: Nr:Datum:Temp:Feuchte:Taupunkt:
Aussen-T/F 376 17-02-2004 03:05:02 3.8 C 72 % -0.77 C
377 17-02-2004 03:17:02 3.8 C 72 % -0.77 C
378 17-02-2004 03:29:02 3.7 C 72 % -0.87 C
379 17-02-2004 03:41:00 3.6 C 72 % -0.96 C
380 17-02-2004 03:53:00 3.6 C 72 % -0.96 C
381 17-02-2004 04:05:00 3.6 C 72 % -0.96 C
382 17-02-2004 04:17:59 3.6 C 72 % -0.96 C
383 17-02-2004 04:29:59 3.6 C 71 % -1.15 C
384 17-02-2004 04:41:57 3.5 C 71 % -1.25 C
385 17-02-2004 04:53:01 3.5 C 72 % -1.06 C
386 17-02-2004 05:05:01 3.4 C 71 % -1.35 C
387 17-02-2004 05:17:01 3.4 C 71 % -1.35 C
388 17-02-2004 05:29:01 3.3 C 71 % -1.44 C
389 17-02-2004 05:41:01 3.3 C 71 % -1.44 C
390 17-02-2004 05:53:00 3.3 C 71 % -1.44 C
391 17-02-2004 06:05:59 3.3 C 71 % -1.44 C
392 17-02-2004 06:17:58 3.3 C 70 % -1.64 C
393 17-02-2004 06:29:58 3 C 71 % -1.73 C
394 17-02-2004 06:41:57 2.9 C 72 % -1.64 C
395 17-02-2004 06:53:01 2.9 C 71 % -1.83 C
396 17-02-2004 07:05:01 2.8 C 71 % -1.92 C
397 17-02-2004 07:17:01 2.9 C 71 % -1.83 C
398 17-02-2004 07:29:01 2.8 C 71 % -1.92 C
399 17-02-2004 07:41:01 2.5 C 72 % -2.02 C
400 17-02-2004 07:53:01 2.5 C 72 % -2.02 C
Sensor: Nr:Datum:Temp:Feuchte:Taupunkt:
Aussen-T/F 401 17-02-2004 08:05:01 2.5 C 72 % -2.02 C
402 17-02-2004 08:17:01 2.5 C 72 % -2.02 C
403 17-02-2004 08:29:01 2.6 C 72 % -1.93 C
404 17-02-2004 08:41:01 2.4 C 72 % -2.12 C
405 17-02-2004 08:53:00 2.3 C 71 % -2.4 C
406 17-02-2004 09:05:00 2.4 C 71 % -2.31 C
407 17-02-2004 09:17:58 2.5 C 71 % -2.21 C
408 17-02-2004 09:29:58 2.5 C 71 % -2.21 C
409 17-02-2004 09:41:57 2.5 C 71 % -2.21 C
410 17-02-2004 09:53:01 2.6 C 71 % -2.12 C
411 17-02-2004 10:05:01 3 C 71 % -1.73 C
412 17-02-2004 10:17:01 2.8 C 71 % -1.92 C
413 17-02-2004 10:29:01 2.8 C 71 % -1.92 C
414 17-02-2004 10:41:01 3.2 C 70 % -1.73 C
415 17-02-2004 10:53:00 3.2 C 69 % -1.93 C
416 17-02-2004 11:05:45 3.1 C 68 % -2.22 C
417 17-02-2004 11:17:58 3 C 69 % -2.12 C
418 17-02-2004 11:29:58 3.2 C 68 % -2.12 C
419 17-02-2004 11:41:57 2.8 C 69 % -2.31 C
420 17-02-2004 11:53:01 2.9 C 69 % -2.21 C
421 17-02-2004 12:05:01 3 C 67 % -2.51 C
422 17-02-2004 12:17:01 3.1 C 67 % -2.42 C
423 17-02-2004 12:29:01 3.2 C 66 % -2.53 C
424 17-02-2004 12:41:00 3.2 C 66 % -2.53 C
425 17-02-2004 12:53:01 3.2 C 67 % -2.32 C
Sensor: Nr:Datum:Temp:Feuchte:Taupunkt:
Aussen-T/F 426 17-02-2004 13:05:01 3.2 C 67 % -2.32 C
427 17-02-2004 13:17:01 2.9 C 68 % -2.41 C
428 17-02-2004 13:29:01 3.1 C 68 % -2.22 C
429 17-02-2004 13:41:01 3.3 C 65 % -2.64 C
430 17-02-2004 13:53:00 3.2 C 65 % -2.73 C
431 17-02-2004 14:05:00 3.2 C 64 % -2.94 C
432 17-02-2004 14:17:58 3.2 C 64 % -2.94 C
433 17-02-2004 14:29:58 3.2 C 64 % -2.94 C
434 17-02-2004 14:41:57 3.2 C 64 % -2.94 C
435 17-02-2004 14:53:01 3.3 C 63 % -3.05 C
436 17-02-2004 15:05:01 3.5 C 63 % -2.86 C
437 17-02-2004 15:17:01 3.5 C 63 % -2.86 C
438 17-02-2004 15:29:01 3.5 C 64 % -2.65 C
439 17-02-2004 15:41:01 3.6 C 63 % -2.77 C
440 17-02-2004 15:53:00 3.6 C 63 % -2.77 C
441 17-02-2004 16:05:59 3.6 C 63 % -2.77 C
442 17-02-2004 16:17:58 3.6 C 63 % -2.77 C
443 17-02-2004 16:29:58 3.4 C 63 % -2.96 C
444 17-02-2004 16:41:57 3.4 C 64 % -2.75 C
445 17-02-2004 16:53:01 3.5 C 64 % -2.65 C
446 17-02-2004 17:05:01 3.6 C 65 % -2.35 C
447 17-02-2004 17:17:01 3.6 C 64 % -2.56 C
448 17-02-2004 17:29:01 3.5 C 65 % -2.44 C
449 17-02-2004 17:41:02 3.5 C 65 % -2.44 C
450 17-02-2004 17:53:04 3.4 C 65 % -2.54 C
Sensor: Nr:Datum:Temp:Feuchte:Taupunkt:
Aussen-T/F 451 17-02-2004 18:05:07 3.4 C 66 % -2.33 C
452 17-02-2004 18:17:07 3.4 C 66 % -2.33 C
453 17-02-2004 18:29:07 3.4 C 66 % -2.33 C
454 17-02-2004 18:41:14 3.5 C 66 % -2.24 C
455 17-02-2004 18:53:01 3.4 C 66 % -2.33 C
456 17-02-2004 19:05:01 3.4 C 66 % -2.33 C
457 17-02-2004 19:17:00 3.3 C 66 % -2.43 C
458 17-02-2004 19:29:00 3.3 C 67 % -2.23 C
459 17-02-2004 19:41:00 3.2 C 67 % -2.32 C
460 17-02-2004 19:53:01 3.3 C 67 % -2.23 C
461 17-02-2004 20:05:01 3.3 C 68 % -2.03 C
462 17-02-2004 20:17:01 3.3 C 68 % -2.03 C
463 17-02-2004 20:29:01 3.3 C 68 % -2.03 C
464 17-02-2004 20:41:01 3.3 C 68 % -2.03 C
465 17-02-2004 20:53:01 3.3 C 68 % -2.03 C
466 17-02-2004 21:05:01 3.3 C 68 % -2.03 C
467 17-02-2004 21:17:01 3.3 C 68 % -2.03 C
468 17-02-2004 21:29:01 3.3 C 68 % -2.03 C
469 17-02-2004 21:41:01 3.3 C 68 % -2.03 C
470 17-02-2004 21:53:00 3.3 C 68 % -2.03 C
471 17-02-2004 22:05:59 3.4 C 68 % -1.93 C
472 17-02-2004 22:17:56 3.4 C 69 % -1.73 C
473 17-02-2004 22:29:56 3.4 C 69 % -1.73 C
474 17-02-2004 22:41:55 3.3 C 70 % -1.64 C
475 17-02-2004 22:53:00 3.4 C 70 % -1.54 C
Sensor: Nr:Datum:Temp:Feuchte:Taupunkt:
Aussen-T/F 476 17-02-2004 23:05:00 3.3 C 70 % -1.64 C
477 17-02-2004 23:17:59 3.3 C 70 % -1.64 C
478 17-02-2004 23:29:59 3.4 C 70 % -1.54 C
479 17-02-2004 23:41:58 3.4 C 70 % -1.54 C
480 17-02-2004 23:53:01 3.3 C 70 % -1.64 C
481 18-02-2004 00:05:00 3.3 C 71 % -1.44 C
482 18-02-2004 00:17:00 3.3 C 71 % -1.44 C
483 18-02-2004 00:29:00 3.3 C 72 % -1.25 C
484 18-02-2004 00:41:00 3.3 C 72 % -1.25 C
485 18-02-2004 00:53:01 3.4 C 72 % -1.16 C
486 18-02-2004 01:05:01 3.4 C 72 % -1.16 C
487 18-02-2004 01:17:01 3.4 C 72 % -1.16 C
488 18-02-2004 01:29:01 3.5 C 72 % -1.06 C
489 18-02-2004 01:41:01 3.4 C 72 % -1.16 C
490 18-02-2004 01:53:01 3.5 C 72 % -1.06 C
491 18-02-2004 02:05:01 3.5 C 72 % -1.06 C
492 18-02-2004 02:17:01 3.5 C 72 % -1.06 C
493 18-02-2004 02:29:01 3.6 C 72 % -0.96 C
494 18-02-2004 02:41:01 3.5 C 74 % -0.69 C
495 18-02-2004 02:54:01 3.4 C 76 % -0.42 C
496 18-02-2004 03:06:01 3.4 C 77 % -0.24 C
497 18-02-2004 03:18:00 3.7 C 79 % 0.4 C
498 18-02-2004 03:30:00 3.8 C 79 % 0.5 C
499 18-02-2004 03:42:01 3.8 C 79 % 0.5 C
500 18-02-2004 03:54:01 3.8 C 79 % 0.5 C
Sensor: Nr:Datum:Temp:Feuchte:Taupunkt:
Aussen-T/F 501 18-02-2004 04:06:01 3.9 C 78 % 0.42 C
502 18-02-2004 04:18:00 3.8 C 78 % 0.33 C
503 18-02-2004 04:30:00 3.9 C 77 % 0.25 C
504 18-02-2004 04:42:00 3.8 C 77 % 0.15 C
505 18-02-2004 04:54:01 4 C 73 % -0.39 C
506 18-02-2004 05:06:01 3.9 C 73 % -0.49 C
507 18-02-2004 05:18:01 3.9 C 72 % -0.68 C
508 18-02-2004 05:30:01 3.6 C 73 % -0.78 C
509 18-02-2004 05:42:01 3.7 C 68 % -1.64 C
510 18-02-2004 05:54:01 3.7 C 65 % -2.25 C
511 18-02-2004 06:06:01 3.8 C 63 % -2.58 C
512 18-02-2004 06:18:01 3.8 C 65 % -2.16 C
513 18-02-2004 06:30:01 3.8 C 66 % -1.95 C
514 18-02-2004 06:42:01 3.8 C 66 % -1.95 C
515 18-02-2004 06:54:00 3.8 C 66 % -1.95 C
516 18-02-2004 07:06:00 3.7 C 67 % -1.85 C
517 18-02-2004 07:18:59 3.8 C 66 % -1.95 C
518 18-02-2004 07:30:57 3.7 C 67 % -1.85 C
519 18-02-2004 07:42:57 3.8 C 67 % -1.75 C
520 18-02-2004 07:54:01 3.8 C 66 % -1.95 C
521 18-02-2004 08:06:01 3.9 C 67 % -1.65 C
522 18-02-2004 08:18:01 3.9 C 67 % -1.65 C
523 18-02-2004 08:30:01 4 C 66 % -1.76 C
524 18-02-2004 08:42:01 4.1 C 66 % -1.67 C
525 18-02-2004 08:54:00 4.2 C 66 % -1.57 C
Sensor: Nr:Datum:Temp:Feuchte:Taupunkt:
Aussen-T/F 526 18-02-2004 09:05:59 4.3 C 65 % -1.68 C
527 18-02-2004 09:18:58 4.4 C 65 % -1.59 C
528 18-02-2004 09:30:57 4.5 C 64 % -1.7 C
529 18-02-2004 09:42:57 4.7 C 64 % -1.51 C
530 18-02-2004 09:54:01 4.7 C 64 % -1.51 C
531 18-02-2004 10:06:01 4.7 C 64 % -1.51 C
532 18-02-2004 10:18:01 4.6 C 63 % -1.82 C
533 18-02-2004 10:30:01 4.6 C 63 % -1.82 C
534 18-02-2004 10:42:01 5.3 C 57 % -2.51 C
535 18-02-2004 10:54:01 5.3 C 57 % -2.51 C
536 18-02-2004 11:06:01 5 C 59 % -2.33 C
537 18-02-2004 11:18:01 5 C 54 % -3.52 C
538 18-02-2004 11:30:01 5.6 C 46 % -5.09 C
539 18-02-2004 11:42:01 5.5 C 46 % -5.18 C
540 18-02-2004 11:54:00 5.6 C 45 % -5.38 C
541 18-02-2004 12:06:00 5.7 C 46 % -5 C
542 18-02-2004 12:18:59 5.7 C 48 % -4.43 C
543 18-02-2004 12:30:57 5.6 C 52 % -3.46 C
544 18-02-2004 12:42:57 5.5 C 53 % -3.3 C
545 18-02-2004 12:54:01 5.4 C 55 % -2.9 C
546 18-02-2004 13:06:01 5.5 C 57 % -2.33 C
547 18-02-2004 13:18:01 5.6 C 57 % -2.23 C
548 18-02-2004 13:30:01 5.6 C 57 % -2.23 C
549 18-02-2004 13:42:01 5.2 C 60 % -1.92 C
550 18-02-2004 13:54:00 4.8 C 66 % -1 C
Sensor: Nr:Datum:Temp:Feuchte:Taupunkt:
Aussen-T/F 551 18-02-2004 14:06:00 4.5 C 69 % -0.68 C
552 18-02-2004 14:18:58 4.7 C 69 % -0.49 C
553 18-02-2004 14:30:57 5.6 C 69 % 0.37 C
554 18-02-2004 14:42:57 5.8 C 63 % -0.69 C
555 18-02-2004 14:54:01 6.6 C 59 % -0.83 C
556 18-02-2004 15:06:01 6.9 C 51 % -2.52 C
557 18-02-2004 15:18:01 6.7 C 54 % -1.94 C
558 18-02-2004 15:30:01 6.3 C 51 % -3.08 C
559 18-02-2004 15:42:01 7 C 52 % -2.17 C
560 18-02-2004 15:54:01 7.8 C 46 % -3.08 C
561 18-02-2004 16:06:01 7.1 C 48 % -3.15 C
562 18-02-2004 16:18:01 6.6 C 48 % -3.61 C
563 18-02-2004 16:30:01 6.7 C 49 % -3.24 C
564 18-02-2004 16:42:01 7.2 C 46 % -3.63 C
565 18-02-2004 16:54:00 7 C 45 % -4.1 C
566 18-02-2004 17:06:00 7.2 C 45 % -3.92 C
567 18-02-2004 17:18:58 7.2 C 45 % -3.92 C
568 18-02-2004 17:30:57 6.5 C 46 % -4.27 C
569 18-02-2004 17:42:57 6 C 48 % -4.16 C
570 18-02-2004 17:54:01 5.6 C 50 % -3.99 C
571 18-02-2004 18:06:01 5.2 C 51 % -4.09 C
572 18-02-2004 18:18:01 4.9 C 53 % -3.86 C
573 18-02-2004 18:30:01 4.6 C 54 % -3.89 C
574 18-02-2004 18:42:01 4.3 C 56 % -3.69 C
575 18-02-2004 18:54:00 3.8 C 60 % -3.23 C
Sensor: Nr:Datum:Temp:Feuchte:Taupunkt:
Aussen-T/F 576 18-02-2004 19:06:59 3.9 C 60 % -3.14 C
577 18-02-2004 19:18:58 4.1 C 58 % -3.41 C
578 18-02-2004 19:30:57 4.1 C 58 % -3.41 C
579 18-02-2004 19:42:57 4.1 C 60 % -2.95 C
580 18-02-2004 19:54:01 3.7 C 61 % -3.11 C
581 18-02-2004 20:06:01 3.3 C 63 % -3.05 C
582 18-02-2004 20:18:01 2.7 C 65 % -3.21 C
583 18-02-2004 20:30:01 2.4 C 67 % -3.09 C
584 18-02-2004 20:42:01 2 C 67 % -3.47 C
585 18-02-2004 20:54:01 1.8 C 69 % -3.27 C
586 18-02-2004 21:06:01 1.6 C 70 % -3.27 C
587 18-02-2004 21:18:01 1.4 C 70 % -3.46 C
588 18-02-2004 21:30:01 1.2 C 71 % -3.46 C
589 18-02-2004 21:42:01 0.9 C 72 % -3.56 C
590 18-02-2004 21:54:00 0.7 C 72 % -3.76 C
591 18-02-2004 22:06:00 0.6 C 73 % -3.67 C
592 18-02-2004 22:18:58 0.5 C 74 % -3.58 C
593 18-02-2004 22:30:57 0.2 C 74 % -3.87 C
594 18-02-2004 22:42:57 0.1 C 74 % -3.97 C
595 18-02-2004 22:54:01 0.1 C 75 % -3.79 C
596 18-02-2004 23:06:01 0 C 76 % -3.71 C
597 18-02-2004 23:18:01 0.2 C 76 % -3.52 C
598 18-02-2004 23:30:01 0 C 75 % -3.89 C
599 18-02-2004 23:42:01 0.1 C 75 % -3.79 C
600 18-02-2004 23:54:00 0.4 C 75 % -3.5 C
Sensor: Nr:Datum:Temp:Feuchte:Taupunkt:
Aussen-T/F 601 19-02-2004 00:06:59 0.3 C 74 % -3.78 C
602 19-02-2004 00:18:58 0.1 C 74 % -3.97 C
603 19-02-2004 00:30:57 0.1 C 75 % -3.79 C
604 19-02-2004 00:42:57 0.2 C 75 % -3.69 C
605 19-02-2004 00:54:01 0.2 C 75 % -3.69 C
606 19-02-2004 01:06:01 0.3 C 75 % -3.6 C
607 19-02-2004 01:18:01 0.1 C 75 % -3.79 C
608 19-02-2004 01:30:01 -0.1 C 75 % -3.99 C
609 19-02-2004 01:42:01 -0.3 C 76 % -4.01 C
610 19-02-2004 01:54:01 -0.4 C 76 % -4.1 C
611 19-02-2004 02:06:01 -0.6 C 76 % -4.3 C
612 19-02-2004 02:18:01 -0.8 C 76 % -4.49 C
613 19-02-2004 02:30:01 -1 C 77 % -4.51 C
614 19-02-2004 02:42:01 -1 C 77 % -4.51 C
615 19-02-2004 02:55:01 -1.2 C 77 % -4.71 C
616 19-02-2004 03:07:01 -1.3 C 77 % -4.8 C
617 19-02-2004 03:19:00 -1.2 C 78 % -4.54 C
618 19-02-2004 03:31:01 -1.3 C 79 % -4.46 C
619 19-02-2004 03:43:01 -1.5 C 78 % -4.83 C
620 19-02-2004 03:55:01 -1.8 C 78 % -5.12 C
621 19-02-2004 04:07:01 -1.9 C 78 % -5.22 C
622 19-02-2004 04:19:00 -2 C 79 % -5.15 C
623 19-02-2004 04:31:00 -2.1 C 79 % -5.24 C
624 19-02-2004 04:43:00 -2 C 79 % -5.15 C
625 19-02-2004 04:55:01 -1.2 C 80 % -4.2 C
Sensor: Nr:Datum:Temp:Feuchte:Taupunkt:
Aussen-T/F 626 19-02-2004 05:07:01 -1.2 C 82 % -3.87 C
627 19-02-2004 05:19:01 -1.1 C 82 % -3.77 C
628 19-02-2004 05:31:01 -1 C 82 % -3.68 C
629 19-02-2004 05:43:01 -1 C 82 % -3.68 C
630 19-02-2004 05:55:01 -0.7 C 82 % -3.38 C
631 19-02-2004 06:07:01 -0.5 C 82 % -3.19 C
632 19-02-2004 06:19:01 -0.4 C 81 % -3.25 C
633 19-02-2004 06:31:01 -0.3 C 80 % -3.32 C
634 19-02-2004 06:43:01 -0.3 C 79 % -3.49 C
635 19-02-2004 06:55:00 -0.2 C 78 % -3.56 C
636 19-02-2004 07:07:00 -0.2 C 77 % -3.74 C
637 19-02-2004 07:19:59 0 C 77 % -3.54 C
638 19-02-2004 07:31:57 0 C 77 % -3.54 C
639 19-02-2004 07:43:57 0.2 C 76 % -3.52 C
640 19-02-2004 07:55:01 0.3 C 75 % -3.6 C
641 19-02-2004 08:07:01 0.4 C 74 % -3.68 C
642 19-02-2004 08:19:01 0.5 C 74 % -3.58 C
643 19-02-2004 08:31:01 0.8 C 75 % -3.11 C
644 19-02-2004 08:43:01 1.1 C 73 % -3.19 C
645 19-02-2004 08:55:00 1.3 C 73 % -2.99 C
646 19-02-2004 09:06:59 1.7 C 72 % -2.79 C
647 19-02-2004 09:19:58 1.9 C 70 % -2.98 C
648 19-02-2004 09:31:57 2.2 C 68 % -3.08 C
649 19-02-2004 09:43:57 2.4 C 64 % -3.7 C
650 19-02-2004 09:55:01 2.7 C 60 % -4.27 C
Sensor: Nr:Datum:Temp:Feuchte:Taupunkt:
Aussen-T/F 651 19-02-2004 10:07:01 2.8 C 58 % -4.63 C
652 19-02-2004 10:19:01 2.5 C 58 % -4.91 C
653 19-02-2004 10:31:01 2.9 C 57 % -4.76 C
654 19-02-2004 10:43:01 3.2 C 51 % -5.94 C
655 19-02-2004 10:55:01 3.1 C 46 % -7.37 C
656 19-02-2004 11:07:01 3.1 C 45 % -7.66 C
657 19-02-2004 11:19:01 3.7 C 45 % -7.11 C
658 19-02-2004 11:31:01 3.7 C 45 % -7.11 C
659 19-02-2004 11:43:01 3.4 C 46 % -7.1 C
660 19-02-2004 11:55:00 3.7 C 43 % -7.7 C
661 19-02-2004 12:07:00 4.1 C 41 % -7.95 C
662 19-02-2004 12:19:58 4.5 C 39 % -8.23 C
663 19-02-2004 12:31:57 4.6 C 38 % -8.47 C
664 19-02-2004 12:43:57 4.7 C 39 % -8.05 C
665 19-02-2004 12:55:01 4.4 C 38 % -8.65 C
666 19-02-2004 13:07:01 4.2 C 37 % -9.17 C
667 19-02-2004 13:19:01 4.1 C 37 % -9.26 C
668 19-02-2004 13:31:01 3.8 C 39 % -8.86 C
669 19-02-2004 13:43:01 3.5 C 39 % -9.12 C
670 19-02-2004 13:55:00 3.5 C 39 % -9.12 C
671 19-02-2004 14:07:00 3.6 C 40 % -8.71 C
672 19-02-2004 14:19:58 3.4 C 42 % -8.27 C
673 19-02-2004 14:31:57 3.4 C 44 % -7.67 C
674 19-02-2004 14:43:57 3.3 C 45 % -7.47 C
675 19-02-2004 14:55:01 3.1 C 45 % -7.66 C
Sensor: Nr:Datum:Temp:Feuchte:Taupunkt:
Aussen-T/F 676 19-02-2004 15:07:01 3 C 45 % -7.75 C
677 19-02-2004 15:19:01 2.9 C 46 % -7.56 C
678 19-02-2004 15:31:02 2.8 C 46 % -7.65 C
679 19-02-2004 15:43:02 2.7 C 47 % -7.46 C
680 19-02-2004 15:55:00 2.6 C 47 % -7.55 C
681 19-02-2004 16:07:00 2.4 C 46 % -8.01 C
682 19-02-2004 16:19:59 2.4 C 46 % -8.01 C
683 19-02-2004 16:31:59 2.5 C 46 % -7.92 C
684 19-02-2004 16:43:59 2.3 C 45 % -8.39 C
685 19-02-2004 16:55:01 2.3 C 45 % -8.39 C
686 19-02-2004 17:07:01 2.2 C 45 % -8.48 C
687 19-02-2004 17:19:01 2 C 45 % -8.66 C
688 19-02-2004 17:31:02 1.8 C 46 % -8.56 C
689 19-02-2004 17:43:02 1.7 C 46 % -8.65 C
690 19-02-2004 17:55:01 1.6 C 46 % -8.75 C
691 19-02-2004 18:07:01 1.5 C 45 % -9.12 C
692 19-02-2004 18:19:01 1.4 C 46 % -8.93 C
693 19-02-2004 18:31:01 1.4 C 46 % -8.93 C
694 19-02-2004 18:43:01 1.3 C 46 % -9.02 C
695 19-02-2004 18:55:00 1.2 C 46 % -9.11 C
696 19-02-2004 19:07:00 1.2 C 46 % -9.11 C
697 19-02-2004 19:19:59 1.2 C 46 % -9.11 C
698 19-02-2004 19:31:57 1.2 C 46 % -9.11 C
699 19-02-2004 19:43:57 1.1 C 47 % -8.93 C
700 19-02-2004 19:55:01 1.1 C 47 % -8.93 C
Sensor: Nr:Datum:Temp:Feuchte:Taupunkt:
Aussen-T/F 701 19-02-2004 20:07:01 1.1 C 47 % -8.93 C
702 19-02-2004 20:19:01 1.1 C 47 % -8.93 C
703 19-02-2004 20:31:01 1.1 C 47 % -8.93 C
704 19-02-2004 20:43:01 1.1 C 47 % -8.93 C
705 19-02-2004 20:55:00 1.1 C 47 % -8.93 C
706 19-02-2004 21:07:00 1.1 C 48 % -8.66 C
707 19-02-2004 21:19:58 1.1 C 48 % -8.66 C
708 19-02-2004 21:31:57 1.1 C 48 % -8.66 C
709 19-02-2004 21:43:57 1.1 C 48 % -8.66 C
710 19-02-2004 21:55:01 1 C 48 % -8.75 C
711 19-02-2004 22:07:01 0.9 C 50 % -8.33 C
712 19-02-2004 22:19:01 1 C 48 % -8.75 C
713 19-02-2004 22:31:01 0.9 C 49 % -8.58 C
714 19-02-2004 22:43:01 0.9 C 48 % -8.85 C
715 19-02-2004 22:55:01 1 C 47 % -9.02 C
716 19-02-2004 23:07:01 0.9 C 49 % -8.58 C
717 19-02-2004 23:19:01 0.9 C 49 % -8.58 C
718 19-02-2004 23:31:01 0.9 C 49 % -8.58 C
719 19-02-2004 23:43:01 0.8 C 49 % -8.68 C
720 19-02-2004 23:55:01 0.8 C 50 % -8.42 C
721 20-02-2004 00:07:00 0.8 C 49 % -8.68 C
722 20-02-2004 00:19:59 0.8 C 49 % -8.68 C
723 20-02-2004 00:31:57 0.8 C 49 % -8.68 C
724 20-02-2004 00:43:57 0.7 C 49 % -8.77 C
725 20-02-2004 00:55:01 0.7 C 49 % -8.77 C
Sensor: Nr:Datum:Temp:Feuchte:Taupunkt:
Aussen-T/F 726 20-02-2004 01:07:01 0.7 C 49 % -8.77 C
727 20-02-2004 01:19:01 0.4 C 50 % -8.79 C
728 20-02-2004 01:31:01 0.3 C 51 % -8.63 C
729 20-02-2004 01:43:01 0.2 C 51 % -8.72 C
730 20-02-2004 01:55:00 0.3 C 51 % -8.63 C
731 20-02-2004 02:07:59 0.3 C 51 % -8.63 C
732 20-02-2004 02:19:58 0.1 C 52 % -8.56 C
733 20-02-2004 02:31:57 0 C 52 % -8.66 C
734 20-02-2004 02:43:57 -0.2 C 54 % -8.37 C
735 20-02-2004 02:56:02 -0.2 C 54 % -8.37 C
736 20-02-2004 03:08:02 -0.3 C 54 % -8.47 C
737 20-02-2004 03:20:02 -0.3 C 55 % -8.23 C
738 20-02-2004 03:32:00 -0.3 C 55 % -8.23 C
739 20-02-2004 03:44:00 -0.3 C 55 % -8.23 C
740 20-02-2004 03:56:00 -0.4 C 56 % -8.09 C
741 20-02-2004 04:08:00 -0.6 C 56 % -8.28 C
742 20-02-2004 04:20:59 -0.7 C 56 % -8.38 C
743 20-02-2004 04:32:57 -1 C 57 % -8.43 C
744 20-02-2004 04:44:01 -1.1 C 57 % -8.52 C
745 20-02-2004 04:56:01 -1.1 C 57 % -8.52 C
746 20-02-2004 05:08:01 -1.2 C 57 % -8.62 C
747 20-02-2004 05:20:01 -1.2 C 57 % -8.62 C
748 20-02-2004 05:32:01 -1.2 C 57 % -8.62 C
749 20-02-2004 05:44:01 -1.3 C 58 % -8.49 C
750 20-02-2004 05:56:00 -1.5 C 58 % -8.68 C
Sensor: Nr:Datum:Temp:Feuchte:Taupunkt:
Aussen-T/F 751 20-02-2004 06:08:00 -1.6 C 60 % -8.34 C
752 20-02-2004 06:20:58 -1.5 C 59 % -8.46 C
753 20-02-2004 06:32:57 -1.4 C 59 % -8.36 C
754 20-02-2004 06:44:01 -1.4 C 59 % -8.36 C
755 20-02-2004 06:56:01 -1.5 C 59 % -8.46 C
756 20-02-2004 07:08:01 -1.6 C 60 % -8.34 C
757 20-02-2004 07:20:01 -1.6 C 61 % -8.13 C
758 20-02-2004 07:32:01 -1.7 C 61 % -8.22 C
759 20-02-2004 07:44:01 -1.8 C 61 % -8.31 C
760 20-02-2004 07:56:01 -1.8 C 61 % -8.31 C
761 20-02-2004 08:08:01 -1.6 C 61 % -8.13 C
762 20-02-2004 08:20:01 -1.6 C 60 % -8.34 C
763 20-02-2004 08:32:01 -1.5 C 60 % -8.24 C
764 20-02-2004 08:44:01 -1.4 C 60 % -8.15 C
765 20-02-2004 08:56:00 -1.2 C 59 % -8.18 C
766 20-02-2004 09:08:00 -1.3 C 59 % -8.27 C
767 20-02-2004 09:20:59 -1.2 C 59 % -8.18 C
768 20-02-2004 09:32:58 -1.1 C 58 % -8.3 C
769 20-02-2004 09:44:01 -0.8 C 57 % -8.24 C
770 20-02-2004 09:56:01 -0.7 C 57 % -8.15 C
771 20-02-2004 10:08:01 -0.6 C 56 % -8.28 C
772 20-02-2004 10:20:01 -0.2 C 55 % -8.14 C
773 20-02-2004 10:32:01 0.4 C 54 % -7.8 C
774 20-02-2004 10:44:01 0.7 C 52 % -8.01 C
775 20-02-2004 10:56:00 1.2 C 50 % -8.05 C
Sensor: Nr:Datum:Temp:Feuchte:Taupunkt:
Aussen-T/F 776 20-02-2004 11:08:00 1.5 C 49 % -8.03 C
777 20-02-2004 11:20:58 2 C 47 % -8.1 C
778 20-02-2004 11:32:57 2.2 C 46 % -8.2 C
779 20-02-2004 11:44:01 2.6 C 44 % -8.4 C
780 20-02-2004 11:56:01 2.9 C 43 % -8.42 C
781 20-02-2004 12:08:01 3.4 C 42 % -8.27 C
782 20-02-2004 12:20:01 3.9 C 40 % -8.44 C
783 20-02-2004 12:32:01 4.3 C 38 % -8.74 C
784 20-02-2004 12:44:01 4.6 C 37 % -8.81 C
785 20-02-2004 12:56:00 5 C 37 % -8.45 C
786 20-02-2004 13:08:59 5.6 C 36 % -8.27 C
787 20-02-2004 13:20:58 6 C 33 % -9.03 C
788 20-02-2004 13:32:57 6.6 C 34 % -8.12 C
789 20-02-2004 13:44:01 6.9 C 31 % -9.03 C
790 20-02-2004 13:56:01 7.1 C 30 % -9.27 C
791 20-02-2004 14:08:01 7.7 C 29 % -9.18 C
792 20-02-2004 14:20:01 8.2 C 29 % -8.75 C
793 20-02-2004 14:32:00 8.2 C 26 % -10.13 C
794 20-02-2004 14:44:00 8.4 C 27 % -9.48 C
795 20-02-2004 14:56:01 8.7 C 26 % -9.7 C
796 20-02-2004 15:08:01 9.1 C 25 % -9.86 C
797 20-02-2004 15:20:01 8.9 C 25 % -10.03 C
798 20-02-2004 15:32:01 9.1 C 25 % -9.86 C
799 20-02-2004 15:44:01 9.2 C 25 % -9.77 C
800 20-02-2004 15:56:00 9.3 C 25 % -9.69 C
Sensor: Nr:Datum:Temp:Feuchte:Taupunkt:
Aussen-T/F 801 20-02-2004 16:07:59 9.1 C 26 % -9.36 C
802 20-02-2004 16:20:58 9.3 C 25 % -9.69 C
803 20-02-2004 16:32:04 9.2 C 25 % -9.77 C
804 20-02-2004 16:44:04 8.8 C 26 % -9.62 C
805 20-02-2004 16:56:02 8.7 C 29 % -8.32 C
806 20-02-2004 17:08:02 8.6 C 30 % -7.97 C
807 20-02-2004 17:20:10 7.9 C 32 % -7.75 C
808 20-02-2004 17:32:13 7.1 C 34 % -7.67 C
809 20-02-2004 17:44:13 5.8 C 38 % -7.4 C
810 20-02-2004 17:56:01 5 C 40 % -7.45 C
811 20-02-2004 18:08:01 4.2 C 42 % -7.55 C
812 20-02-2004 18:20:01 3.6 C 45 % -7.2 C
813 20-02-2004 18:32:01 3.3 C 46 % -7.19 C
814 20-02-2004 18:44:01 3.1 C 46 % -7.37 C
815 20-02-2004 18:56:01 2.9 C 48 % -7.01 C
816 20-02-2004 19:08:01 2.7 C 48 % -7.19 C
817 20-02-2004 19:20:01 2.5 C 49 % -7.11 C
818 20-02-2004 19:32:01 2.4 C 50 % -6.94 C
819 20-02-2004 19:44:01 2.3 C 50 % -7.03 C
820 20-02-2004 19:56:00 2.3 C 50 % -7.03 C
821 20-02-2004 20:08:57 2.1 C 51 % -6.96 C
822 20-02-2004 20:20:56 1.9 C 52 % -6.89 C
823 20-02-2004 20:32:54 1.7 C 53 % -6.83 C
824 20-02-2004 20:44:00 1.5 C 53 % -7.02 C
825 20-02-2004 20:56:00 1.4 C 54 % -6.87 C
Sensor: Nr:Datum:Temp:Feuchte:Taupunkt:
Aussen-T/F 826 20-02-2004 21:08:00 1.3 C 55 % -6.73 C
827 20-02-2004 21:20:59 1.2 C 55 % -6.82 C
828 20-02-2004 21:32:58 1 C 56 % -6.77 C
829 20-02-2004 21:44:01 0.9 C 57 % -6.64 C
830 20-02-2004 21:56:01 0.7 C 57 % -6.82 C
831 20-02-2004 22:08:00 0.6 C 58 % -6.69 C
832 20-02-2004 22:20:59 0.5 C 59 % -6.56 C
833 20-02-2004 22:32:58 0.4 C 59 % -6.66 C
834 20-02-2004 22:44:01 0.2 C 59 % -6.85 C
835 20-02-2004 22:56:01 0.1 C 59 % -6.94 C
836 20-02-2004 23:08:01 0 C 60 % -6.82 C
837 20-02-2004 23:20:00 -0.1 C 60 % -6.92 C
838 20-02-2004 23:32:00 -0.1 C 60 % -6.92 C
839 20-02-2004 23:44:00 -0.1 C 59 % -7.14 C
840 20-02-2004 23:56:01 -0.1 C 59 % -7.14 C
841 21-02-2004 00:08:01 -0.2 C 59 % -7.23 C
842 21-02-2004 00:20:02 -0.3 C 60 % -7.11 C
843 21-02-2004 00:32:01 -0.3 C 60 % -7.11 C
844 21-02-2004 00:44:01 -0.4 C 61 % -6.99 C
845 21-02-2004 00:56:01 -0.6 C 62 % -6.97 C
846 21-02-2004 01:08:01 -0.9 C 61 % -7.46 C
847 21-02-2004 01:20:01 -1 C 62 % -7.35 C
848 21-02-2004 01:32:01 -1.1 C 63 % -7.24 C
849 21-02-2004 01:44:01 -1.3 C 64 % -7.22 C
850 21-02-2004 01:56:01 -1.2 C 63 % -7.33 C
Sensor: Nr:Datum:Temp:Feuchte:Taupunkt:
Aussen-T/F 851 21-02-2004 02:08:01 -1.4 C 63 % -7.52 C
852 21-02-2004 02:20:01 -1.4 C 63 % -7.52 C
853 21-02-2004 02:32:01 -1.3 C 63 % -7.43 C
854 21-02-2004 02:44:01 -1.5 C 65 % -7.21 C
855 21-02-2004 02:57:01 -1.6 C 66 % -7.11 C
856 21-02-2004 03:09:01 -1.8 C 65 % -7.5 C
857 21-02-2004 03:20:59 -1.9 C 66 % -7.4 C
858 21-02-2004 03:33:01 -2 C 65 % -7.69 C
859 21-02-2004 03:45:01 -2.1 C 66 % -7.59 C
860 21-02-2004 03:57:01 -2.3 C 66 % -7.78 C
861 21-02-2004 04:09:01 -2.5 C 66 % -7.97 C
862 21-02-2004 04:21:01 -2.4 C 66 % -7.87 C
863 21-02-2004 04:33:01 -2.3 C 67 % -7.58 C
864 21-02-2004 04:45:00 -2 C 66 % -7.49 C
865 21-02-2004 04:57:00 -1.9 C 65 % -7.59 C
866 21-02-2004 05:09:59 -1.8 C 63 % -7.9 C
867 21-02-2004 05:21:58 -1.8 C 63 % -7.9 C
868 21-02-2004 05:33:57 -1.8 C 62 % -8.11 C
869 21-02-2004 05:45:01 -1.8 C 62 % -8.11 C
870 21-02-2004 05:57:01 -2 C 63 % -8.09 C
871 21-02-2004 06:09:01 -1.9 C 63 % -8 C
872 21-02-2004 06:21:01 -2 C 63 % -8.09 C
873 21-02-2004 06:33:01 -2 C 63 % -8.09 C
874 21-02-2004 06:45:01 -2 C 64 % -7.89 C
875 21-02-2004 06:57:01 -1.8 C 63 % -7.9 C
Sensor: Nr:Datum:Temp:Feuchte:Taupunkt:
Aussen-T/F 876 21-02-2004 07:09:01 -1.4 C 61 % -7.94 C
877 21-02-2004 07:21:01 -1.4 C 60 % -8.15 C
878 21-02-2004 07:33:01 -1.1 C 59 % -8.08 C
879 21-02-2004 07:45:00 -1.1 C 58 % -8.3 C
880 21-02-2004 07:57:00 -1.4 C 60 % -8.15 C
881 21-02-2004 08:09:00 -0.9 C 58 % -8.11 C
882 21-02-2004 08:21:58 -0.7 C 58 % -7.92 C
883 21-02-2004 08:33:57 -0.4 C 56 % -8.09 C
884 21-02-2004 08:45:01 -0.4 C 56 % -8.09 C
885 21-02-2004 08:57:01 -0.4 C 57 % -7.87 C
886 21-02-2004 09:09:01 -0.3 C 57 % -7.77 C
887 21-02-2004 09:21:01 0.1 C 56 % -7.61 C
888 21-02-2004 09:33:01 0.4 C 55 % -7.57 C
889 21-02-2004 09:45:00 0.5 C 54 % -7.71 C
890 21-02-2004 09:57:00 0.7 C 54 % -7.52 C
891 21-02-2004 10:09:59 1 C 52 % -7.73 C
892 21-02-2004 10:21:58 1.1 C 52 % -7.64 C
893 21-02-2004 10:33:57 1.2 C 53 % -7.3 C
894 21-02-2004 10:45:01 1.3 C 51 % -7.7 C
895 21-02-2004 10:57:01 1.5 C 50 % -7.77 C
896 21-02-2004 11:09:01 1.5 C 50 % -7.77 C
897 21-02-2004 11:21:01 1.5 C 51 % -7.52 C
898 21-02-2004 11:33:01 1.6 C 51 % -7.42 C
899 21-02-2004 11:45:01 1.8 C 51 % -7.24 C
900 21-02-2004 11:57:01 2.2 C 50 % -7.12 C
Sensor: Nr:Datum:Temp:Feuchte:Taupunkt:
Aussen-T/F 901 21-02-2004 12:09:01 2.4 C 50 % -6.94 C
902 21-02-2004 12:21:01 3 C 46 % -7.47 C
903 21-02-2004 12:33:01 3.1 C 45 % -7.66 C
904 21-02-2004 12:45:00 3.3 C 46 % -7.19 C
905 21-02-2004 12:57:00 3.5 C 45 % -7.29 C
906 21-02-2004 13:09:00 3.4 C 45 % -7.38 C
907 21-02-2004 13:21:58 3.7 C 45 % -7.11 C
908 21-02-2004 13:33:57 3.7 C 45 % -7.11 C
909 21-02-2004 13:45:01 3.5 C 46 % -7.01 C
910 21-02-2004 13:57:01 3.5 C 46 % -7.01 C
911 21-02-2004 14:09:01 3.6 C 45 % -7.2 C
912 21-02-2004 14:21:01 3.6 C 45 % -7.2 C
913 21-02-2004 14:33:01 3.7 C 45 % -7.11 C
914 21-02-2004 14:45:01 3.9 C 45 % -6.93 C
915 21-02-2004 14:57:01 4.2 C 44 % -6.94 C
916 21-02-2004 15:09:28 4.4 C 44 % -6.76 C
917 21-02-2004 15:21:01 4.8 C 43 % -6.7 C
918 21-02-2004 15:33:01 5.3 C 41 % -6.86 C
919 21-02-2004 15:45:00 5.5 C 41 % -6.68 C
920 21-02-2004 15:57:00 5.5 C 41 % -6.68 C
921 21-02-2004 16:09:00 5.8 C 41 % -6.41 C
922 21-02-2004 16:21:59 5.7 C 40 % -6.82 C
923 21-02-2004 16:33:57 5.5 C 41 % -6.68 C
924 21-02-2004 16:45:02 5.1 C 42 % -6.73 C
925 21-02-2004 16:57:02 4.8 C 43 % -6.7 C
Sensor: Nr:Datum:Temp:Feuchte:Taupunkt:
Aussen-T/F 926 21-02-2004 17:09:04 4.6 C 44 % -6.58 C
927 21-02-2004 17:21:02 4.4 C 45 % -6.47 C
928 21-02-2004 17:33:02 4.3 C 45 % -6.56 C
929 21-02-2004 17:45:02 4.2 C 45 % -6.65 C
930 21-02-2004 17:57:02 4.1 C 46 % -6.46 C
931 21-02-2004 18:09:01 3.9 C 47 % -6.36 C
932 21-02-2004 18:21:59 3.8 C 49 % -5.91 C
933 21-02-2004 18:33:59 3.7 C 48 % -6.27 C
934 21-02-2004 18:45:01 3.7 C 50 % -5.74 C
935 21-02-2004 18:57:01 3.6 C 50 % -5.83 C
936 21-02-2004 19:09:01 3.4 C 51 % -5.76 C
937 21-02-2004 19:21:00 3 C 51 % -6.13 C
938 21-02-2004 19:33:00 2.7 C 53 % -5.9 C
939 21-02-2004 19:45:01 2.5 C 54 % -5.85 C
940 21-02-2004 19:57:01 2.5 C 55 % -5.61 C
941 21-02-2004 20:09:01 2.6 C 55 % -5.51 C
942 21-02-2004 20:21:01 2.7 C 55 % -5.42 C
943 21-02-2004 20:33:01 2.8 C 56 % -5.09 C
944 21-02-2004 20:45:01 2.9 C 55 % -5.23 C
945 21-02-2004 20:57:01 2.8 C 55 % -5.33 C
946 21-02-2004 21:09:01 2.8 C 56 % -5.09 C
947 21-02-2004 21:21:01 2.4 C 56 % -5.46 C
948 21-02-2004 21:33:01 1.9 C 58 % -5.47 C
949 21-02-2004 21:45:00 1.6 C 59 % -5.53 C
950 21-02-2004 21:57:00 1.4 C 59 % -5.72 C
Sensor: Nr:Datum:Temp:Feuchte:Taupunkt:
Aussen-T/F 951 21-02-2004 22:09:00 1.2 C 60 % -5.69 C
952 21-02-2004 22:21:58 1.1 C 61 % -5.56 C
953 21-02-2004 22:33:57 0.9 C 62 % -5.54 C
954 21-02-2004 22:45:01 0.9 C 62 % -5.54 C
955 21-02-2004 22:57:01 0.7 C 63 % -5.52 C
956 21-02-2004 23:09:01 0.6 C 64 % -5.41 C
957 21-02-2004 23:21:01 0.4 C 65 % -5.39 C
958 21-02-2004 23:33:01 0.3 C 65 % -5.49 C
959 21-02-2004 23:45:01 0.3 C 66 % -5.29 C
960 21-02-2004 23:57:01 0.1 C 66 % -5.48 C
961 22-02-2004 00:09:01 0.2 C 66 % -5.38 C
962 22-02-2004 00:21:01 0.1 C 66 % -5.48 C
963 22-02-2004 00:33:01 0 C 66 % -5.58 C
964 22-02-2004 00:45:00 0 C 65 % -5.78 C
965 22-02-2004 00:57:00 -0.1 C 66 % -5.68 C
966 22-02-2004 01:09:00 -0.2 C 67 % -5.58 C
967 22-02-2004 01:21:59 -0.1 C 67 % -5.48 C
968 22-02-2004 01:33:57 -0.1 C 68 % -5.29 C
969 22-02-2004 01:45:01 0 C 67 % -5.38 C
970 22-02-2004 01:57:01 0.2 C 67 % -5.19 C
971 22-02-2004 02:09:01 0.3 C 67 % -5.09 C
972 22-02-2004 02:21:01 0.2 C 66 % -5.38 C
973 22-02-2004 02:33:01 0.1 C 67 % -5.28 C
974 22-02-2004 02:46:01 -0.1 C 67 % -5.48 C
975 22-02-2004 02:58:01 -0.2 C 68 % -5.38 C
Sensor: Nr:Datum:Temp:Feuchte:Taupunkt:
Aussen-T/F 976 22-02-2004 03:10:00 -0.3 C 69 % -5.29 C
977 22-02-2004 03:22:00 -0.3 C 69 % -5.29 C
978 22-02-2004 03:34:01 -0.1 C 69 % -5.09 C
979 22-02-2004 03:46:01 0.2 C 68 % -4.99 C
980 22-02-2004 03:58:01 0.1 C 69 % -4.9 C
981 22-02-2004 04:10:00 0.1 C 69 % -4.9 C
982 22-02-2004 04:22:00 0.2 C 68 % -4.99 C
983 22-02-2004 04:34:00 0.2 C 68 % -4.99 C
984 22-02-2004 04:46:01 0.3 C 68 % -4.9 C
985 22-02-2004 04:58:01 0.4 C 67 % -5 C
986 22-02-2004 05:10:01 0.4 C 67 % -5 C
987 22-02-2004 05:22:01 0.4 C 68 % -4.8 C
988 22-02-2004 05:34:00 0.4 C 69 % -4.61 C
989 22-02-2004 05:46:01 0.4 C 69 % -4.61 C
990 22-02-2004 05:58:01 0.4 C 69 % -4.61 C
991 22-02-2004 06:10:01 0.4 C 69 % -4.61 C
992 22-02-2004 06:22:01 0.4 C 69 % -4.61 C
993 22-02-2004 06:34:01 0.5 C 69 % -4.51 C
994 22-02-2004 06:46:00 0.4 C 69 % -4.61 C
995 22-02-2004 06:58:00 0.4 C 70 % -4.42 C
996 22-02-2004 07:10:00 0.5 C 69 % -4.51 C
997 22-02-2004 07:22:58 0.6 C 69 % -4.42 C
998 22-02-2004 07:34:57 0.7 C 68 % -4.51 C
999 22-02-2004 07:46:01 1 C 67 % -4.42 C
1000 22-02-2004 07:58:01 1.2 C 66 % -4.43 C
Sensor: Nr:Datum:Temp:Feuchte:Taupunkt:
Aussen-T/F 1001 22-02-2004 08:10:01 1.3 C 66 % -4.34 C
1002 22-02-2004 08:22:01 1.4 C 66 % -4.24 C
1003 22-02-2004 08:34:01 1.5 C 66 % -4.15 C
1004 22-02-2004 08:46:00 1.6 C 65 % -4.25 C
1005 22-02-2004 08:58:00 1.7 C 65 % -4.16 C
1006 22-02-2004 09:10:59 1.8 C 65 % -4.06 C
1007 22-02-2004 09:22:58 1.8 C 65 % -4.06 C
1008 22-02-2004 09:34:57 2 C 65 % -3.87 C
1009 22-02-2004 09:46:01 1.9 C 66 % -3.76 C
1010 22-02-2004 09:58:01 1.9 C 66 % -3.76 C
1011 22-02-2004 10:10:01 1.8 C 66 % -3.86 C
1012 22-02-2004 10:22:01 1.6 C 66 % -4.05 C
1013 22-02-2004 10:34:00 1.7 C 66 % -3.95 C
1014 22-02-2004 10:46:16 1.5 C 66 % -4.15 C
1015 22-02-2004 10:58:01 1.7 C 66 % -3.95 C
1016 22-02-2004 11:10:01 1.8 C 66 % -3.86 C
1017 22-02-2004 11:22:01 1.7 C 66 % -3.95 C
1018 22-02-2004 11:34:01 1.9 C 66 % -3.76 C
1019 22-02-2004 11:46:40 2.1 C 64 % -3.98 C
1020 22-02-2004 11:58:00 2 C 63 % -4.29 C
1021 22-02-2004 12:10:00 1.9 C 65 % -3.97 C
1022 22-02-2004 12:22:59 1.6 C 64 % -4.46 C
1023 22-02-2004 12:34:58 2 C 63 % -4.29 C
1024 22-02-2004 12:46:01 1.9 C 63 % -4.38 C
1025 22-02-2004 12:58:01 2.1 C 62 % -4.4 C
Sensor: Nr:Datum:Temp:Feuchte:Taupunkt:
Aussen-T/F 1026 22-02-2004 13:10:01 2.3 C 60 % -4.65 C
1027 22-02-2004 13:22:01 2.5 C 58 % -4.91 C
1028 22-02-2004 13:34:01 2.8 C 58 % -4.63 C
1029 22-02-2004 13:46:00 2.8 C 56 % -5.09 C
1030 22-02-2004 13:58:00 3.3 C 54 % -5.1 C
1031 22-02-2004 14:10:00 3.3 C 53 % -5.35 C
1032 22-02-2004 14:22:59 3.4 C 52 % -5.5 C
1033 22-02-2004 14:34:57 3.6 C 51 % -5.57 C
1034 22-02-2004 14:46:01 4 C 49 % -5.73 C
1035 22-02-2004 14:58:01 4.3 C 46 % -6.28 C
1036 22-02-2004 15:10:01 4.5 C 44 % -6.67 C
1037 22-02-2004 15:22:01 5.1 C 41 % -7.04 C
1038 22-02-2004 15:34:01 5.4 C 38 % -7.75 C
1039 22-02-2004 15:46:00 5.8 C 37 % -7.74 C
1040 22-02-2004 15:58:00 5.5 C 36 % -8.36 C
1041 22-02-2004 16:09:59 4.8 C 41 % -7.31 C
1042 22-02-2004 16:22:58 4.7 C 43 % -6.79 C
1043 22-02-2004 16:34:57 4.6 C 45 % -6.29 C
1044 22-02-2004 16:46:01 4.4 C 46 % -6.18 C
1045 22-02-2004 16:58:01 4.1 C 46 % -6.46 C
1046 22-02-2004 17:10:01 3.9 C 47 % -6.36 C
1047 22-02-2004 17:22:01 3.7 C 47 % -6.55 C
1048 22-02-2004 17:34:01 3.6 C 48 % -6.36 C
1049 22-02-2004 17:46:01 3.6 C 49 % -6.1 C
1050 22-02-2004 17:58:01 3.6 C 49 % -6.1 C
Sensor: Nr:Datum:Temp:Feuchte:Taupunkt:
Aussen-T/F 1051 22-02-2004 18:10:01 3.5 C 49 % -6.19 C
1052 22-02-2004 18:22:01 3.5 C 50 % -5.92 C
1053 22-02-2004 18:34:01 3.5 C 50 % -5.92 C
1054 22-02-2004 18:46:00 3.5 C 51 % -5.66 C
1055 22-02-2004 18:58:00 3.5 C 51 % -5.66 C
1056 22-02-2004 19:10:00 3.5 C 52 % -5.41 C
1057 22-02-2004 19:22:59 3.5 C 53 % -5.16 C
1058 22-02-2004 19:34:57 3.3 C 53 % -5.35 C
1059 22-02-2004 19:46:01 2.7 C 56 % -5.18 C
1060 22-02-2004 19:58:01 2.4 C 58 % -5 C
1061 22-02-2004 20:10:01 2.5 C 58 % -4.91 C
1062 22-02-2004 20:22:01 2.6 C 59 % -4.59 C
1063 22-02-2004 20:34:01 2.7 C 58 % -4.72 C
1064 22-02-2004 20:46:00 2.8 C 58 % -4.63 C
1065 22-02-2004 20:58:00 2.9 C 59 % -4.31 C
1066 22-02-2004 21:10:59 2.9 C 60 % -4.08 C
1067 22-02-2004 21:22:58 3 C 58 % -4.44 C
1068 22-02-2004 21:34:57 3 C 58 % -4.44 C
1069 22-02-2004 21:46:01 3 C 58 % -4.44 C
1070 22-02-2004 21:58:01 3.1 C 58 % -4.34 C
1071 22-02-2004 22:10:01 3.1 C 56 % -4.81 C
1072 22-02-2004 22:22:01 3 C 53 % -5.62 C
1073 22-02-2004 22:34:01 2.8 C 51 % -6.31 C
1074 22-02-2004 22:46:01 2.6 C 49 % -7.02 C
1075 22-02-2004 22:58:01 2.2 C 48 % -7.65 C
Sensor: Nr:Datum:Temp:Feuchte:Taupunkt:
Aussen-T/F 1076 22-02-2004 23:10:01 2 C 47 % -8.1 C
1077 22-02-2004 23:22:01 1.8 C 48 % -8.02 C
1078 22-02-2004 23:34:01 1.5 C 50 % -7.77 C
1079 22-02-2004 23:46:00 1.3 C 51 % -7.7 C
1080 22-02-2004 23:58:00 1.1 C 52 % -7.64 C
1081 23-02-2004 00:10:00 0.8 C 54 % -7.43 C
1082 23-02-2004 00:22:59 0.8 C 55 % -7.19 C
1083 23-02-2004 00:34:57 0.6 C 56 % -7.15 C
1084 23-02-2004 00:46:01 0.4 C 56 % -7.33 C
1085 23-02-2004 00:58:01 0.3 C 57 % -7.2 C
1086 23-02-2004 01:10:01 0.2 C 58 % -7.07 C
1087 23-02-2004 01:22:01 0 C 60 % -6.82 C
1088 23-02-2004 01:34:01 -0.3 C 61 % -6.9 C
1089 23-02-2004 01:46:00 -0.4 C 61 % -6.99 C
1090 23-02-2004 01:58:00 -0.3 C 62 % -6.68 C
1091 23-02-2004 02:09:59 -0.3 C 62 % -6.68 C
1092 23-02-2004 02:22:58 -0.6 C 63 % -6.76 C
1093 23-02-2004 02:34:57 -0.9 C 63 % -7.05 C
1094 23-02-2004 02:47:02 -0.9 C 65 % -6.64 C
1095 23-02-2004 02:59:02 -1 C 66 % -6.54 C
1096 23-02-2004 03:11:02 -1.1 C 67 % -6.44 C
1097 23-02-2004 03:23:02 -1.1 C 67 % -6.44 C
1098 23-02-2004 03:35:00 -1.5 C 67 % -6.82 C
1099 23-02-2004 03:47:00 -1.7 C 69 % -6.63 C
1100 23-02-2004 03:59:00 -1.9 C 70 % -6.63 C
Sensor: Nr:Datum:Temp:Feuchte:Taupunkt:
Aussen-T/F 1101 23-02-2004 04:11:00 -1.6 C 71 % -6.16 C
1102 23-02-2004 04:23:59 -1.4 C 70 % -6.15 C
1103 23-02-2004 04:35:57 -1.4 C 70 % -6.15 C
1104 23-02-2004 04:47:01 -1.4 C 70 % -6.15 C
1105 23-02-2004 04:59:01 -1.4 C 69 % -6.34 C
1106 23-02-2004 05:11:01 -1.4 C 70 % -6.15 C
1107 23-02-2004 05:23:01 -1 C 69 % -5.96 C
1108 23-02-2004 05:35:01 -0.9 C 68 % -6.05 C
1109 23-02-2004 05:47:00 -0.9 C 67 % -6.25 C
1110 23-02-2004 05:59:00 -0.9 C 67 % -6.25 C
1111 23-02-2004 06:11:00 -0.8 C 68 % -5.96 C
1112 23-02-2004 06:23:58 -0.7 C 67 % -6.05 C
1113 23-02-2004 06:35:57 -0.7 C 68 % -5.86 C
1114 23-02-2004 06:47:01 -0.7 C 68 % -5.86 C
1115 23-02-2004 06:59:01 -0.6 C 68 % -5.76 C
1116 23-02-2004 07:11:01 -0.6 C 68 % -5.76 C
1117 23-02-2004 07:23:01 -0.6 C 68 % -5.76 C
1118 23-02-2004 07:35:01 -0.5 C 68 % -5.67 C
1119 23-02-2004 07:47:01 -0.4 C 68 % -5.57 C
1120 23-02-2004 07:59:01 -0.4 C 68 % -5.57 C
1121 23-02-2004 08:11:01 -0.3 C 68 % -5.48 C
1122 23-02-2004 08:23:01 -0.3 C 68 % -5.48 C
1123 23-02-2004 08:35:01 -0.3 C 68 % -5.48 C
1124 23-02-2004 08:47:00 -0.4 C 69 % -5.38 C
1125 23-02-2004 08:59:00 -0.1 C 69 % -5.09 C
Sensor: Nr:Datum:Temp:Feuchte:Taupunkt:
Aussen-T/F 1126 23-02-2004 09:11:00 0.2 C 68 % -4.99 C
1127 23-02-2004 09:23:59 0.5 C 66 % -5.1 C
1128 23-02-2004 09:35:57 0.7 C 65 % -5.11 C
1129 23-02-2004 09:47:23 0.8 C 65 % -5.01 C
1130 23-02-2004 09:59:02 1.1 C 63 % -5.14 C
1131 23-02-2004 10:02:24 0.8 C 64 % -5.22 C
1132 23-02-2004 10:05:01 0.8 C 64 % -5.22 C
1133 23-02-2004 10:14:01 1 C 63 % -5.23 C
1134 23-02-2004 10:26:01 1 C 63 % -5.23 C
1135 23-02-2004 10:38:01 1 C 63 % -5.23 C
1136 23-02-2004 10:50:01 1.3 C 63 % -4.95 C
1137 23-02-2004 11:13:59 1.4 C 62 % -5.07 C
1138 23-02-2004 11:14:58 1.5 C 60 % -5.4 C
1139 23-02-2004 11:26:58 1.9 C 57 % -5.7 C
1140 23-02-2004 11:38:57 1.9 C 58 % -5.47 C
1141 23-02-2004 11:50:01 2.5 C 56 % -5.37 C
1142 23-02-2004 12:02:01 2.2 C 56 % -5.65 C
1143 23-02-2004 12:14:01 2.6 C 57 % -5.04 C
1144 23-02-2004 12:26:01 2.8 C 55 % -5.33 C
1145 23-02-2004 12:38:01 3 C 51 % -6.13 C
1146 23-02-2004 12:50:01 3.8 C 48 % -6.18 C
1147 23-02-2004 13:02:01 3.7 C 45 % -7.11 C
1148 23-02-2004 13:14:01 4.1 C 44 % -7.04 C
1149 23-02-2004 13:26:01 4.3 C 43 % -7.15 C
1150 23-02-2004 13:38:01 4.6 C 42 % -7.18 C
Sensor: Nr:Datum:Temp:Feuchte:Taupunkt:
Aussen-T/F 1151 23-02-2004 13:50:00 5 C 39 % -7.78 C
1152 23-02-2004 14:02:00 3.6 C 46 % -6.92 C
1153 23-02-2004 14:14:00 1.7 C 60 % -5.21 C
1154 23-02-2004 14:26:59 2.1 C 57 % -5.51 C
1155 23-02-2004 14:38:57 3 C 52 % -5.87 C
1156 23-02-2004 14:50:01 3.3 C 53 % -5.35 C
1157 23-02-2004 15:02:01 4.2 C 50 % -5.28 C
1158 23-02-2004 15:14:01 4.9 C 47 % -5.45 C
1159 23-02-2004 15:26:01 3.6 C 47 % -6.64 C
1160 23-02-2004 15:38:01 2.9 C 51 % -6.22 C
1161 23-02-2004 15:50:01 2.7 C 49 % -6.92 C
1162 23-02-2004 16:02:59 3.1 C 45 % -7.66 C
1163 23-02-2004 16:13:59 3.6 C 42 % -8.09 C
1164 23-02-2004 16:26:58 3.2 C 38 % -9.72 C
1165 23-02-2004 16:38:57 3.5 C 37 % -9.79 C
1166 23-02-2004 16:50:01 3.8 C 35 % -10.23 C
1167 23-02-2004 17:02:01 3.8 C 35 % -10.23 C
1168 23-02-2004 17:14:01 3.7 C 35 % -10.31 C
1169 23-02-2004 17:26:01 3.2 C 37 % -10.06 C
1170 23-02-2004 17:38:01 2.6 C 40 % -9.61 C
1171 23-02-2004 17:50:01 2.4 C 42 % -9.18 C
1172 23-02-2004 18:02:01 2.3 C 45 % -8.39 C
1173 23-02-2004 18:14:01 2 C 50 % -7.31 C
1174 23-02-2004 18:26:01 1.5 C 54 % -6.78 C
1175 23-02-2004 18:38:01 1 C 56 % -6.77 C
Sensor: Nr:Datum:Temp:Feuchte:Taupunkt:
Aussen-T/F 1176 23-02-2004 18:50:00 0.6 C 59 % -6.47 C
1177 23-02-2004 19:02:00 0.2 C 60 % -6.63 C
1178 23-02-2004 19:14:00 0.2 C 59 % -6.85 C
1179 23-02-2004 19:26:59 -0.2 C 60 % -7.02 C
1180 23-02-2004 19:38:58 -0.5 C 61 % -7.08 C
1181 23-02-2004 19:50:01 -0.5 C 61 % -7.08 C
1182 23-02-2004 20:02:01 -0.8 C 62 % -7.16 C
1183 23-02-2004 20:14:01 -0.9 C 64 % -6.84 C
1184 23-02-2004 20:26:01 -1 C 65 % -6.74 C
1185 23-02-2004 20:38:01 -1.3 C 65 % -7.02 C
1186 23-02-2004 20:50:00 -1.3 C 67 % -6.63 C
1187 23-02-2004 21:02:00 -1.6 C 67 % -6.91 C
1188 23-02-2004 21:14:00 -1.8 C 67 % -7.11 C
1189 23-02-2004 21:26:59 -2 C 67 % -7.3 C
1190 23-02-2004 21:38:57 -2.1 C 68 % -7.2 C
1191 23-02-2004 21:50:01 -2.3 C 68 % -7.39 C
1192 23-02-2004 22:02:01 -2.3 C 69 % -7.2 C
1193 23-02-2004 22:14:01 -2.4 C 69 % -7.3 C
1194 23-02-2004 22:26:01 -2.4 C 69 % -7.3 C
1195 23-02-2004 22:38:01 -2.6 C 70 % -7.31 C
1196 23-02-2004 22:50:00 -2.6 C 70 % -7.31 C
1197 23-02-2004 23:02:59 -2.7 C 71 % -7.22 C
1198 23-02-2004 23:14:58 -3 C 71 % -7.51 C
1199 23-02-2004 23:26:58 -2.9 C 72 % -7.23 C
1200 23-02-2004 23:38:57 -2.9 C 72 % -7.23 C
Sensor: Nr:Datum:Temp:Feuchte:Taupunkt:
Aussen-T/F 1201 23-02-2004 23:50:01 -3 C 73 % -7.15 C
1202 24-02-2004 00:02:01 -3.2 C 73 % -7.34 C
1203 24-02-2004 00:14:01 -3.2 C 73 % -7.34 C
1204 24-02-2004 00:26:01 -3.4 C 72 % -7.71 C
1205 24-02-2004 00:38:01 -3.2 C 72 % -7.52 C
1206 24-02-2004 00:50:01 -3.4 C 73 % -7.53 C
1207 24-02-2004 01:02:01 -3.5 C 73 % -7.63 C
1208 24-02-2004 01:14:01 -3.7 C 74 % -7.65 C
1209 24-02-2004 01:26:01 -3.7 C 74 % -7.65 C
1210 24-02-2004 01:38:01 -3.8 C 74 % -7.75 C
1211 24-02-2004 01:50:00 -4 C 74 % -7.94 C
1212 24-02-2004 02:02:00 -4 C 74 % -7.94 C
1213 24-02-2004 02:14:00 -4 C 74 % -7.94 C
1214 24-02-2004 02:26:58 -4.2 C 74 % -8.13 C
1215 24-02-2004 02:38:57 -4.3 C 74 % -8.23 C
1216 24-02-2004 02:51:03 -4.5 C 74 % -8.42 C
1217 24-02-2004 03:03:03 -4.6 C 74 % -8.52 C
1218 24-02-2004 03:15:02 -4.6 C 74 % -8.52 C
1219 24-02-2004 03:27:02 -4.8 C 74 % -8.71 C
1220 24-02-2004 03:39:00 -4.8 C 74 % -8.71 C
1221 24-02-2004 03:51:00 -5.1 C 73 % -9.18 C
1222 24-02-2004 04:03:00 -4.9 C 73 % -8.98 C
1223 24-02-2004 04:15:59 -5 C 73 % -9.08 C
1224 24-02-2004 04:27:59 -5.3 C 73 % -9.37 C
1225 24-02-2004 04:39:58 -5.2 C 73 % -9.27 C
Sensor: Nr:Datum:Temp:Feuchte:Taupunkt:
Aussen-T/F 1226 24-02-2004 04:51:01 -5.3 C 73 % -9.37 C
1227 24-02-2004 05:03:01 -5.6 C 73 % -9.66 C
1228 24-02-2004 05:15:01 -5.7 C 73 % -9.75 C
1229 24-02-2004 05:27:01 -5.6 C 73 % -9.66 C
1230 24-02-2004 05:39:01 -5.6 C 73 % -9.66 C
1231 24-02-2004 05:51:00 -5.8 C 73 % -9.85 C
1232 24-02-2004 06:03:00 -5.8 C 73 % -9.85 C
1233 24-02-2004 06:15:59 -6 C 73 % -10.04 C
1234 24-02-2004 06:27:59 -6.1 C 73 % -10.14 C
1235 24-02-2004 06:39:57 -6.1 C 73 % -10.14 C
1236 24-02-2004 06:51:01 -6.1 C 73 % -10.14 C
1237 24-02-2004 07:03:01 -6.2 C 72 % -10.41 C
1238 24-02-2004 07:15:01 -6.2 C 73 % -10.24 C
1239 24-02-2004 07:27:01 -6.1 C 72 % -10.32 C
1240 24-02-2004 07:39:01 -6 C 72 % -10.22 C
1241 24-02-2004 07:51:00 -5.7 C 71 % -10.11 C
1242 24-02-2004 08:03:59 -5.5 C 70 % -10.09 C
1243 24-02-2004 08:15:58 -5.3 C 69 % -10.08 C
1244 24-02-2004 08:27:58 -4.8 C 69 % -9.6 C
1245 24-02-2004 08:39:57 -4.4 C 67 % -9.59 C
1246 24-02-2004 08:51:01 -4.4 C 67 % -9.59 C
1247 24-02-2004 09:03:01 -4.1 C 67 % -9.31 C
1248 24-02-2004 09:15:01 -3.9 C 67 % -9.11 C
1249 24-02-2004 09:27:01 -3.5 C 67 % -8.73 C
1250 24-02-2004 09:39:01 -3.1 C 66 % -8.54 C
Sensor: Nr:Datum:Temp:Feuchte:Taupunkt:
Aussen-T/F 1251 24-02-2004 09:51:01 -2.6 C 65 % -8.26 C
1252 24-02-2004 10:03:01 -2.3 C 64 % -8.17 C
1253 24-02-2004 10:15:01 -1.9 C 64 % -7.79 C
1254 24-02-2004 10:27:01 -1.4 C 62 % -7.73 C
1255 24-02-2004 10:39:01 -1.1 C 61 % -7.65 C
1256 24-02-2004 10:51:01 -0.6 C 60 % -7.39 C
1257 24-02-2004 11:03:01 -0.1 C 59 % -7.14 C
1258 24-02-2004 11:15:01 0 C 56 % -7.71 C
1259 24-02-2004 11:27:01 0.2 C 56 % -7.52 C
1260 24-02-2004 11:39:01 0.5 C 55 % -7.47 C
1261 24-02-2004 11:51:01 0.8 C 52 % -7.92 C
1262 24-02-2004 12:03:01 1.3 C 51 % -7.7 C
1263 24-02-2004 12:15:01 1.9 C 50 % -7.4 C
1264 24-02-2004 12:27:01 2.3 C 46 % -8.11 C
1265 24-02-2004 12:39:01 2.3 C 45 % -8.39 C
1266 24-02-2004 12:51:01 2.5 C 44 % -8.49 C
1267 24-02-2004 13:03:02 2.6 C 42 % -8.99 C
1268 24-02-2004 13:15:01 3.1 C 40 % -9.16 C
1269 24-02-2004 13:27:01 3.1 C 40 % -9.16 C
1270 24-02-2004 13:39:01 3.4 C 40 % -8.89 C
1271 24-02-2004 13:51:01 3.8 C 40 % -8.53 C
1272 24-02-2004 14:03:01 3.3 C 41 % -8.67 C
1273 24-02-2004 14:15:01 3.4 C 43 % -7.97 C
1274 24-02-2004 14:27:01 3.5 C 44 % -7.58 C
1275 24-02-2004 14:39:01 3.5 C 46 % -7.01 C
Sensor: Nr:Datum:Temp:Feuchte:Taupunkt:
Aussen-T/F 1276 24-02-2004 14:51:00 3.3 C 46 % -7.19 C
1277 24-02-2004 15:03:00 3.3 C 46 % -7.19 C
1278 24-02-2004 15:15:59 3.2 C 47 % -7 C
1279 24-02-2004 15:27:59 3.2 C 47 % -7 C
1280 24-02-2004 15:39:58 3.3 C 47 % -6.91 C
1281 24-02-2004 15:51:01 3.3 C 47 % -6.91 C
1282 24-02-2004 16:03:01 3.2 C 47 % -7 C
1283 24-02-2004 16:15:01 3.2 C 48 % -6.73 C
1284 24-02-2004 16:27:01 3 C 48 % -6.92 C
1285 24-02-2004 16:39:01 2.7 C 50 % -6.66 C
1286 24-02-2004 16:51:01 2.7 C 51 % -6.41 C
1287 24-02-2004 17:03:01 2.7 C 52 % -6.15 C
1288 24-02-2004 17:15:01 2.7 C 53 % -5.9 C
1289 24-02-2004 17:27:01 2.5 C 54 % -5.85 C
1290 24-02-2004 17:39:01 2.1 C 56 % -5.74 C
1291 24-02-2004 17:51:00 1.8 C 59 % -5.34 C
1292 24-02-2004 18:03:00 1.7 C 60 % -5.21 C
1293 24-02-2004 18:15:59 1.7 C 60 % -5.21 C
1294 24-02-2004 18:27:59 1.6 C 60 % -5.31 C
1295 24-02-2004 18:39:58 1.6 C 60 % -5.31 C
1296 24-02-2004 18:51:01 1.5 C 60 % -5.4 C
1297 24-02-2004 19:03:01 1.6 C 60 % -5.31 C
1298 24-02-2004 19:15:01 1.6 C 59 % -5.53 C
1299 24-02-2004 19:27:01 1.6 C 59 % -5.53 C
1300 24-02-2004 19:39:02 1.5 C 59 % -5.62 C
Sensor: Nr:Datum:Temp:Feuchte:Taupunkt:
Aussen-T/F 1301 24-02-2004 19:51:00 1.5 C 58 % -5.85 C
1302 24-02-2004 20:03:00 1.4 C 58 % -5.94 C
1303 24-02-2004 20:15:59 1.4 C 58 % -5.94 C
1304 24-02-2004 20:27:59 1.4 C 58 % -5.94 C
1305 24-02-2004 20:39:57 1.2 C 58 % -6.13 C
1306 24-02-2004 20:51:01 1.2 C 59 % -5.91 C
1307 24-02-2004 21:03:01 1.2 C 59 % -5.91 C
1308 24-02-2004 21:15:01 1.2 C 58 % -6.13 C
1309 24-02-2004 21:27:01 1.3 C 58 % -6.03 C
1310 24-02-2004 21:39:01 1.2 C 59 % -5.91 C
1311 24-02-2004 21:51:01 1.1 C 60 % -5.78 C
1312 24-02-2004 22:03:00 1.2 C 60 % -5.69 C
1313 24-02-2004 22:15:58 1.3 C 60 % -5.59 C
1314 24-02-2004 22:27:58 1.3 C 60 % -5.59 C
1315 24-02-2004 22:39:57 1.3 C 61 % -5.37 C
1316 24-02-2004 22:51:01 1.3 C 61 % -5.37 C
1317 24-02-2004 23:03:01 1.4 C 61 % -5.28 C
1318 24-02-2004 23:15:01 1.3 C 63 % -4.95 C
1319 24-02-2004 23:27:01 1.3 C 65 % -4.54 C
1320 24-02-2004 23:39:01 1.3 C 66 % -4.34 C
1321 24-02-2004 23:51:01 1.2 C 67 % -4.23 C
1322 25-02-2004 00:03:01 1.2 C 67 % -4.23 C
1323 25-02-2004 00:15:01 1.5 C 65 % -4.35 C
1324 25-02-2004 00:27:01 1.5 C 64 % -4.55 C
1325 25-02-2004 00:39:02 1.6 C 63 % -4.67 C
Sensor: Nr:Datum:Temp:Feuchte:Taupunkt:
Aussen-T/F 1326 25-02-2004 00:51:00 1.6 C 63 % -4.67 C
1327 25-02-2004 01:03:00 1.6 C 63 % -4.67 C
1328 25-02-2004 01:15:59 1.6 C 63 % -4.67 C
1329 25-02-2004 01:27:59 1.6 C 63 % -4.67 C
1330 25-02-2004 01:39:58 1.5 C 64 % -4.55 C
1331 25-02-2004 01:51:01 1.5 C 65 % -4.35 C
1332 25-02-2004 02:03:01 1.5 C 65 % -4.35 C
1333 25-02-2004 02:15:01 1.4 C 65 % -4.44 C
1334 25-02-2004 02:27:01 1.2 C 68 % -4.04 C
1335 25-02-2004 02:39:00 1.2 C 68 % -4.04 C
1336 25-02-2004 02:52:03 1.2 C 68 % -4.04 C
1337 25-02-2004 03:04:03 1.3 C 67 % -4.14 C
1338 25-02-2004 03:16:02 1.3 C 67 % -4.14 C
1339 25-02-2004 03:28:02 1.3 C 66 % -4.34 C
1340 25-02-2004 03:40:00 1.3 C 67 % -4.14 C
1341 25-02-2004 03:52:00 1.2 C 69 % -3.84 C
1342 25-02-2004 04:04:00 1 C 72 % -3.47 C
1343 25-02-2004 04:16:59 0.7 C 75 % -3.21 C
1344 25-02-2004 04:28:59 0.7 C 76 % -3.03 C
1345 25-02-2004 04:40:58 0.7 C 76 % -3.03 C
1346 25-02-2004 04:52:00 0.7 C 75 % -3.21 C
1347 25-02-2004 05:04:00 0.6 C 77 % -2.96 C
1348 25-02-2004 05:16:00 0.6 C 77 % -2.96 C
1349 25-02-2004 05:28:00 0.5 C 78 % -2.88 C
1350 25-02-2004 05:40:00 0.5 C 79 % -2.71 C
Sensor: Nr:Datum:Temp:Feuchte:Taupunkt:
Aussen-T/F 1351 25-02-2004 05:52:01 0.4 C 79 % -2.81 C
1352 25-02-2004 06:04:01 0.5 C 79 % -2.71 C
1353 25-02-2004 06:16:01 0.5 C 79 % -2.71 C
1354 25-02-2004 06:28:01 0.5 C 79 % -2.71 C
1355 25-02-2004 06:40:01 0.6 C 79 % -2.61 C
1356 25-02-2004 06:52:00 0.5 C 80 % -2.54 C
1357 25-02-2004 07:04:00 0.4 C 81 % -2.47 C
1358 25-02-2004 07:16:58 0.4 C 82 % -2.3 C
1359 25-02-2004 07:28:58 0.4 C 82 % -2.3 C
1360 25-02-2004 07:40:57 0.4 C 82 % -2.3 C
1361 25-02-2004 07:52:01 0.5 C 82 % -2.21 C
1362 25-02-2004 08:04:01 0.5 C 82 % -2.21 C
1363 25-02-2004 08:16:01 0.4 C 83 % -2.14 C
1364 25-02-2004 08:28:01 0.4 C 83 % -2.14 C
1365 25-02-2004 08:40:01 0.4 C 84 % -1.98 C
1366 25-02-2004 08:52:00 0.4 C 84 % -1.98 C
1367 25-02-2004 09:04:59 0.4 C 84 % -1.98 C
1368 25-02-2004 09:16:58 0.5 C 84 % -1.88 C
1369 25-02-2004 09:28:58 0.6 C 84 % -1.78 C
1370 25-02-2004 09:40:57 0.8 C 82 % -1.91 C
1371 25-02-2004 09:52:01 1 C 81 % -1.88 C
1372 25-02-2004 10:04:01 1.2 C 80 % -1.86 C
1373 25-02-2004 10:16:01 1.5 C 80 % -1.57 C
1374 25-02-2004 10:28:01 1.6 C 80 % -1.47 C
1375 25-02-2004 10:40:00 1.9 C 79 % -1.35 C
Sensor: Nr:Datum:Temp:Feuchte:Taupunkt:
Aussen-T/F 1376 25-02-2004 10:52:01 2.2 C 77 % -1.4 C
1377 25-02-2004 11:04:01 2.2 C 75 % -1.76 C
1378 25-02-2004 11:16:01 2.6 C 74 % -1.56 C
1379 25-02-2004 11:28:01 3 C 71 % -1.73 C
1380 25-02-2004 11:40:01 3.7 C 68 % -1.64 C
1381 25-02-2004 11:52:00 3.6 C 65 % -2.35 C
1382 25-02-2004 12:04:00 3.4 C 66 % -2.33 C
1383 25-02-2004 12:16:59 3.7 C 64 % -2.46 C
1384 25-02-2004 12:28:59 3.8 C 64 % -2.37 C
1385 25-02-2004 12:40:58 3.8 C 63 % -2.58 C
1386 25-02-2004 12:52:01 3.8 C 63 % -2.58 C
1387 25-02-2004 13:04:00 3.8 C 61 % -3.01 C
1388 25-02-2004 13:16:00 3.6 C 62 % -2.98 C
1389 25-02-2004 13:28:00 3.7 C 64 % -2.46 C
1390 25-02-2004 13:40:00 4.4 C 61 % -2.45 C
1391 25-02-2004 13:52:01 5 C 56 % -3.03 C
1392 25-02-2004 14:04:01 5 C 54 % -3.52 C
1393 25-02-2004 14:16:01 4.6 C 54 % -3.89 C
1394 25-02-2004 14:28:01 4.4 C 55 % -3.83 C
1395 25-02-2004 14:40:01 4.3 C 54 % -4.17 C
1396 25-02-2004 14:52:01 4.1 C 55 % -4.11 C
1397 25-02-2004 15:04:01 4.2 C 55 % -4.02 C
1398 25-02-2004 15:16:01 4 C 55 % -4.21 C
1399 25-02-2004 15:28:01 3.7 C 57 % -4.01 C
1400 25-02-2004 15:40:01 3.4 C 60 % -3.61 C
Sensor: Nr:Datum:Temp:Feuchte:Taupunkt:
Aussen-T/F 1401 25-02-2004 15:52:00 3.1 C 63 % -3.24 C
1402 25-02-2004 16:04:00 3.3 C 67 % -2.23 C
1403 25-02-2004 16:16:58 1.1 C 72 % -3.37 C
1404 25-02-2004 16:28:58 0.8 C 78 % -2.59 C
1405 25-02-2004 16:40:57 0.7 C 79 % -2.51 C
1406 25-02-2004 16:52:01 0.7 C 79 % -2.51 C
1407 25-02-2004 17:04:01 0.6 C 80 % -2.44 C
1408 25-02-2004 17:16:01 0.7 C 80 % -2.34 C
1409 25-02-2004 17:28:01 0.7 C 80 % -2.34 C
1410 25-02-2004 17:40:01 0.7 C 80 % -2.34 C
1411 25-02-2004 17:52:00 0.6 C 80 % -2.44 C
1412 25-02-2004 18:04:00 0.6 C 80 % -2.44 C
1413 25-02-2004 18:16:59 0.7 C 80 % -2.34 C
1414 25-02-2004 18:28:59 0.7 C 81 % -2.18 C
1415 25-02-2004 18:40:58 0.5 C 80 % -2.54 C
1416 25-02-2004 18:52:01 0.3 C 81 % -2.57 C
1417 25-02-2004 19:04:02 0.3 C 81 % -2.57 C
1418 25-02-2004 19:16:01 0.1 C 81 % -2.76 C
1419 25-02-2004 19:28:01 0.1 C 82 % -2.6 C
1420 25-02-2004 19:40:01 0.1 C 81 % -2.76 C
1421 25-02-2004 19:52:00 0.1 C 81 % -2.76 C
1422 25-02-2004 20:04:00 0.1 C 81 % -2.76 C
1423 25-02-2004 20:16:58 0 C 81 % -2.86 C
1424 25-02-2004 20:28:58 0 C 81 % -2.86 C
1425 25-02-2004 20:40:57 0 C 81 % -2.86 C
Sensor: Nr:Datum:Temp:Feuchte:Taupunkt:
Aussen-T/F 1426 25-02-2004 20:52:01 0 C 81 % -2.86 C
1427 25-02-2004 21:04:01 0.1 C 81 % -2.76 C
1428 25-02-2004 21:16:01 0 C 81 % -2.86 C
1429 25-02-2004 21:28:01 -0.1 C 81 % -2.96 C
1430 25-02-2004 21:40:01 -0.1 C 81 % -2.96 C
1431 25-02-2004 21:52:00 0 C 80 % -3.03 C
1432 25-02-2004 22:04:59 0 C 80 % -3.03 C
1433 25-02-2004 22:16:58 0 C 80 % -3.03 C
1434 25-02-2004 22:28:58 0.1 C 80 % -2.93 C
1435 25-02-2004 22:40:57 0 C 79 % -3.2 C
1436 25-02-2004 22:52:01 0.1 C 79 % -3.1 C
1437 25-02-2004 23:04:01 0 C 78 % -3.37 C
1438 25-02-2004 23:16:01 0 C 78 % -3.37 C
1439 25-02-2004 23:28:01 0 C 80 % -3.03 C
1440 25-02-2004 23:40:01 0 C 80 % -3.03 C
1441 25-02-2004 23:52:01 0 C 81 % -2.86 C
1442 26-02-2004 00:04:01 -0.1 C 79 % -3.3 C
1443 26-02-2004 00:16:01 -0.1 C 79 % -3.3 C
1444 26-02-2004 00:28:01 -0.1 C 80 % -3.13 C
1445 26-02-2004 00:40:01 -0.1 C 80 % -3.13 C
1446 26-02-2004 00:52:01 -0.1 C 80 % -3.13 C
1447 26-02-2004 01:04:00 -0.1 C 80 % -3.13 C
1448 26-02-2004 01:16:58 -0.1 C 79 % -3.3 C
1449 26-02-2004 01:28:58 -0.1 C 79 % -3.3 C
1450 26-02-2004 01:40:57 -0.2 C 79 % -3.39 C
Sensor: Nr:Datum:Temp:Feuchte:Taupunkt:
Aussen-T/F 1451 26-02-2004 01:52:01 -0.2 C 79 % -3.39 C
1452 26-02-2004 02:04:01 -0.3 C 78 % -3.66 C
1453 26-02-2004 02:16:01 -0.3 C 77 % -3.83 C
1454 26-02-2004 02:28:01 -0.4 C 77 % -3.93 C
1455 26-02-2004 02:40:01 -0.6 C 76 % -4.3 C
1456 26-02-2004 02:53:02 -0.7 C 76 % -4.4 C
1457 26-02-2004 03:05:02 -1.1 C 76 % -4.78 C
1458 26-02-2004 03:17:02 -1.3 C 76 % -4.98 C
1459 26-02-2004 03:29:02 -1.4 C 76 % -5.07 C
1460 26-02-2004 03:41:00 -1.5 C 77 % -5 C
1461 26-02-2004 03:53:00 -1.6 C 77 % -5.1 C
1462 26-02-2004 04:05:00 -1.9 C 76 % -5.56 C
1463 26-02-2004 04:17:59 -2.1 C 76 % -5.75 C
1464 26-02-2004 04:29:59 -2.1 C 77 % -5.58 C
1465 26-02-2004 04:41:57 -1.8 C 77 % -5.29 C
1466 26-02-2004 04:53:01 -1.7 C 77 % -5.19 C
1467 26-02-2004 05:05:01 -1.6 C 76 % -5.27 C
1468 26-02-2004 05:17:01 -1.6 C 76 % -5.27 C
1469 26-02-2004 05:29:01 -1.6 C 76 % -5.27 C
1470 26-02-2004 05:41:01 -1.5 C 76 % -5.17 C
1471 26-02-2004 05:53:00 -1.6 C 76 % -5.27 C
1472 26-02-2004 06:04:59 -1.6 C 76 % -5.27 C
1473 26-02-2004 06:17:58 -1.7 C 76 % -5.36 C
1474 26-02-2004 06:29:58 -1.7 C 76 % -5.36 C
1475 26-02-2004 06:41:57 -1.7 C 76 % -5.36 C
Sensor: Nr:Datum:Temp:Feuchte:Taupunkt:
Aussen-T/F 1476 26-02-2004 06:53:01 -1.9 C 75 % -5.73 C
1477 26-02-2004 07:05:01 -2.1 C 75 % -5.93 C
1478 26-02-2004 07:17:01 -2.5 C 74 % -6.49 C
1479 26-02-2004 07:29:01 -2.6 C 74 % -6.58 C
1480 26-02-2004 07:41:01 -2.6 C 75 % -6.41 C
1481 26-02-2004 07:53:01 -2.3 C 75 % -6.12 C
1482 26-02-2004 08:05:01 -2 C 74 % -6 C
1483 26-02-2004 08:17:01 -1.8 C 71 % -6.35 C
1484 26-02-2004 08:29:01 -1.9 C 70 % -6.63 C
1485 26-02-2004 08:41:01 -2.1 C 70 % -6.83 C
1486 26-02-2004 08:53:00 -2.2 C 70 % -6.92 C
1487 26-02-2004 09:05:00 -2.4 C 71 % -6.93 C
1488 26-02-2004 09:17:58 -2.2 C 69 % -7.11 C
1489 26-02-2004 09:29:58 -2 C 68 % -7.11 C
1490 26-02-2004 09:41:57 -1.9 C 68 % -7.01 C
1491 26-02-2004 09:53:01 -1.7 C 68 % -6.82 C
1492 26-02-2004 10:05:01 -1.4 C 68 % -6.53 C
1493 26-02-2004 10:17:01 -1.1 C 67 % -6.44 C
1494 26-02-2004 10:29:01 -1.1 C 66 % -6.63 C
1495 26-02-2004 10:41:01 -0.9 C 64 % -6.84 C
1496 26-02-2004 10:53:00 -0.6 C 60 % -7.39 C
1497 26-02-2004 11:05:59 -0.4 C 60 % -7.2 C
1498 26-02-2004 11:17:58 -0.3 C 60 % -7.11 C
1499 26-02-2004 11:29:58 -0.1 C 57 % -7.58 C
1500 26-02-2004 11:41:57 0.1 C 56 % -7.61 C
Sensor: Nr:Datum:Temp:Feuchte:Taupunkt:
Aussen-T/F 1501 26-02-2004 11:53:01 0.1 C 53 % -8.32 C
1502 26-02-2004 12:05:01 0.4 C 52 % -8.29 C
1503 26-02-2004 12:17:01 0.4 C 52 % -8.29 C
1504 26-02-2004 12:29:01 0.5 C 51 % -8.44 C
1505 26-02-2004 12:41:00 1.1 C 50 % -8.14 C
1506 26-02-2004 12:53:01 1.5 C 47 % -8.56 C
1507 26-02-2004 13:05:01 1.7 C 45 % -8.93 C
1508 26-02-2004 13:17:01 2 C 45 % -8.66 C
1509 26-02-2004 13:29:01 2.2 C 45 % -8.48 C
1510 26-02-2004 13:41:01 2.6 C 42 % -8.99 C
1511 26-02-2004 13:53:00 2.7 C 44 % -8.31 C
1512 26-02-2004 14:05:00 3.2 C 41 % -8.76 C
1513 26-02-2004 14:17:58 3.3 C 42 % -8.36 C
1514 26-02-2004 14:29:58 3.1 C 41 % -8.85 C
1515 26-02-2004 14:41:57 3.3 C 41 % -8.67 C
1516 26-02-2004 14:53:01 3.4 C 41 % -8.58 C
1517 26-02-2004 15:05:01 3.4 C 40 % -8.89 C
1518 26-02-2004 15:17:01 2.6 C 41 % -9.3 C
1519 26-02-2004 15:29:01 2.4 C 43 % -8.88 C
1520 26-02-2004 15:41:01 2.6 C 44 % -8.4 C
1521 26-02-2004 15:53:01 2.6 C 45 % -8.11 C
1522 26-02-2004 16:05:01 2.7 C 45 % -8.02 C
1523 26-02-2004 16:17:01 2.1 C 46 % -8.29 C
1524 26-02-2004 16:29:01 1.7 C 51 % -7.33 C
1525 26-02-2004 16:41:01 1.5 C 52 % -7.27 C
Sensor: Nr:Datum:Temp:Feuchte:Taupunkt:
Aussen-T/F 1526 26-02-2004 16:53:00 1.3 C 54 % -6.96 C
1527 26-02-2004 17:05:00 1.1 C 60 % -5.78 C
1528 26-02-2004 17:17:59 1.2 C 60 % -5.69 C
1529 26-02-2004 17:29:59 1.2 C 61 % -5.47 C
1530 26-02-2004 17:41:57 1.1 C 62 % -5.35 C
1531 26-02-2004 17:53:01 1.1 C 63 % -5.14 C
1532 26-02-2004 18:05:01 1.2 C 62 % -5.26 C
1533 26-02-2004 18:17:01 0.7 C 67 % -4.71 C
1534 26-02-2004 18:29:01 0.5 C 70 % -4.32 C
1535 26-02-2004 18:41:01 0.5 C 68 % -4.71 C
1536 26-02-2004 18:53:00 0.5 C 66 % -5.1 C
1537 26-02-2004 19:04:59 0.6 C 63 % -5.61 C
1538 26-02-2004 19:17:58 0.6 C 61 % -6.04 C
1539 26-02-2004 19:29:58 0.7 C 60 % -6.16 C
1540 26-02-2004 19:41:57 0.8 C 59 % -6.28 C
1541 26-02-2004 19:53:01 0.8 C 58 % -6.5 C
1542 26-02-2004 20:05:01 0.6 C 59 % -6.47 C
1543 26-02-2004 20:17:01 0.5 C 60 % -6.35 C
1544 26-02-2004 20:29:01 0.4 C 60 % -6.44 C
1545 26-02-2004 20:41:01 0.2 C 61 % -6.41 C
1546 26-02-2004 20:53:01 0 C 61 % -6.6 C
1547 26-02-2004 21:05:01 -0.2 C 61 % -6.8 C
1548 26-02-2004 21:17:01 -0.3 C 62 % -6.68 C
1549 26-02-2004 21:29:01 -0.4 C 63 % -6.57 C
1550 26-02-2004 21:41:01 -0.7 C 64 % -6.65 C
Sensor: Nr:Datum:Temp:Feuchte:Taupunkt:
Aussen-T/F 1551 26-02-2004 21:53:00 -1 C 66 % -6.54 C
1552 26-02-2004 22:05:00 -1.1 C 67 % -6.44 C
1553 26-02-2004 22:17:58 -1.2 C 66 % -6.73 C
1554 26-02-2004 22:29:58 -1.4 C 66 % -6.92 C
1555 26-02-2004 22:41:57 -1.7 C 66 % -7.2 C
1556 26-02-2004 22:53:01 -1.7 C 67 % -7.01 C
1557 26-02-2004 23:05:01 -1.9 C 68 % -7.01 C
1558 26-02-2004 23:17:01 -1.9 C 68 % -7.01 C
1559 26-02-2004 23:29:01 -2 C 68 % -7.11 C
1560 26-02-2004 23:41:01 -2.1 C 67 % -7.39 C
1561 26-02-2004 23:53:00 -2.2 C 68 % -7.3 C
1562 27-02-2004 00:05:59 -2.1 C 67 % -7.39 C
1563 27-02-2004 00:17:58 -2.2 C 66 % -7.68 C
1564 27-02-2004 00:29:58 -2.3 C 66 % -7.78 C
1565 27-02-2004 00:41:57 -2.2 C 65 % -7.88 C
1566 27-02-2004 00:53:01 -2.3 C 65 % -7.97 C
1567 27-02-2004 01:05:01 -2.3 C 66 % -7.78 C
1568 27-02-2004 01:17:01 -2.6 C 66 % -8.06 C
1569 27-02-2004 01:29:01 -2.7 C 66 % -8.16 C
1570 27-02-2004 01:41:00 -2.6 C 65 % -8.26 C
1571 27-02-2004 01:53:01 -2.8 C 65 % -8.45 C
1572 27-02-2004 02:05:01 -3.1 C 66 % -8.54 C
1573 27-02-2004 02:17:01 -3.4 C 67 % -8.64 C
1574 27-02-2004 02:29:01 -3.5 C 68 % -8.54 C
1575 27-02-2004 02:41:01 -3.7 C 69 % -8.55 C
Sensor: Nr:Datum:Temp:Feuchte:Taupunkt:
Aussen-T/F 1576 27-02-2004 02:54:01 -3.9 C 69 % -8.74 C
1577 27-02-2004 03:06:01 -3.7 C 70 % -8.36 C
1578 27-02-2004 03:18:00 -3.5 C 70 % -8.17 C
1579 27-02-2004 03:30:00 -3.8 C 69 % -8.64 C
1580 27-02-2004 03:42:01 -3.9 C 69 % -8.74 C
1581 27-02-2004 03:54:01 -4.1 C 70 % -8.75 C
1582 27-02-2004 04:06:00 -4 C 68 % -9.02 C
1583 27-02-2004 04:18:00 -4.1 C 68 % -9.12 C
1584 27-02-2004 04:30:00 -4.1 C 69 % -8.93 C
1585 27-02-2004 04:42:00 -4.3 C 69 % -9.12 C
1586 27-02-2004 04:54:01 -4.5 C 69 % -9.31 C
1587 27-02-2004 05:06:01 -4.8 C 70 % -9.42 C
1588 27-02-2004 05:18:01 -5 C 70 % -9.61 C
1589 27-02-2004 05:30:01 -5.1 C 71 % -9.53 C
1590 27-02-2004 05:42:01 -5.2 C 72 % -9.45 C
1591 27-02-2004 05:54:01 -5.3 C 72 % -9.54 C
1592 27-02-2004 06:06:01 -5.6 C 72 % -9.83 C
1593 27-02-2004 06:18:01 -5.7 C 72 % -9.93 C
1594 27-02-2004 06:30:01 -5.5 C 72 % -9.74 C
1595 27-02-2004 06:42:01 -5.3 C 72 % -9.54 C
1596 27-02-2004 06:54:00 -5.5 C 71 % -9.91 C
1597 27-02-2004 07:06:00 -5.8 C 71 % -10.2 C
1598 27-02-2004 07:18:59 -5.8 C 71 % -10.2 C
1599 27-02-2004 07:30:57 -5.8 C 71 % -10.2 C
1600 27-02-2004 07:42:57 -5.8 C 72 % -10.03 C
Sensor: Nr:Datum:Temp:Feuchte:Taupunkt:
Aussen-T/F 1601 27-02-2004 07:54:01 -5.8 C 72 % -10.03 C
1602 27-02-2004 08:06:01 -5.8 C 72 % -10.03 C
1603 27-02-2004 08:18:01 -5.7 C 73 % -9.75 C
1604 27-02-2004 08:30:01 -5.5 C 73 % -9.56 C
1605 27-02-2004 08:42:01 -5.3 C 72 % -9.54 C
1606 27-02-2004 08:54:00 -5.1 C 71 % -9.53 C
1607 27-02-2004 09:06:59 -5 C 70 % -9.61 C
1608 27-02-2004 09:18:58 -4.5 C 68 % -9.5 C
1609 27-02-2004 09:30:57 -4 C 67 % -9.21 C
1610 27-02-2004 09:42:57 -3.7 C 66 % -9.11 C
1611 27-02-2004 09:54:01 -3.4 C 65 % -9.02 C
1612 27-02-2004 10:06:01 -3 C 64 % -8.84 C
1613 27-02-2004 10:18:01 -2.5 C 64 % -8.36 C
1614 27-02-2004 10:30:01 -2.1 C 63 % -8.19 C
1615 27-02-2004 10:42:00 -1.6 C 61 % -8.13 C
1616 27-02-2004 10:54:01 -1.2 C 59 % -8.18 C
1617 27-02-2004 11:06:01 -0.8 C 57 % -8.24 C
1618 27-02-2004 11:18:01 -0.6 C 56 % -8.28 C
1619 27-02-2004 11:30:01 -0.4 C 56 % -8.09 C
1620 27-02-2004 11:42:01 0 C 57 % -7.48 C
1621 27-02-2004 11:54:00 0.1 C 55 % -7.85 C
1622 27-02-2004 12:06:00 0.4 C 50 % -8.79 C
1623 27-02-2004 12:18:58 0.5 C 48 % -9.21 C
1624 27-02-2004 12:30:57 0.4 C 47 % -9.57 C
1625 27-02-2004 12:42:57 1.2 C 45 % -9.39 C
Sensor: Nr:Datum:Temp:Feuchte:Taupunkt:
Aussen-T/F 1626 27-02-2004 12:54:01 1.8 C 43 % -9.42 C
1627 27-02-2004 13:06:01 2.2 C 39 % -10.29 C
1628 27-02-2004 13:18:01 2.3 C 41 % -9.57 C
1629 27-02-2004 13:30:01 2.1 C 41 % -9.75 C
1630 27-02-2004 13:42:01 2.7 C 42 % -8.9 C
1631 27-02-2004 13:54:01 3 C 37 % -10.24 C
1632 27-02-2004 14:06:01 3.1 C 37 % -10.15 C
1633 27-02-2004 14:18:01 2.6 C 40 % -9.61 C
1634 27-02-2004 14:30:01 2.5 C 39 % -10.02 C
1635 27-02-2004 14:42:01 2.4 C 39 % -10.11 C
1636 27-02-2004 14:54:00 2.6 C 40 % -9.61 C
1637 27-02-2004 15:06:00 3.1 C 38 % -9.81 C
1638 27-02-2004 15:18:59 2.7 C 38 % -10.17 C
1639 27-02-2004 15:30:57 2.3 C 39 % -10.2 C
1640 27-02-2004 15:42:57 2 C 41 % -9.84 C
1641 27-02-2004 15:54:01 1.6 C 46 % -8.75 C
1642 27-02-2004 16:06:01 1.4 C 50 % -7.86 C
1643 27-02-2004 16:18:01 1 C 56 % -6.77 C
1644 27-02-2004 16:30:01 1.1 C 56 % -6.68 C
1645 27-02-2004 16:42:01 1 C 58 % -6.32 C
1646 27-02-2004 16:54:00 0.5 C 59 % -6.56 C
1647 27-02-2004 17:06:00 0.6 C 60 % -6.25 C
1648 27-02-2004 17:18:59 0.7 C 60 % -6.16 C
1649 27-02-2004 17:30:58 0.7 C 58 % -6.6 C
1650 27-02-2004 17:42:58 0.8 C 58 % -6.5 C
Sensor: Nr:Datum:Temp:Feuchte:Taupunkt:
Aussen-T/F 1651 27-02-2004 17:54:01 0.9 C 58 % -6.41 C
1652 27-02-2004 18:06:01 0.7 C 57 % -6.82 C
1653 27-02-2004 18:18:01 0.6 C 57 % -6.92 C
1654 27-02-2004 18:30:01 0.5 C 57 % -7.01 C
1655 27-02-2004 18:42:01 0.4 C 59 % -6.66 C
1656 27-02-2004 18:54:00 0.1 C 60 % -6.72 C
1657 27-02-2004 19:06:00 -0.3 C 60 % -7.11 C
1658 27-02-2004 19:18:59 -0.6 C 62 % -6.97 C
1659 27-02-2004 19:30:57 -0.9 C 63 % -7.05 C
1660 27-02-2004 19:42:57 -0.9 C 62 % -7.25 C
1661 27-02-2004 19:54:01 -1.1 C 61 % -7.65 C
1662 27-02-2004 20:06:01 -1.1 C 61 % -7.65 C
1663 27-02-2004 20:18:01 -1.1 C 60 % -7.87 C
1664 27-02-2004 20:30:01 -1.1 C 58 % -8.3 C
1665 27-02-2004 20:42:01 -0.8 C 55 % -8.7 C
1666 27-02-2004 20:54:00 -0.5 C 52 % -9.14 C
1667 27-02-2004 21:06:00 -0.7 C 51 % -9.57 C
1668 27-02-2004 21:18:59 -0.8 C 51 % -9.66 C
1669 27-02-2004 21:30:58 -0.9 C 51 % -9.75 C
1670 27-02-2004 21:42:58 -1.2 C 52 % -9.79 C
1671 27-02-2004 21:54:01 -1.6 C 55 % -9.45 C
1672 27-02-2004 22:06:00 -1.7 C 56 % -9.31 C
1673 27-02-2004 22:18:00 -1.9 C 57 % -9.28 C
1674 27-02-2004 22:30:00 -1.8 C 59 % -8.74 C
1675 27-02-2004 22:42:00 -1.5 C 58 % -8.68 C
Sensor: Nr:Datum:Temp:Feuchte:Taupunkt:
Aussen-T/F 1676 27-02-2004 22:54:01 -1.4 C 58 % -8.58 C
1677 27-02-2004 23:06:01 -1.1 C 58 % -8.3 C
1678 27-02-2004 23:18:01 -1.1 C 60 % -7.87 C
1679 27-02-2004 23:30:01 -1 C 59 % -7.99 C
1680 27-02-2004 23:42:00 -1.1 C 60 % -7.87 C
1681 27-02-2004 23:54:01 -1.4 C 60 % -8.15 C
1682 28-02-2004 00:06:01 -1.5 C 61 % -8.03 C
1683 28-02-2004 00:18:01 -1.4 C 60 % -8.15 C
1684 28-02-2004 00:30:01 -1.4 C 60 % -8.15 C
1685 28-02-2004 00:42:01 -1.4 C 60 % -8.15 C
1686 28-02-2004 00:54:00 -1.4 C 60 % -8.15 C
1687 28-02-2004 01:06:00 -1.3 C 59 % -8.27 C
1688 28-02-2004 01:18:58 -1.2 C 56 % -8.84 C
1689 28-02-2004 01:30:57 -1.4 C 57 % -8.81 C
1690 28-02-2004 01:42:57 -1.6 C 57 % -8.99 C
1691 28-02-2004 01:54:01 -1.7 C 56 % -9.31 C
1692 28-02-2004 02:06:01 -2 C 57 % -9.37 C
1693 28-02-2004 02:18:01 -2.4 C 59 % -9.31 C
1694 28-02-2004 02:30:01 -2.5 C 58 % -9.62 C
1695 28-02-2004 02:42:01 -2.7 C 58 % -9.81 C
1696 28-02-2004 02:55:03 -2.9 C 60 % -9.57 C
1697 28-02-2004 03:07:03 -2.8 C 59 % -9.68 C
1698 28-02-2004 03:19:03 -2.6 C 60 % -9.28 C
1699 28-02-2004 03:31:00 -2.6 C 60 % -9.28 C
1700 28-02-2004 03:43:00 -2.7 C 61 % -9.17 C
Sensor: Nr:Datum:Temp:Feuchte:Taupunkt:
Aussen-T/F 1701 28-02-2004 03:55:00 -2.7 C 62 % -8.96 C
1702 28-02-2004 04:07:00 -2.7 C 62 % -8.96 C
1703 28-02-2004 04:19:59 -2.7 C 61 % -9.17 C
1704 28-02-2004 04:31:58 -2.8 C 62 % -9.05 C
1705 28-02-2004 04:43:58 -2.8 C 61 % -9.26 C
1706 28-02-2004 04:55:01 -2.7 C 59 % -9.59 C
1707 28-02-2004 05:07:01 -2.7 C 59 % -9.59 C
1708 28-02-2004 05:19:00 -2.8 C 60 % -9.47 C
1709 28-02-2004 05:31:00 -2.5 C 59 % -9.4 C
1710 28-02-2004 05:43:00 -2.5 C 59 % -9.4 C
1711 28-02-2004 05:55:01 -2.6 C 60 % -9.28 C
1712 28-02-2004 06:07:01 -2.1 C 59 % -9.02 C
1713 28-02-2004 06:19:01 -2.1 C 59 % -9.02 C
1714 28-02-2004 06:31:01 -2.2 C 59 % -9.12 C
1715 28-02-2004 06:43:01 -2.1 C 60 % -8.81 C
1716 28-02-2004 06:55:00 -2.1 C 60 % -8.81 C
1717 28-02-2004 07:07:59 -2 C 61 % -8.5 C
1718 28-02-2004 07:19:58 -1.9 C 61 % -8.41 C
1719 28-02-2004 07:31:57 -1.8 C 62 % -8.11 C
1720 28-02-2004 07:43:57 -1.8 C 62 % -8.11 C
1721 28-02-2004 07:55:01 -1.8 C 63 % -7.9 C
1722 28-02-2004 08:07:01 -1.9 C 64 % -7.79 C
1723 28-02-2004 08:19:01 -1.9 C 66 % -7.4 C
1724 28-02-2004 08:31:01 -1.8 C 67 % -7.11 C
1725 28-02-2004 08:43:01 -1.8 C 67 % -7.11 C
Sensor: Nr:Datum:Temp:Feuchte:Taupunkt:
Aussen-T/F 1726 28-02-2004 08:55:03 -1.7 C 66 % -7.2 C
1727 28-02-2004 09:07:01 -1.6 C 66 % -7.11 C
1728 28-02-2004 09:19:01 -1.2 C 66 % -6.73 C
1729 28-02-2004 09:31:01 -1 C 65 % -6.74 C
1730 28-02-2004 09:43:01 -0.9 C 65 % -6.64 C
1731 28-02-2004 09:55:00 -0.4 C 64 % -6.37 C
1732 28-02-2004 10:07:00 0 C 62 % -6.39 C
1733 28-02-2004 10:19:59 0.1 C 61 % -6.51 C
1734 28-02-2004 10:31:58 0.2 C 60 % -6.63 C
1735 28-02-2004 10:43:58 0.7 C 58 % -6.6 C
1736 28-02-2004 10:55:01 1 C 55 % -7.01 C
1737 28-02-2004 11:07:01 0.8 C 59 % -6.28 C
1738 28-02-2004 11:19:01 1.2 C 59 % -5.91 C
1739 28-02-2004 11:31:01 0.7 C 60 % -6.16 C
1740 28-02-2004 11:43:01 0.7 C 60 % -6.16 C
1741 28-02-2004 11:55:00 1.3 C 58 % -6.03 C
1742 28-02-2004 12:07:00 2.1 C 56 % -5.74 C
1743 28-02-2004 12:19:58 2.3 C 53 % -6.28 C
1744 28-02-2004 12:31:57 2.9 C 51 % -6.22 C
1745 28-02-2004 12:43:57 2.6 C 50 % -6.75 C
1746 28-02-2004 12:55:01 2.9 C 50 % -6.48 C
1747 28-02-2004 13:07:01 3.6 C 48 % -6.36 C
1748 28-02-2004 13:19:01 4.7 C 44 % -6.49 C
1749 28-02-2004 13:31:01 3.8 C 43 % -7.61 C
1750 28-02-2004 13:43:01 3.5 C 45 % -7.29 C
Sensor: Nr:Datum:Temp:Feuchte:Taupunkt:
Aussen-T/F 1751 28-02-2004 13:55:00 5.1 C 41 % -7.04 C
1752 28-02-2004 14:07:00 5.4 C 37 % -8.1 C
1753 28-02-2004 14:19:58 4.3 C 40 % -8.08 C
1754 28-02-2004 14:31:57 5 C 39 % -7.78 C
1755 28-02-2004 14:43:57 6 C 35 % -8.27 C
1756 28-02-2004 14:55:02 6.8 C 33 % -8.32 C
1757 28-02-2004 15:07:01 7.3 C 31 % -8.68 C
1758 28-02-2004 15:19:02 6.9 C 31 % -9.03 C
1759 28-02-2004 15:31:03 4.9 C 32 % -10.38 C
1760 28-02-2004 15:43:03 5 C 33 % -9.91 C
1761 28-02-2004 15:55:00 6.1 C 33 % -8.94 C
1762 28-02-2004 16:07:00 6.9 C 31 % -9.03 C
1763 28-02-2004 16:19:59 6.7 C 29 % -10.05 C
1764 28-02-2004 16:31:58 6.8 C 31 % -9.12 C
1765 28-02-2004 16:43:58 6.2 C 31 % -9.64 C
1766 28-02-2004 16:55:02 6.2 C 31 % -9.64 C
1767 28-02-2004 17:07:01 5.9 C 31 % -9.91 C
1768 28-02-2004 17:19:01 5.3 C 30 % -10.84 C
1769 28-02-2004 17:31:01 4.6 C 32 % -10.64 C
1770 28-02-2004 17:43:01 3.6 C 36 % -10.05 C
1771 28-02-2004 17:55:00 2.6 C 40 % -9.61 C
1772 28-02-2004 18:07:00 2.1 C 45 % -8.57 C
1773 28-02-2004 18:19:59 1.5 C 48 % -8.29 C
1774 28-02-2004 18:31:58 1 C 48 % -8.75 C
1775 28-02-2004 18:43:58 0.7 C 50 % -8.51 C
Sensor: Nr:Datum:Temp:Feuchte:Taupunkt:
Aussen-T/F 1776 28-02-2004 18:55:01 0.4 C 51 % -8.53 C
1777 28-02-2004 19:07:01 0.2 C 53 % -8.23 C
1778 28-02-2004 19:19:01 0 C 54 % -8.18 C
1779 28-02-2004 19:36:01 -0.3 C 55 % -8.23 C
1780 28-02-2004 19:48:01 -0.4 C 56 % -8.09 C
1781 28-02-2004 20:00:01 -0.6 C 56 % -8.28 C
1782 28-02-2004 20:12:00 -0.7 C 57 % -8.15 C
1783 28-02-2004 20:24:59 -1 C 56 % -8.66 C
1784 28-02-2004 20:36:58 -1.1 C 57 % -8.52 C
1785 28-02-2004 20:48:01 -1.3 C 57 % -8.71 C
1786 28-02-2004 21:00:01 -1.4 C 57 % -8.81 C
1787 28-02-2004 21:12:01 -1.6 C 58 % -8.77 C
1788 28-02-2004 21:24:01 -1.8 C 58 % -8.96 C
1789 28-02-2004 21:36:01 -2 C 59 % -8.93 C
1790 28-02-2004 21:48:00 -2.1 C 61 % -8.6 C
1791 28-02-2004 22:00:00 -2.2 C 60 % -8.9 C
1792 28-02-2004 22:12:00 -2.3 C 59 % -9.21 C
1793 28-02-2004 22:24:58 -2.5 C 59 % -9.4 C
1794 28-02-2004 22:36:57 -2.6 C 59 % -9.5 C
1795 28-02-2004 22:48:01 -2.8 C 60 % -9.47 C
1796 28-02-2004 23:00:01 -2.9 C 61 % -9.36 C
1797 28-02-2004 23:12:01 -3 C 61 % -9.45 C
1798 28-02-2004 23:24:01 -3.2 C 63 % -9.23 C
1799 28-02-2004 23:36:01 -3.4 C 62 % -9.62 C
1800 29-02-2004 00:00:00 -3.4 C 64 % -9.22 C
Sensor: Nr:Datum:Temp:Feuchte:Taupunkt:
Aussen-T/F 1801 29-02-2004 00:11:59 -3.7 C 63 % -9.71 C
1802 29-02-2004 00:24:58 -3.9 C 63 % -9.9 C
1803 29-02-2004 00:36:57 -3.9 C 64 % -9.7 C
1804 29-02-2004 00:48:36 -3.9 C 64 % -9.7 C
1805 29-02-2004 01:00:39 -4 C 64 % -9.79 C
1806 29-02-2004 01:12:39 -4.1 C 64 % -9.89 C
1807 29-02-2004 01:24:34 -4.1 C 65 % -9.69 C
1808 29-02-2004 01:36:37 -3.9 C 65 % -9.5 C
1809 29-02-2004 01:48:30 -4.2 C 65 % -9.79 C
1810 29-02-2004 02:00:33 -4.2 C 65 % -9.79 C
1811 29-02-2004 02:12:28 -4.3 C 65 % -9.88 C
1812 29-02-2004 02:24:31 -4.6 C 65 % -10.17 C
1813 29-02-2004 02:36:31 -4.8 C 66 % -10.16 C
1814 29-02-2004 02:58:04 -4.8 C 68 % -9.79 C
1815 29-02-2004 03:11:05 -4.9 C 68 % -9.88 C
1816 29-02-2004 03:23:05 -4.9 C 68 % -9.88 C
1817 29-02-2004 03:37:04 -5 C 68 % -9.98 C
1818 29-02-2004 03:49:04 -5 C 69 % -9.79 C
1819 29-02-2004 04:02:04 -5.1 C 69 % -9.89 C
1820 29-02-2004 04:14:04 -5.4 C 69 % -10.18 C
1821 29-02-2004 04:27:04 -5.6 C 69 % -10.37 C
1822 29-02-2004 04:40:04 -5.5 C 70 % -10.09 C
1823 29-02-2004 04:53:04 -5.6 C 70 % -10.19 C
1824 29-02-2004 05:01:15 -5.7 C 71 % -10.11 C
1825 29-02-2004 05:06:05 -5.7 C 70 % -10.29 C
Sensor: Nr:Datum:Temp:Feuchte:Taupunkt:
Aussen-T/F 1826 29-02-2004 05:13:18 -5.3 C 72 % -9.54 C
1827 29-02-2004 05:25:12 -4.8 C 71 % -9.24 C
1828 29-02-2004 05:37:12 -4.6 C 69 % -9.41 C
1829 29-02-2004 05:49:15 -4.7 C 68 % -9.69 C
1830 29-02-2004 06:01:09 -4.6 C 68 % -9.6 C
1831 29-02-2004 06:13:12 -4.4 C 68 % -9.4 C
1832 29-02-2004 06:25:53 -4.1 C 68 % -9.12 C
1833 29-02-2004 06:37:07 -3.9 C 67 % -9.11 C
1834 29-02-2004 06:49:07 -4 C 67 % -9.21 C
1835 29-02-2004 07:01:32 -3.9 C 67 % -9.11 C
1836 29-02-2004 07:13:46 -4.1 C 67 % -9.31 C
1837 29-02-2004 07:25:11 -4 C 68 % -9.02 C
1838 29-02-2004 07:37:11 -4.3 C 68 % -9.31 C
1839 29-02-2004 07:49:25 -4.6 C 69 % -9.41 C
1840 29-02-2004 08:01:49 -4.7 C 69 % -9.51 C
1841 29-02-2004 08:13:49 -4.8 C 70 % -9.42 C
1842 29-02-2004 08:25:03 -4.8 C 70 % -9.42 C
1843 29-02-2004 08:37:28 -4.7 C 70 % -9.32 C
1844 29-02-2004 08:49:42 -4.6 C 71 % -9.05 C
1845 29-02-2004 09:01:42 -4.4 C 71 % -8.85 C
1846 29-02-2004 09:13:06 -3.8 C 70 % -8.46 C
1847 29-02-2004 09:25:21 -3.4 C 69 % -8.26 C
1848 29-02-2004 09:37:45 -3.3 C 68 % -8.35 C
1849 29-02-2004 09:49:45 -3 C 69 % -7.88 C
1850 29-02-2004 10:01:59 -2.5 C 68 % -7.58 C
Sensor: Nr:Datum:Temp:Feuchte:Taupunkt:
Aussen-T/F 1851 29-02-2004 10:13:23 -2.2 C 63 % -8.28 C
1852 29-02-2004 10:25:37 -2 C 65 % -7.69 C
1853 29-02-2004 10:37:37 -1.6 C 64 % -7.51 C
1854 29-02-2004 10:49:02 -1.1 C 64 % -7.03 C
1855 29-02-2004 11:01:16 -0.6 C 62 % -6.97 C
1856 29-02-2004 11:13:41 0.2 C 58 % -7.07 C
1857 29-02-2004 11:25:41 0.8 C 56 % -6.96 C
1858 29-02-2004 11:37:00 1.3 C 54 % -6.96 C
1859 29-02-2004 11:49:02 0.9 C 53 % -7.58 C
1860 29-02-2004 12:01:01 0.9 C 53 % -7.58 C
1861 29-02-2004 12:13:01 0.6 C 53 % -7.86 C
1862 29-02-2004 12:25:01 0.6 C 53 % -7.86 C
1863 29-02-2004 12:37:02 0.8 C 52 % -7.92 C
1864 29-02-2004 12:49:00 1.4 C 51 % -7.61 C
1865 29-02-2004 13:01:00 1.9 C 50 % -7.4 C
1866 29-02-2004 13:13:00 2.2 C 48 % -7.65 C
1867 29-02-2004 13:25:59 3.2 C 46 % -7.28 C
1868 29-02-2004 13:37:58 3.8 C 42 % -7.91 C
1869 29-02-2004 13:49:01 3.8 C 42 % -7.91 C
1870 29-02-2004 14:01:01 4.2 C 38 % -8.83 C
1871 29-02-2004 14:13:01 3.5 C 39 % -9.12 C
1872 29-02-2004 14:25:01 3.3 C 41 % -8.67 C
1873 29-02-2004 14:37:01 3.2 C 43 % -8.15 C
1874 29-02-2004 14:49:00 3.9 C 39 % -8.77 C
1875 29-02-2004 15:01:00 4.6 C 36 % -9.16 C
Sensor: Nr:Datum:Temp:Feuchte:Taupunkt:
Aussen-T/F 1876 29-02-2004 15:13:00 5.2 C 35 % -8.98 C
1877 29-02-2004 15:25:58 4.7 C 35 % -9.43 C
1878 29-02-2004 15:37:57 5.5 C 34 % -9.09 C
1879 29-02-2004 15:49:01 4.6 C 35 % -9.52 C
1880 29-02-2004 16:01:01 5.2 C 34 % -9.35 C
1881 29-02-2004 16:13:01 4.5 C 35 % -9.6 C
1882 29-02-2004 16:25:01 4.7 C 35 % -9.43 C
1883 29-02-2004 16:37:01 5.2 C 35 % -8.98 C
1884 29-02-2004 16:49:00 5.2 C 32 % -10.12 C
1885 29-02-2004 17:01:00 5.2 C 32 % -10.12 C
1886 29-02-2004 17:13:00 5.5 C 34 % -9.09 C
1887 29-02-2004 17:25:58 4.7 C 41 % -7.4 C
1888 29-02-2004 17:37:57 3.4 C 48 % -6.55 C
1889 29-02-2004 17:49:03 3.2 C 50 % -6.2 C
1890 29-02-2004 18:01:01 2.5 C 50 % -6.85 C
1891 29-02-2004 18:13:01 2.2 C 48 % -7.65 C
1892 29-02-2004 18:25:01 1.8 C 50 % -7.49 C
1893 29-02-2004 18:37:01 1.5 C 52 % -7.27 C
1894 29-02-2004 18:49:00 1.1 C 54 % -7.15 C
1895 29-02-2004 19:01:59 0.8 C 56 % -6.96 C
1896 29-02-2004 19:13:59 0.6 C 56 % -7.15 C
1897 29-02-2004 19:25:58 0.3 C 59 % -6.75 C
1898 29-02-2004 19:37:57 0.1 C 60 % -6.72 C
1899 29-02-2004 19:49:01 0.3 C 60 % -6.53 C
1900 29-02-2004 20:01:01 0.2 C 60 % -6.63 C
Sensor: Nr:Datum:Temp:Feuchte:Taupunkt:
Aussen-T/F 1901 29-02-2004 20:13:01 0.1 C 61 % -6.51 C
1902 29-02-2004 20:25:01 -0.1 C 61 % -6.71 C
1903 29-02-2004 20:37:00 -0.3 C 62 % -6.68 C
1904 29-02-2004 20:49:01 -0.4 C 63 % -6.57 C
1905 29-02-2004 21:01:01 -0.6 C 65 % -6.35 C
1906 29-02-2004 21:13:01 -0.8 C 66 % -6.35 C
1907 29-02-2004 21:25:01 -0.9 C 66 % -6.44 C
1908 29-02-2004 21:37:01 -1 C 66 % -6.54 C
1909 29-02-2004 21:49:01 -1.1 C 66 % -6.63 C
1910 29-02-2004 22:01:00 -1.2 C 66 % -6.73 C
1911 29-02-2004 22:13:00 -1.2 C 66 % -6.73 C
1912 29-02-2004 22:25:58 -1.4 C 66 % -6.92 C
1913 29-02-2004 22:37:57 -1.5 C 66 % -7.01 C
1914 29-02-2004 22:49:01 -1.6 C 66 % -7.11 C
1915 29-02-2004 23:01:01 -1.6 C 65 % -7.31 C
1916 29-02-2004 23:13:01 -1.7 C 65 % -7.4 C
1917 29-02-2004 23:25:01 -1.7 C 65 % -7.4 C
1918 29-02-2004 23:37:01 -1.7 C 65 % -7.4 C
1919 29-02-2004 23:49:01 -1.8 C 65 % -7.5 C
1920 01-03-2004 00:01:00 -1.8 C 65 % -7.5 C
1921 01-03-2004 00:13:01 -1.8 C 64 % -7.7 C
1922 01-03-2004 00:25:00 -1.7 C 63 % -7.81 C
1923 01-03-2004 00:37:00 -1.8 C 64 % -7.7 C
1924 01-03-2004 00:49:00 -1.9 C 64 % -7.79 C
1925 01-03-2004 01:01:00 -2 C 64 % -7.89 C
Sensor: Nr:Datum:Temp:Feuchte:Taupunkt:
Aussen-T/F 1926 01-03-2004 01:13:00 -2 C 64 % -7.89 C
1927 01-03-2004 01:25:01 -2.2 C 63 % -8.28 C
1928 01-03-2004 01:37:01 -2.3 C 62 % -8.58 C
1929 01-03-2004 01:49:00 -2.3 C 61 % -8.79 C
1930 01-03-2004 02:01:00 -2.3 C 61 % -8.79 C
1931 01-03-2004 02:13:00 -2.6 C 62 % -8.86 C
1932 01-03-2004 02:25:00 -2.6 C 63 % -8.66 C
1933 01-03-2004 02:37:00 -2.8 C 63 % -8.85 C
1934 01-03-2004 02:50:03 -2.8 C 63 % -8.85 C
1935 01-03-2004 03:02:03 -3 C 64 % -8.84 C
1936 01-03-2004 03:14:03 -3.3 C 64 % -9.12 C
1937 01-03-2004 03:26:03 -3.3 C 65 % -8.93 C
1938 01-03-2004 03:37:59 -3.4 C 65 % -9.02 C
1939 01-03-2004 03:49:59 -3.4 C 65 % -9.02 C
1940 01-03-2004 04:02:59 -3.1 C 65 % -8.74 C
1941 01-03-2004 04:14:58 -3 C 64 % -8.84 C
1942 01-03-2004 04:26:58 -2.9 C 65 % -8.55 C
1943 01-03-2004 04:38:57 -2.9 C 65 % -8.55 C
1944 01-03-2004 04:50:01 -2.9 C 66 % -8.35 C
1945 01-03-2004 05:02:01 -3.2 C 66 % -8.64 C
1946 01-03-2004 05:14:01 -3.4 C 69 % -8.26 C
1947 01-03-2004 05:26:01 -3.5 C 69 % -8.36 C
1948 01-03-2004 05:38:00 -3.8 C 71 % -8.28 C
1949 01-03-2004 05:50:01 -3.8 C 72 % -8.1 C
1950 01-03-2004 06:02:01 -3.8 C 72 % -8.1 C
Sensor: Nr:Datum:Temp:Feuchte:Taupunkt:
Aussen-T/F 1951 01-03-2004 06:14:01 -3.9 C 72 % -8.19 C
1952 01-03-2004 06:26:01 -4 C 72 % -8.29 C
1953 01-03-2004 06:38:01 -4.1 C 73 % -8.21 C
1954 01-03-2004 06:50:00 -4.1 C 73 % -8.21 C
1955 01-03-2004 07:02:00 -4.4 C 72 % -8.68 C
1956 01-03-2004 07:14:00 -4.4 C 73 % -8.5 C
1957 01-03-2004 07:26:59 -4.2 C 73 % -8.31 C
1958 01-03-2004 07:38:58 -4.3 C 73 % -8.4 C
1959 01-03-2004 07:50:01 -4.2 C 73 % -8.31 C
1960 01-03-2004 08:02:00 -4.2 C 73 % -8.31 C
1961 01-03-2004 08:14:00 -4.1 C 73 % -8.21 C
1962 01-03-2004 08:26:01 -4.3 C 73 % -8.4 C
1963 01-03-2004 08:38:01 -4.2 C 73 % -8.31 C
1964 01-03-2004 08:50:01 -4.2 C 73 % -8.31 C
1965 01-03-2004 09:02:00 -3.9 C 72 % -8.19 C
1966 01-03-2004 09:14:00 -3.8 C 71 % -8.28 C
1967 01-03-2004 09:26:59 -3.5 C 71 % -7.99 C
1968 01-03-2004 09:38:58 -3.2 C 70 % -7.88 C
1969 01-03-2004 09:50:01 -2.8 C 69 % -7.68 C
1970 01-03-2004 10:02:01 -2.3 C 68 % -7.39 C
1971 01-03-2004 10:14:01 -1.9 C 65 % -7.59 C
1972 01-03-2004 10:26:01 -1.3 C 63 % -7.43 C
1973 01-03-2004 10:38:01 -0.9 C 61 % -7.46 C
1974 01-03-2004 10:50:00 -0.3 C 58 % -7.55 C
1975 01-03-2004 11:02:00 0.2 C 54 % -7.99 C
Sensor: Nr:Datum:Temp:Feuchte:Taupunkt:
Aussen-T/F 1976 01-03-2004 11:14:00 0.5 C 52 % -8.19 C
1977 01-03-2004 11:26:58 1.6 C 45 % -9.03 C
1978 01-03-2004 11:38:57 1.4 C 45 % -9.21 C
1979 01-03-2004 11:50:01 1.4 C 45 % -9.21 C
1980 01-03-2004 12:02:01 2.2 C 43 % -9.06 C
1981 01-03-2004 12:14:01 2 C 40 % -10.15 C
1982 01-03-2004 12:26:01 2.2 C 41 % -9.66 C
1983 01-03-2004 12:38:01 3 C 39 % -9.57 C
1984 01-03-2004 12:50:01 3.3 C 38 % -9.63 C
1985 01-03-2004 13:02:01 2.3 C 39 % -10.2 C
1986 01-03-2004 13:14:01 2.9 C 40 % -9.34 C
1987 01-03-2004 13:26:01 3 C 35 % -10.93 C
1988 01-03-2004 13:38:01 3.1 C 36 % -10.49 C
1989 01-03-2004 13:50:00 4.3 C 34 % -10.15 C
1990 01-03-2004 14:02:00 4.4 C 32 % -10.82 C
1991 01-03-2004 14:14:00 3.7 C 35 % -10.31 C
1992 01-03-2004 14:26:59 4 C 33 % -10.79 C
1993 01-03-2004 14:38:57 4.7 C 33 % -10.17 C
1994 01-03-2004 14:50:01 4 C 32 % -11.17 C
1995 01-03-2004 15:02:01 3.8 C 35 % -10.23 C
1996 01-03-2004 15:14:01 4.4 C 34 % -10.06 C
1997 01-03-2004 15:26:01 4.3 C 33 % -10.52 C
1998 01-03-2004 15:38:01 4.8 C 31 % -10.87 C
1999 01-03-2004 15:50:00 4.9 C 30 % -11.19 C
2000 01-03-2004 16:14:00 5.2 C 28 % -11.79 C
Sensor: Nr:Datum:Temp:Feuchte:Taupunkt:
Aussen-T/F 2001 01-03-2004 16:14:58 5.1 C 28 % -11.87 C
2002 01-03-2004 16:26:58 5.9 C 28 % -11.18 C
2003 01-03-2004 16:38:57 4.9 C 30 % -11.19 C
2004 01-03-2004 16:50:01 5.1 C 30 % -11.02 C
2005 01-03-2004 17:02:01 4.8 C 32 % -10.47 C
2006 01-03-2004 17:14:01 4.2 C 34 % -10.24 C
2007 01-03-2004 17:26:01 4 C 34 % -10.41 C
2008 01-03-2004 17:38:01 3.5 C 36 % -10.14 C
2009 01-03-2004 17:50:01 2.7 C 39 % -9.84 C
2010 01-03-2004 18:02:00 2.2 C 41 % -9.66 C
2011 01-03-2004 18:14:00 1.8 C 44 % -9.13 C
2012 01-03-2004 18:26:59 1.6 C 45 % -9.03 C
2013 01-03-2004 18:38:58 1.3 C 46 % -9.02 C
2014 01-03-2004 18:50:01 1.1 C 47 % -8.93 C
2015 01-03-2004 19:02:01 1 C 48 % -8.75 C
2016 01-03-2004 19:14:01 1 C 48 % -8.75 C
2017 01-03-2004 19:26:01 1 C 49 % -8.49 C
2018 01-03-2004 19:38:01 0.8 C 50 % -8.42 C
2019 01-03-2004 19:50:01 0.7 C 51 % -8.26 C
2020 01-03-2004 20:13:59 0.6 C 51 % -8.35 C
2021 01-03-2004 20:14:58 0.6 C 52 % -8.1 C
2022 01-03-2004 20:26:58 0.6 C 53 % -7.86 C
2023 01-03-2004 20:38:57 0.6 C 53 % -7.86 C
2024 01-03-2004 20:50:01 0.8 C 52 % -7.92 C
2025 01-03-2004 21:02:01 1 C 51 % -7.98 C
Sensor: Nr:Datum:Temp:Feuchte:Taupunkt:
Aussen-T/F 2026 01-03-2004 21:14:01 1 C 51 % -7.98 C
2027 01-03-2004 21:26:01 1.1 C 51 % -7.89 C
2028 01-03-2004 21:38:01 1.1 C 51 % -7.89 C
2029 01-03-2004 21:50:00 1.1 C 52 % -7.64 C
2030 01-03-2004 22:02:00 1 C 52 % -7.73 C
2031 01-03-2004 22:14:00 1 C 53 % -7.48 C
2032 01-03-2004 22:26:58 0.9 C 55 % -7.1 C
2033 01-03-2004 22:38:57 1 C 54 % -7.24 C
2034 01-03-2004 22:50:01 1 C 56 % -6.77 C
2035 01-03-2004 23:02:01 1 C 55 % -7.01 C
2036 01-03-2004 23:14:01 1 C 57 % -6.54 C
2037 01-03-2004 23:26:01 1 C 60 % -5.87 C
2038 01-03-2004 23:38:01 0.7 C 63 % -5.52 C
2039 01-03-2004 23:50:00 0.6 C 66 % -5 C
2040 02-03-2004 00:02:59 0.5 C 65 % -5.3 C
2041 02-03-2004 00:14:58 0.5 C 66 % -5.1 C
2042 02-03-2004 00:26:58 0.4 C 67 % -5 C
2043 02-03-2004 00:38:57 0.4 C 67 % -5 C
2044 02-03-2004 00:50:01 0.4 C 67 % -5 C
2045 02-03-2004 01:02:01 0.3 C 67 % -5.09 C
2046 02-03-2004 01:14:01 0.3 C 67 % -5.09 C
2047 02-03-2004 01:26:01 0.2 C 67 % -5.19 C
2048 02-03-2004 01:38:01 0.2 C 68 % -4.99 C
2049 02-03-2004 01:50:01 0.2 C 67 % -5.19 C
2050 02-03-2004 02:02:01 0.2 C 67 % -5.19 C
Sensor: Nr:Datum:Temp:Feuchte:Taupunkt:
Aussen-T/F 2051 02-03-2004 02:14:01 0.3 C 67 % -5.09 C
2052 02-03-2004 02:26:01 0.4 C 67 % -5 C
2053 02-03-2004 02:38:01 0.5 C 66 % -5.1 C
2054 02-03-2004 02:51:01 0.5 C 66 % -5.1 C
2055 02-03-2004 03:03:01 0.6 C 66 % -5 C
2056 02-03-2004 03:15:59 0.7 C 66 % -4.91 C
2057 02-03-2004 03:26:59 0.7 C 66 % -4.91 C
2058 02-03-2004 03:39:01 0.7 C 66 % -4.91 C
2059 02-03-2004 03:51:01 0.8 C 66 % -4.81 C
2060 02-03-2004 04:03:01 0.8 C 66 % -4.81 C
2061 02-03-2004 04:15:01 1 C 65 % -4.82 C
2062 02-03-2004 04:27:01 0.9 C 67 % -4.52 C
2063 02-03-2004 04:39:01 1.1 C 67 % -4.33 C
2064 02-03-2004 04:51:00 1.5 C 70 % -3.36 C
2065 02-03-2004 05:03:59 1.8 C 70 % -3.07 C
2066 02-03-2004 05:15:58 1.8 C 72 % -2.7 C
2067 02-03-2004 05:27:58 1.8 C 74 % -2.33 C
2068 02-03-2004 05:39:57 1.8 C 74 % -2.33 C
2069 02-03-2004 05:51:01 1.9 C 76 % -1.87 C
2070 02-03-2004 06:03:01 1.8 C 77 % -1.79 C
2071 02-03-2004 06:15:01 1.7 C 78 % -1.71 C
2072 02-03-2004 06:27:01 1.7 C 78 % -1.71 C
2073 02-03-2004 06:39:00 1.7 C 78 % -1.71 C
2074 02-03-2004 06:51:01 1.8 C 78 % -1.62 C
2075 02-03-2004 07:03:01 1.8 C 79 % -1.44 C
Sensor: Nr:Datum:Temp:Feuchte:Taupunkt:
Aussen-T/F 2076 02-03-2004 07:15:01 1.8 C 79 % -1.44 C
2077 02-03-2004 07:27:01 1.9 C 79 % -1.35 C
2078 02-03-2004 07:39:01 2 C 78 % -1.42 C
2079 02-03-2004 07:51:00 2 C 78 % -1.42 C
2080 02-03-2004 08:03:00 2.2 C 78 % -1.23 C
2081 02-03-2004 08:15:58 2.1 C 79 % -1.15 C
2082 02-03-2004 08:27:58 2.1 C 79 % -1.15 C
2083 02-03-2004 08:39:57 2.1 C 80 % -0.98 C
2084 02-03-2004 08:51:01 2.1 C 81 % -0.81 C
2085 02-03-2004 09:03:01 2.2 C 81 % -0.71 C
2086 02-03-2004 09:15:01 2.3 C 80 % -0.79 C
2087 02-03-2004 09:27:01 2.4 C 79 % -0.86 C
2088 02-03-2004 09:39:01 2.6 C 79 % -0.67 C
2089 02-03-2004 09:51:01 2.8 C 78 % -0.65 C
2090 02-03-2004 10:03:01 3 C 76 % -0.81 C
2091 02-03-2004 10:15:02 3 C 76 % -0.81 C
2092 02-03-2004 10:27:02 3.1 C 75 % -0.89 C
2093 02-03-2004 10:39:01 3.1 C 75 % -0.89 C
2094 02-03-2004 10:51:00 3.1 C 75 % -0.89 C
2095 02-03-2004 11:03:00 2.9 C 76 % -0.9 C
2096 02-03-2004 11:15:59 3 C 75 % -0.99 C
2097 02-03-2004 11:27:59 3 C 74 % -1.17 C
2098 02-03-2004 11:39:57 3.1 C 74 % -1.07 C
2099 02-03-2004 11:51:01 3.3 C 73 % -1.06 C
2100 02-03-2004 12:03:01 3.3 C 72 % -1.25 C
Sensor: Nr:Datum:Temp:Feuchte:Taupunkt:
Aussen-T/F 2101 02-03-2004 12:15:01 3.3 C 72 % -1.25 C
2102 02-03-2004 12:27:01 3.5 C 71 % -1.25 C
2103 02-03-2004 12:39:02 3.6 C 68 % -1.74 C
2104 02-03-2004 12:51:00 3.8 C 63 % -2.58 C
2105 02-03-2004 13:03:00 4 C 60 % -3.05 C
2106 02-03-2004 13:15:59 4.3 C 57 % -3.45 C
2107 02-03-2004 13:27:59 4.2 C 57 % -3.54 C
2108 02-03-2004 13:39:58 4.5 C 57 % -3.26 C
2109 02-03-2004 13:51:01 4.5 C 57 % -3.26 C
2110 02-03-2004 14:03:00 4.4 C 56 % -3.59 C
2111 02-03-2004 14:15:00 4.5 C 55 % -3.74 C
2112 02-03-2004 14:27:00 4.7 C 53 % -4.05 C
2113 02-03-2004 14:39:00 4.9 C 51 % -4.37 C
2114 02-03-2004 14:51:01 5 C 51 % -4.28 C
2115 02-03-2004 15:03:01 5.3 C 50 % -4.26 C
2116 02-03-2004 15:15:01 5.2 C 48 % -4.89 C
2117 02-03-2004 15:27:01 5.4 C 48 % -4.71 C
2118 02-03-2004 15:39:01 6 C 47 % -4.44 C
2119 02-03-2004 15:51:01 6.4 C 47 % -4.07 C
2120 02-03-2004 16:03:01 6.4 C 43 % -5.25 C
2121 02-03-2004 16:15:01 6.7 C 44 % -4.67 C
2122 02-03-2004 16:27:01 7 C 41 % -5.33 C
2123 02-03-2004 16:39:01 5.7 C 46 % -5 C
2124 02-03-2004 16:51:00 5.8 C 47 % -4.62 C
2125 02-03-2004 17:03:00 5.7 C 47 % -4.71 C
Sensor: Nr:Datum:Temp:Feuchte:Taupunkt:
Aussen-T/F 2126 02-03-2004 17:15:58 5.5 C 48 % -4.62 C
2127 02-03-2004 17:27:58 5.4 C 48 % -4.71 C
2128 02-03-2004 17:39:57 5.4 C 48 % -4.71 C
2129 02-03-2004 17:51:01 5.4 C 48 % -4.71 C
2130 02-03-2004 18:03:01 5.3 C 48 % -4.8 C
2131 02-03-2004 18:15:01 5 C 48 % -5.08 C
2132 02-03-2004 18:27:01 4.7 C 50 % -4.82 C
2133 02-03-2004 18:39:01 4.8 C 50 % -4.72 C
2134 02-03-2004 18:51:01 4.6 C 51 % -4.65 C
2135 02-03-2004 19:03:01 4.6 C 50 % -4.91 C
2136 02-03-2004 19:15:01 4.3 C 51 % -4.92 C
2137 02-03-2004 19:27:01 4.3 C 51 % -4.92 C
2138 02-03-2004 19:39:01 4.3 C 51 % -4.92 C
2139 02-03-2004 19:51:01 4.2 C 51 % -5.02 C
2140 02-03-2004 20:03:00 4.2 C 51 % -5.02 C
2141 02-03-2004 20:15:59 4 C 52 % -4.95 C
2142 02-03-2004 20:27:59 4 C 52 % -4.95 C
2143 02-03-2004 20:39:57 4 C 52 % -4.95 C
2144 02-03-2004 20:51:01 3.9 C 54 % -4.54 C
2145 02-03-2004 21:03:01 3.8 C 54 % -4.63 C
2146 02-03-2004 21:15:01 3.8 C 55 % -4.39 C
2147 02-03-2004 21:27:01 3.8 C 55 % -4.39 C
2148 02-03-2004 21:39:01 3.8 C 56 % -4.15 C
2149 02-03-2004 21:51:00 3.7 C 55 % -4.49 C
2150 02-03-2004 22:03:00 3.6 C 56 % -4.34 C
Sensor: Nr:Datum:Temp:Feuchte:Taupunkt:
Aussen-T/F 2151 02-03-2004 22:15:58 3.6 C 57 % -4.11 C
2152 02-03-2004 22:27:58 3.8 C 56 % -4.15 C
2153 02-03-2004 22:39:57 3.8 C 56 % -4.15 C
2154 02-03-2004 22:51:01 3.9 C 56 % -4.06 C
2155 02-03-2004 23:03:01 3.9 C 56 % -4.06 C
2156 02-03-2004 23:15:01 3.9 C 56 % -4.06 C
2157 02-03-2004 23:27:01 3.7 C 56 % -4.25 C
2158 02-03-2004 23:39:01 3.6 C 56 % -4.34 C
2159 02-03-2004 23:51:01 3.3 C 57 % -4.39 C
2160 03-03-2004 00:03:01 3.5 C 58 % -3.97 C
2161 03-03-2004 00:15:01 3.5 C 57 % -4.2 C
2162 03-03-2004 00:27:01 3.5 C 57 % -4.2 C
2163 03-03-2004 00:39:01 3.5 C 58 % -3.97 C
2164 03-03-2004 00:51:00 3.4 C 58 % -4.06 C
2165 03-03-2004 01:03:00 3.4 C 59 % -3.84 C
2166 03-03-2004 01:15:59 3.3 C 59 % -3.93 C
2167 03-03-2004 01:27:59 3.3 C 59 % -3.93 C
2168 03-03-2004 01:39:57 3.3 C 59 % -3.93 C
2169 03-03-2004 01:51:01 3.2 C 60 % -3.8 C
2170 03-03-2004 02:03:01 3.1 C 60 % -3.89 C
2171 03-03-2004 02:15:01 3 C 61 % -3.77 C
2172 03-03-2004 02:27:01 2.8 C 62 % -3.74 C
2173 03-03-2004 02:39:01 2.8 C 62 % -3.74 C
2174 03-03-2004 02:52:01 2.8 C 61 % -3.96 C
2175 03-03-2004 03:04:01 2.8 C 61 % -3.96 C
Sensor: Nr:Datum:Temp:Feuchte:Taupunkt:
Aussen-T/F 2176 03-03-2004 03:16:00 2.7 C 61 % -4.05 C
2177 03-03-2004 03:28:00 2.6 C 61 % -4.15 C
2178 03-03-2004 03:40:01 2.6 C 61 % -4.15 C
2179 03-03-2004 03:52:01 2.5 C 62 % -4.03 C
2180 03-03-2004 04:04:00 2.4 C 62 % -4.12 C
2181 03-03-2004 04:16:00 2.3 C 62 % -4.21 C
2182 03-03-2004 04:28:00 2.2 C 62 % -4.31 C
2183 03-03-2004 04:40:00 2.1 C 61 % -4.62 C
2184 03-03-2004 04:52:01 1.7 C 63 % -4.57 C
2185 03-03-2004 05:04:01 1.3 C 63 % -4.95 C
2186 03-03-2004 05:16:01 1.1 C 64 % -4.93 C
2187 03-03-2004 05:28:01 0.8 C 65 % -5.01 C
2188 03-03-2004 05:40:00 0.7 C 65 % -5.11 C
2189 03-03-2004 05:52:01 0.5 C 65 % -5.3 C
2190 03-03-2004 06:04:01 0.5 C 65 % -5.3 C
2191 03-03-2004 06:16:01 0.5 C 64 % -5.5 C
2192 03-03-2004 06:28:01 0.3 C 65 % -5.49 C
2193 03-03-2004 06:40:01 0.1 C 66 % -5.48 C
2194 03-03-2004 06:52:00 0.1 C 66 % -5.48 C
2195 03-03-2004 07:04:00 0 C 66 % -5.58 C
2196 03-03-2004 07:16:58 0.2 C 66 % -5.38 C
2197 03-03-2004 07:28:58 0.4 C 65 % -5.39 C
2198 03-03-2004 07:40:57 0.6 C 64 % -5.41 C
2199 03-03-2004 07:52:01 0.7 C 63 % -5.52 C
2200 03-03-2004 08:04:01 0.7 C 63 % -5.52 C
Sensor: Nr:Datum:Temp:Feuchte:Taupunkt:
Aussen-T/F 2201 03-03-2004 08:16:01 0.6 C 63 % -5.61 C
2202 03-03-2004 08:28:01 0.6 C 63 % -5.61 C
2203 03-03-2004 08:40:01 0.5 C 63 % -5.71 C
2204 03-03-2004 08:52:01 0.4 C 64 % -5.6 C
2205 03-03-2004 09:04:01 0.5 C 63 % -5.71 C
2206 03-03-2004 09:16:01 0.6 C 63 % -5.61 C
2207 03-03-2004 09:28:01 0.8 C 62 % -5.63 C
2208 03-03-2004 09:40:01 1 C 60 % -5.87 C
2209 03-03-2004 09:52:00 1.4 C 60 % -5.5 C
2210 03-03-2004 10:04:00 1.7 C 58 % -5.66 C
2211 03-03-2004 10:16:59 1.9 C 58 % -5.47 C
2212 03-03-2004 10:28:59 2.2 C 55 % -5.89 C
2213 03-03-2004 10:40:57 2.5 C 54 % -5.85 C
2214 03-03-2004 10:52:01 2.8 C 53 % -5.81 C
2215 03-03-2004 11:04:01 3.2 C 52 % -5.69 C
2216 03-03-2004 11:16:01 3.5 C 51 % -5.66 C
2217 03-03-2004 11:28:01 3.8 C 50 % -5.65 C
2218 03-03-2004 11:40:01 4.2 C 48 % -5.81 C
2219 03-03-2004 11:52:00 4.6 C 47 % -5.72 C
2220 03-03-2004 12:03:59 5 C 46 % -5.64 C
2221 03-03-2004 12:16:58 5.4 C 45 % -5.56 C
2222 03-03-2004 12:28:58 6 C 43 % -5.61 C
2223 03-03-2004 12:40:57 6.4 C 41 % -5.87 C
2224 03-03-2004 12:52:01 7.2 C 41 % -5.15 C
2225 03-03-2004 13:04:01 8 C 39 % -5.09 C
Sensor: Nr:Datum:Temp:Feuchte:Taupunkt:
Aussen-T/F 2226 03-03-2004 13:16:01 8.2 C 37 % -5.6 C
2227 03-03-2004 13:28:01 8 C 36 % -6.14 C
2228 03-03-2004 13:40:01 8.5 C 37 % -5.33 C
2229 03-03-2004 13:52:01 8.5 C 35 % -6.06 C
2230 03-03-2004 14:04:01 8.6 C 34 % -6.35 C
2231 03-03-2004 14:16:01 8.9 C 34 % -6.09 C
2232 03-03-2004 14:28:01 9.6 C 33 % -5.86 C
2233 03-03-2004 14:40:01 10.1 C 32 % -5.82 C
2234 03-03-2004 14:52:00 10.1 C 31 % -6.24 C
2235 03-03-2004 15:04:00 10.2 C 29 % -7.02 C
2236 03-03-2004 15:16:58 9.8 C 31 % -6.5 C
2237 03-03-2004 15:28:58 10.4 C 30 % -6.4 C
2238 03-03-2004 15:40:57 11.1 C 28 % -6.69 C
2239 03-03-2004 15:52:01 10.8 C 29 % -6.5 C
2240 03-03-2004 16:04:01 11 C 27 % -7.25 C
2241 03-03-2004 16:16:01 11.2 C 27 % -7.08 C
2242 03-03-2004 16:28:01 10.4 C 28 % -7.3 C
2243 03-03-2004 16:40:01 10.7 C 28 % -7.04 C
2244 03-03-2004 16:52:00 10.3 C 28 % -7.38 C
2245 03-03-2004 17:04:59 9.8 C 30 % -6.92 C
2246 03-03-2004 17:16:58 10 C 32 % -5.91 C
2247 03-03-2004 17:28:58 9.5 C 30 % -7.19 C
2248 03-03-2004 17:40:57 8.9 C 33 % -6.47 C
2249 03-03-2004 17:52:01 8.2 C 33 % -7.09 C
2250 03-03-2004 18:04:01 7.4 C 35 % -7.03 C
Sensor: Nr:Datum:Temp:Feuchte:Taupunkt:
Aussen-T/F 2251 03-03-2004 18:16:01 6.9 C 36 % -7.11 C
2252 03-03-2004 18:28:01 6.6 C 38 % -6.68 C
2253 03-03-2004 18:40:01 5.8 C 41 % -6.41 C
2254 03-03-2004 18:52:01 5.2 C 45 % -5.74 C
2255 03-03-2004 19:04:01 4.7 C 47 % -5.63 C
2256 03-03-2004 19:16:01 4.3 C 48 % -5.72 C
2257 03-03-2004 19:28:01 4.1 C 49 % -5.63 C
2258 03-03-2004 19:40:01 3.6 C 52 % -5.32 C
2259 03-03-2004 19:52:01 3.5 C 52 % -5.41 C
2260 03-03-2004 20:04:00 3.1 C 54 % -5.29 C
2261 03-03-2004 20:16:59 2.7 C 57 % -4.95 C
2262 03-03-2004 20:28:59 2.5 C 59 % -4.68 C
2263 03-03-2004 20:40:58 2.4 C 59 % -4.78 C
2264 03-03-2004 20:52:01 2.1 C 59 % -5.06 C
2265 03-03-2004 21:04:00 1.8 C 62 % -4.69 C
2266 03-03-2004 21:16:01 1.7 C 61 % -5 C
2267 03-03-2004 21:28:01 1.5 C 62 % -4.97 C
2268 03-03-2004 21:40:00 1.3 C 63 % -4.95 C
2269 03-03-2004 21:52:01 1.1 C 62 % -5.35 C
2270 03-03-2004 22:04:01 1 C 63 % -5.23 C
2271 03-03-2004 22:16:01 0.7 C 64 % -5.31 C
2272 03-03-2004 22:28:01 0.6 C 65 % -5.2 C
2273 03-03-2004 22:40:01 0.5 C 66 % -5.1 C
2274 03-03-2004 22:52:01 0.4 C 66 % -5.19 C
2275 03-03-2004 23:04:01 0.2 C 66 % -5.38 C
Sensor: Nr:Datum:Temp:Feuchte:Taupunkt:
Aussen-T/F 2276 03-03-2004 23:16:01 0.1 C 66 % -5.48 C
2277 03-03-2004 23:28:01 -0.1 C 66 % -5.68 C
2278 03-03-2004 23:40:01 -0.1 C 67 % -5.48 C
2279 03-03-2004 23:52:00 0 C 67 % -5.38 C
2280 04-03-2004 00:04:00 -0.2 C 67 % -5.58 C
2281 04-03-2004 00:16:59 -0.4 C 67 % -5.77 C
2282 04-03-2004 00:28:59 -0.6 C 67 % -5.96 C
2283 04-03-2004 00:40:57 -0.9 C 68 % -6.05 C
2284 04-03-2004 00:52:01 -1 C 69 % -5.96 C
2285 04-03-2004 01:04:01 -1.1 C 70 % -5.86 C
2286 04-03-2004 01:16:01 -1.3 C 70 % -6.06 C
2287 04-03-2004 01:28:01 -1.4 C 71 % -5.97 C
2288 04-03-2004 01:40:01 -1.6 C 71 % -6.16 C
2289 04-03-2004 01:52:00 -1.7 C 72 % -6.07 C
2290 04-03-2004 02:04:00 -1.8 C 73 % -5.99 C
2291 04-03-2004 02:16:58 -1.9 C 73 % -6.09 C
2292 04-03-2004 02:28:58 -2.1 C 72 % -6.46 C
2293 04-03-2004 02:40:57 -2.1 C 73 % -6.28 C
2294 04-03-2004 02:53:02 -2.2 C 73 % -6.38 C
2295 04-03-2004 03:05:02 -2.3 C 73 % -6.47 C
2296 04-03-2004 03:17:02 -2.3 C 73 % -6.47 C
2297 04-03-2004 03:29:02 -2.2 C 74 % -6.2 C
2298 04-03-2004 03:41:00 -2.4 C 74 % -6.39 C
2299 04-03-2004 03:53:00 -2.5 C 74 % -6.49 C
2300 04-03-2004 04:05:00 -2.4 C 74 % -6.39 C
Sensor: Nr:Datum:Temp:Feuchte:Taupunkt:
Aussen-T/F 2301 04-03-2004 04:17:59 -2.5 C 74 % -6.49 C
2302 04-03-2004 04:29:59 -2.5 C 74 % -6.49 C
2303 04-03-2004 04:41:57 -2.5 C 74 % -6.49 C
2304 04-03-2004 04:53:01 -2.6 C 74 % -6.58 C
2305 04-03-2004 05:05:01 -2.4 C 75 % -6.22 C
2306 04-03-2004 05:17:01 -2.3 C 74 % -6.29 C
2307 04-03-2004 05:29:01 -2.5 C 73 % -6.67 C
2308 04-03-2004 05:41:01 -2.7 C 73 % -6.86 C
2309 04-03-2004 05:53:00 -2.8 C 73 % -6.95 C
2310 04-03-2004 06:05:00 -2.6 C 74 % -6.58 C
2311 04-03-2004 06:17:58 -2.6 C 74 % -6.58 C
2312 04-03-2004 06:29:58 -2.6 C 75 % -6.41 C
2313 04-03-2004 06:41:57 -2.6 C 74 % -6.58 C
2314 04-03-2004 06:53:01 -2.7 C 75 % -6.51 C
2315 04-03-2004 07:05:01 -2.8 C 75 % -6.6 C
2316 04-03-2004 07:17:01 -2.7 C 75 % -6.51 C
2317 04-03-2004 07:29:01 -2.6 C 75 % -6.41 C
2318 04-03-2004 07:41:01 -2.7 C 74 % -6.68 C
2319 04-03-2004 07:53:01 -2.5 C 75 % -6.31 C
2320 04-03-2004 08:05:01 -2.4 C 75 % -6.22 C
2321 04-03-2004 08:17:01 -2.4 C 74 % -6.39 C
2322 04-03-2004 08:29:01 -2.5 C 74 % -6.49 C
2323 04-03-2004 08:41:01 -2.4 C 75 % -6.22 C
2324 04-03-2004 08:53:00 -2.2 C 75 % -6.02 C
2325 04-03-2004 09:05:00 -2 C 75 % -5.83 C
Sensor: Nr:Datum:Temp:Feuchte:Taupunkt:
Aussen-T/F 2326 04-03-2004 09:17:59 -1.8 C 75 % -5.64 C
2327 04-03-2004 09:29:59 -1.5 C 74 % -5.52 C
2328 04-03-2004 09:41:57 -0.8 C 74 % -4.84 C
2329 04-03-2004 09:53:01 -0.1 C 70 % -4.9 C
2330 04-03-2004 10:05:01 0.4 C 68 % -4.8 C
2331 04-03-2004 10:17:01 1.4 C 66 % -4.24 C
2332 04-03-2004 10:29:01 2.1 C 62 % -4.4 C
2333 04-03-2004 10:41:01 2.2 C 60 % -4.74 C
2334 04-03-2004 10:53:00 2.8 C 57 % -4.86 C
2335 04-03-2004 11:05:00 3.5 C 57 % -4.2 C
2336 04-03-2004 11:17:58 4.1 C 54 % -4.36 C
2337 04-03-2004 11:29:58 4.7 C 52 % -4.3 C
2338 04-03-2004 11:41:57 4.8 C 52 % -4.2 C
2339 04-03-2004 11:53:01 5.1 C 51 % -4.18 C
2340 04-03-2004 12:05:01 5.3 C 52 % -3.74 C
2341 04-03-2004 12:17:01 6.2 C 48 % -3.98 C
2342 04-03-2004 12:29:01 7.1 C 45 % -4.01 C
2343 04-03-2004 12:41:01 7.4 C 44 % -4.04 C
2344 04-03-2004 12:53:01 7.8 C 42 % -4.29 C
2345 04-03-2004 13:05:01 8.6 C 41 % -3.89 C
2346 04-03-2004 13:17:01 8.9 C 40 % -3.95 C
2347 04-03-2004 13:29:01 8.9 C 38 % -4.63 C
2348 04-03-2004 13:41:01 9.5 C 37 % -4.44 C
2349 04-03-2004 13:53:00 10.2 C 35 % -4.56 C
2350 04-03-2004 14:05:00 10.7 C 35 % -4.11 C
Sensor: Nr:Datum:Temp:Feuchte:Taupunkt:
Aussen-T/F 2351 04-03-2004 14:17:59 10.5 C 32 % -5.47 C
2352 04-03-2004 14:29:59 10.4 C 32 % -5.56 C
2353 04-03-2004 14:41:57 9.9 C 35 % -4.82 C
2354 04-03-2004 14:53:01 10 C 33 % -5.51 C
2355 04-03-2004 15:05:01 10.8 C 32 % -5.21 C
2356 04-03-2004 15:17:01 11.1 C 30 % -5.79 C
2357 04-03-2004 15:29:01 11.1 C 31 % -5.37 C
2358 04-03-2004 15:41:01 10.5 C 31 % -5.89 C
2359 04-03-2004 15:53:00 10.3 C 31 % -6.06 C
2360 04-03-2004 16:05:59 10.1 C 31 % -6.24 C
2361 04-03-2004 16:17:58 10.3 C 32 % -5.65 C
2362 04-03-2004 16:29:58 10.3 C 31 % -6.06 C
2363 04-03-2004 16:41:57 10 C 32 % -5.91 C
2364 04-03-2004 16:53:01 9.7 C 41 % -2.9 C
2365 04-03-2004 17:05:01 9.4 C 37 % -4.53 C
2366 04-03-2004 17:17:01 9.1 C 37 % -4.8 C
2367 04-03-2004 17:29:01 8.9 C 40 % -3.95 C
2368 04-03-2004 17:41:01 8.6 C 39 % -4.55 C
2369 04-03-2004 17:53:01 8.4 C 41 % -4.07 C
2370 04-03-2004 18:05:01 8.1 C 42 % -4.02 C
2371 04-03-2004 18:17:01 7.8 C 45 % -3.37 C
2372 04-03-2004 18:29:01 7.4 C 46 % -3.44 C
2373 04-03-2004 18:41:01 7.1 C 47 % -3.43 C
2374 04-03-2004 18:53:01 6.9 C 48 % -3.33 C
2375 04-03-2004 19:05:00 6.8 C 47 % -3.71 C
Sensor: Nr:Datum:Temp:Feuchte:Taupunkt:
Aussen-T/F 2376 04-03-2004 19:17:58 6.8 C 46 % -3.99 C
2377 04-03-2004 19:29:58 6.8 C 45 % -4.28 C
2378 04-03-2004 19:41:57 6.6 C 45 % -4.47 C
2379 04-03-2004 19:53:01 6.5 C 44 % -4.85 C
2380 04-03-2004 20:05:01 6.5 C 43 % -5.16 C
2381 04-03-2004 20:17:01 6.4 C 42 % -5.56 C
2382 04-03-2004 20:29:01 6.3 C 44 % -5.03 C
2383 04-03-2004 20:41:01 6 C 46 % -4.72 C
2384 04-03-2004 20:53:00 5.7 C 48 % -4.43 C
2385 04-03-2004 21:05:59 5.5 C 49 % -4.35 C
2386 04-03-2004 21:17:58 5.4 C 49 % -4.44 C
2387 04-03-2004 21:29:58 5.2 C 48 % -4.89 C
2388 04-03-2004 21:41:57 5 C 49 % -4.81 C
2389 04-03-2004 21:53:01 4.9 C 49 % -4.9 C
2390 04-03-2004 22:05:01 4.6 C 50 % -4.91 C
2391 04-03-2004 22:17:01 4.3 C 51 % -4.92 C
2392 04-03-2004 22:29:01 3.8 C 54 % -4.63 C
2393 04-03-2004 22:41:01 3.6 C 53 % -5.07 C
2394 04-03-2004 22:53:00 3.5 C 53 % -5.16 C
2395 04-03-2004 23:05:59 3.3 C 53 % -5.35 C
2396 04-03-2004 23:17:58 3.1 C 55 % -5.05 C
2397 04-03-2004 23:29:58 2.8 C 56 % -5.09 C
2398 04-03-2004 23:41:57 2.4 C 56 % -5.46 C
2399 04-03-2004 23:53:01 2.3 C 56 % -5.56 C
2400 05-03-2004 00:05:01 2.1 C 56 % -5.74 C
Sensor: Nr:Datum:Temp:Feuchte:Taupunkt:
Aussen-T/F 2401 05-03-2004 00:17:01 2.1 C 56 % -5.74 C
2402 05-03-2004 00:29:01 1.9 C 58 % -5.47 C
2403 05-03-2004 00:41:00 1.8 C 58 % -5.57 C
2404 05-03-2004 00:53:01 1.7 C 58 % -5.66 C
2405 05-03-2004 01:05:01 1.5 C 59 % -5.62 C
2406 05-03-2004 01:17:01 1.4 C 59 % -5.72 C
2407 05-03-2004 01:29:01 1.2 C 60 % -5.69 C
2408 05-03-2004 01:41:01 1 C 60 % -5.87 C
2409 05-03-2004 01:53:01 1 C 60 % -5.87 C
2410 05-03-2004 02:05:00 0.8 C 62 % -5.63 C
2411 05-03-2004 02:17:58 0.6 C 62 % -5.82 C
2412 05-03-2004 02:29:58 0.5 C 63 % -5.71 C
2413 05-03-2004 02:41:57 0.5 C 63 % -5.71 C
2414 05-03-2004 02:54:03 0.4 C 63 % -5.8 C
2415 05-03-2004 03:06:03 0.3 C 65 % -5.49 C
2416 05-03-2004 03:18:02 0.3 C 65 % -5.49 C
2417 05-03-2004 03:30:02 0.3 C 65 % -5.49 C
2418 05-03-2004 03:42:00 0.2 C 65 % -5.58 C
2419 05-03-2004 03:54:00 0.1 C 65 % -5.68 C
2420 05-03-2004 04:06:00 0.2 C 65 % -5.58 C
2421 05-03-2004 04:18:59 -0.1 C 65 % -5.88 C
2422 05-03-2004 04:30:58 -0.3 C 65 % -6.07 C
2423 05-03-2004 04:42:58 -0.5 C 66 % -6.06 C
2424 05-03-2004 04:54:01 -0.5 C 67 % -5.86 C
2425 05-03-2004 05:06:01 -0.7 C 67 % -6.05 C
Sensor: Nr:Datum:Temp:Feuchte:Taupunkt:
Aussen-T/F 2426 05-03-2004 05:18:01 -0.8 C 68 % -5.96 C
2427 05-03-2004 05:30:01 -0.9 C 68 % -6.05 C
2428 05-03-2004 05:42:01 -1 C 67 % -6.34 C
2429 05-03-2004 05:54:00 -1 C 67 % -6.34 C
2430 05-03-2004 06:06:00 -1.1 C 68 % -6.24 C
2431 05-03-2004 06:18:58 -1.2 C 67 % -6.53 C
2432 05-03-2004 06:30:57 -1.2 C 66 % -6.73 C
2433 05-03-2004 06:42:57 -1.2 C 64 % -7.13 C
2434 05-03-2004 06:54:01 -1.2 C 64 % -7.13 C
2435 05-03-2004 07:06:01 -1.4 C 65 % -7.12 C
2436 05-03-2004 07:18:01 -1.4 C 63 % -7.52 C
2437 05-03-2004 07:30:01 -1.5 C 64 % -7.41 C
2438 05-03-2004 07:42:02 -1.4 C 64 % -7.32 C
2439 05-03-2004 07:54:00 -1.4 C 63 % -7.52 C
2440 05-03-2004 08:06:00 -1.3 C 64 % -7.22 C
2441 05-03-2004 08:18:58 -1.2 C 63 % -7.33 C
2442 05-03-2004 08:30:57 -1.1 C 63 % -7.24 C
2443 05-03-2004 08:42:57 -0.9 C 61 % -7.46 C
2444 05-03-2004 08:54:01 -0.8 C 60 % -7.58 C
2445 05-03-2004 09:06:01 -0.6 C 61 % -7.18 C
2446 05-03-2004 09:18:01 -0.6 C 61 % -7.18 C
2447 05-03-2004 09:30:01 -0.4 C 60 % -7.2 C
2448 05-03-2004 09:42:01 0.1 C 59 % -6.94 C
2449 05-03-2004 09:54:00 0.6 C 58 % -6.69 C
2450 05-03-2004 10:06:59 1.2 C 56 % -6.59 C
Sensor: Nr:Datum:Temp:Feuchte:Taupunkt:
Aussen-T/F 2451 05-03-2004 10:18:58 1.7 C 53 % -6.83 C
2452 05-03-2004 10:30:57 2.2 C 51 % -6.87 C
2453 05-03-2004 10:42:57 2.7 C 50 % -6.66 C
2454 05-03-2004 10:54:01 3.2 C 46 % -7.28 C
2455 05-03-2004 11:06:01 3.6 C 45 % -7.2 C
2456 05-03-2004 11:18:01 4 C 45 % -6.84 C
2457 05-03-2004 11:30:01 4.8 C 41 % -7.31 C
2458 05-03-2004 11:42:01 5.1 C 39 % -7.69 C
2459 05-03-2004 11:54:01 5.4 C 37 % -8.1 C
2460 05-03-2004 12:06:02 5.8 C 37 % -7.74 C
2461 05-03-2004 12:18:01 6.2 C 35 % -8.1 C
2462 05-03-2004 12:30:01 6.6 C 35 % -7.74 C
2463 05-03-2004 12:42:01 7 C 33 % -8.15 C
2464 05-03-2004 12:54:01 7.5 C 32 % -8.1 C
2465 05-03-2004 13:06:00 7.9 C 30 % -8.58 C
2466 05-03-2004 13:18:59 8 C 28 % -9.37 C
2467 05-03-2004 13:30:57 8.5 C 27 % -9.4 C
2468 05-03-2004 13:42:57 8.7 C 25 % -10.2 C
2469 05-03-2004 13:54:01 9 C 23 % -10.99 C
2470 05-03-2004 14:06:01 9.1 C 20 % -12.64 C
2471 05-03-2004 14:18:01 9.5 C 20 % -12.31 C
2472 05-03-2004 14:30:01 10.1 C 20 % -11.81 C
2473 05-03-2004 14:42:01 10 C 20 % -11.89 C
2474 05-03-2004 14:54:00 9.2 C 20 % -12.56 C
2475 05-03-2004 15:06:00 9 C 20 % -12.72 C
Sensor: Nr:Datum:Temp:Feuchte:Taupunkt:
Aussen-T/F 2476 05-03-2004 15:18:58 8.6 C 20 % -13.06 C
2477 05-03-2004 15:30:58 8.3 C 20 % -13.31 C
2478 05-03-2004 15:42:58 8.9 C 20 % -12.81 C
2479 05-03-2004 15:54:01 8.5 C 20 % -13.14 C
2480 05-03-2004 16:06:01 8.1 C 20 % -13.47 C
2481 05-03-2004 16:18:01 7.8 C 20 % -13.72 C
2482 05-03-2004 16:30:01 7.8 C 20 % -13.72 C
2483 05-03-2004 16:42:01 7.5 C 20 % -13.97 C
2484 05-03-2004 16:54:00 7.4 C 20 % -14.05 C
2485 05-03-2004 17:06:00 7.2 C 20 % -14.22 C
2486 05-03-2004 17:18:58 7.1 C 20 % -14.3 C
2487 05-03-2004 17:30:57 6.9 C 23 % -12.76 C
2488 05-03-2004 17:42:57 6.6 C 25 % -11.99 C
2489 05-03-2004 17:54:02 6.3 C 27 % -11.29 C
2490 05-03-2004 18:06:01 6.2 C 29 % -10.48 C
2491 05-03-2004 18:18:01 5.8 C 29 % -10.83 C
2492 05-03-2004 18:30:01 5.7 C 30 % -10.49 C
2493 05-03-2004 18:42:01 5.6 C 30 % -10.58 C
2494 05-03-2004 18:54:03 5.5 C 31 % -10.25 C
2495 05-03-2004 19:06:02 5.5 C 32 % -9.85 C
2496 05-03-2004 19:18:02 5.6 C 33 % -9.38 C
2497 05-03-2004 19:30:02 5.2 C 32 % -10.12 C
2498 05-03-2004 19:42:02 5.2 C 35 % -8.98 C
2499 05-03-2004 19:54:00 5.1 C 33 % -9.82 C
2500 05-03-2004 20:06:00 5.1 C 35 % -9.07 C
Sensor: Nr:Datum:Temp:Feuchte:Taupunkt:
Aussen-T/F 2501 05-03-2004 20:18:59 5.1 C 35 % -9.07 C
2502 05-03-2004 20:30:58 5 C 36 % -8.8 C
2503 05-03-2004 20:42:58 5 C 36 % -8.8 C
2504 05-03-2004 20:54:01 5 C 36 % -8.8 C
2505 05-03-2004 21:06:00 4.8 C 40 % -7.63 C
2506 05-03-2004 21:18:00 4.3 C 44 % -6.85 C
2507 05-03-2004 21:30:00 4.1 C 47 % -6.18 C
2508 05-03-2004 21:42:00 4.1 C 45 % -6.74 C
2509 05-03-2004 21:54:01 4.1 C 46 % -6.46 C
2510 05-03-2004 22:06:01 3.8 C 47 % -6.45 C
2511 05-03-2004 22:18:01 3.6 C 47 % -6.64 C
2512 05-03-2004 22:30:01 3.7 C 48 % -6.27 C
2513 05-03-2004 22:42:01 3.5 C 49 % -6.19 C
2514 05-03-2004 22:54:01 3.2 C 52 % -5.69 C
2515 05-03-2004 23:06:01 2.6 C 59 % -4.59 C
2516 05-03-2004 23:18:01 2.1 C 65 % -3.78 C
2517 05-03-2004 23:30:01 1.7 C 70 % -3.17 C
2518 05-03-2004 23:42:01 1.5 C 73 % -2.8 C
2519 05-03-2004 23:54:00 1.3 C 74 % -2.81 C
2520 06-03-2004 00:06:00 1.3 C 75 % -2.63 C
2521 06-03-2004 00:18:59 1.2 C 76 % -2.55 C
2522 06-03-2004 00:30:57 1.1 C 76 % -2.65 C
2523 06-03-2004 00:42:57 1 C 77 % -2.57 C
2524 06-03-2004 00:54:01 0.9 C 78 % -2.49 C
2525 06-03-2004 01:06:01 1 C 78 % -2.39 C
Sensor: Nr:Datum:Temp:Feuchte:Taupunkt:
Aussen-T/F 2526 06-03-2004 01:18:01 1 C 78 % -2.39 C
2527 06-03-2004 01:30:01 0.6 C 79 % -2.61 C
2528 06-03-2004 01:42:01 0.6 C 80 % -2.44 C
2529 06-03-2004 01:54:00 0.4 C 80 % -2.64 C
2530 06-03-2004 02:06:59 0.3 C 81 % -2.57 C
2531 06-03-2004 02:18:58 0.3 C 81 % -2.57 C
2532 06-03-2004 02:30:57 0.3 C 81 % -2.57 C
2533 06-03-2004 02:42:57 0.3 C 81 % -2.57 C
2534 06-03-2004 02:55:02 0.3 C 81 % -2.57 C
2535 06-03-2004 03:07:02 0.3 C 81 % -2.57 C
2536 06-03-2004 03:19:02 0.2 C 81 % -2.67 C
2537 06-03-2004 03:31:00 0.2 C 81 % -2.67 C
2538 06-03-2004 03:43:00 0.2 C 81 % -2.67 C
2539 06-03-2004 03:55:00 0.2 C 81 % -2.67 C
2540 06-03-2004 04:07:00 0.2 C 81 % -2.67 C
2541 06-03-2004 04:19:59 0.2 C 81 % -2.67 C
2542 06-03-2004 04:31:58 0.2 C 80 % -2.83 C
2543 06-03-2004 04:43:58 0.2 C 80 % -2.83 C
2544 06-03-2004 04:55:01 0.2 C 80 % -2.83 C
2545 06-03-2004 05:07:01 0.2 C 80 % -2.83 C
2546 06-03-2004 05:19:00 0.3 C 80 % -2.73 C
2547 06-03-2004 05:31:00 0.3 C 80 % -2.73 C
2548 06-03-2004 05:43:00 0.3 C 80 % -2.73 C
2549 06-03-2004 05:55:01 0.3 C 80 % -2.73 C
2550 06-03-2004 06:07:01 0.3 C 80 % -2.73 C
Sensor: Nr:Datum:Temp:Feuchte:Taupunkt:
Aussen-T/F 2551 06-03-2004 06:19:01 0.3 C 80 % -2.73 C
2552 06-03-2004 06:31:01 0.4 C 80 % -2.64 C
2553 06-03-2004 06:43:01 0.3 C 80 % -2.73 C
2554 06-03-2004 06:55:00 0.3 C 80 % -2.73 C
2555 06-03-2004 07:07:59 0.4 C 79 % -2.81 C
2556 06-03-2004 07:19:58 0.4 C 79 % -2.81 C
2557 06-03-2004 07:31:57 0.4 C 79 % -2.81 C
2558 06-03-2004 07:43:57 0.4 C 79 % -2.81 C
2559 06-03-2004 07:55:01 0.4 C 79 % -2.81 C
2560 06-03-2004 08:07:01 0.4 C 79 % -2.81 C
2561 06-03-2004 08:19:01 0.5 C 79 % -2.71 C
2562 06-03-2004 08:31:01 0.5 C 79 % -2.71 C
2563 06-03-2004 08:43:01 0.4 C 80 % -2.64 C
2564 06-03-2004 08:55:01 0.5 C 80 % -2.54 C
2565 06-03-2004 09:07:02 0.6 C 81 % -2.28 C
2566 06-03-2004 09:19:01 0.6 C 81 % -2.28 C
2567 06-03-2004 09:31:01 0.6 C 81 % -2.28 C
2568 06-03-2004 09:43:01 0.7 C 81 % -2.18 C
2569 06-03-2004 09:55:00 0.7 C 81 % -2.18 C
2570 06-03-2004 10:07:00 0.9 C 81 % -1.98 C
2571 06-03-2004 10:19:59 0.9 C 81 % -1.98 C
2572 06-03-2004 10:31:57 0.9 C 81 % -1.98 C
2573 06-03-2004 10:43:57 1 C 80 % -2.05 C
2574 06-03-2004 10:55:01 1 C 80 % -2.05 C
2575 06-03-2004 11:07:01 1.2 C 80 % -1.86 C
Sensor: Nr:Datum:Temp:Feuchte:Taupunkt:
Aussen-T/F 2576 06-03-2004 11:19:01 1.4 C 80 % -1.66 C
2577 06-03-2004 11:31:01 1.4 C 81 % -1.49 C
2578 06-03-2004 11:43:01 1.2 C 81 % -1.69 C
2579 06-03-2004 11:55:00 1.3 C 81 % -1.59 C
2580 06-03-2004 12:07:00 1.2 C 81 % -1.69 C
2581 06-03-2004 12:19:59 1.2 C 82 % -1.52 C
2582 06-03-2004 12:31:58 1.3 C 82 % -1.43 C
2583 06-03-2004 12:43:58 1.4 C 82 % -1.33 C
2584 06-03-2004 12:55:01 1.3 C 82 % -1.43 C
2585 06-03-2004 13:07:01 1.2 C 82 % -1.52 C
2586 06-03-2004 13:19:01 1.2 C 82 % -1.52 C
2587 06-03-2004 13:31:01 1.2 C 83 % -1.36 C
2588 06-03-2004 13:43:01 1.3 C 83 % -1.26 C
2589 06-03-2004 13:55:01 1.5 C 84 % -0.9 C
2590 06-03-2004 14:07:02 1.7 C 84 % -0.71 C
2591 06-03-2004 14:19:01 1.8 C 84 % -0.61 C
2592 06-03-2004 14:31:01 1.8 C 84 % -0.61 C
2593 06-03-2004 14:43:01 1.9 C 83 % -0.67 C
2594 06-03-2004 14:55:01 1.9 C 83 % -0.67 C
2595 06-03-2004 15:07:00 2 C 83 % -0.58 C
2596 06-03-2004 15:19:59 2.2 C 82 % -0.55 C
2597 06-03-2004 15:31:58 2.4 C 82 % -0.35 C
2598 06-03-2004 15:43:58 2.4 C 81 % -0.52 C
2599 06-03-2004 15:55:01 2.4 C 81 % -0.52 C
2600 06-03-2004 16:07:01 3 C 79 % -0.28 C
Sensor: Nr:Datum:Temp:Feuchte:Taupunkt:
Aussen-T/F 2601 06-03-2004 16:19:01 3.4 C 76 % -0.42 C
2602 06-03-2004 16:31:01 3.4 C 74 % -0.78 C
2603 06-03-2004 16:43:01 3.1 C 75 % -0.89 C
2604 06-03-2004 16:55:00 3.1 C 75 % -0.89 C
2605 06-03-2004 17:07:00 3.1 C 76 % -0.71 C
2606 06-03-2004 17:19:58 3.1 C 76 % -0.71 C
2607 06-03-2004 17:31:57 2.8 C 78 % -0.65 C
2608 06-03-2004 17:43:57 2.7 C 78 % -0.74 C
2609 06-03-2004 17:55:01 2.6 C 79 % -0.67 C
2610 06-03-2004 18:07:02 2.4 C 79 % -0.86 C
2611 06-03-2004 18:19:02 2.3 C 80 % -0.79 C
2612 06-03-2004 18:31:01 2.2 C 81 % -0.71 C
2613 06-03-2004 18:43:01 2.2 C 81 % -0.71 C
2614 06-03-2004 18:55:00 2.3 C 81 % -0.62 C
2615 06-03-2004 19:07:00 2.5 C 78 % -0.94 C
2616 06-03-2004 19:19:59 2.3 C 78 % -1.13 C
2617 06-03-2004 19:31:57 2.3 C 79 % -0.96 C
2618 06-03-2004 19:43:57 2.3 C 79 % -0.96 C
2619 06-03-2004 19:55:01 2.3 C 79 % -0.96 C
2620 06-03-2004 20:07:02 2.3 C 79 % -0.96 C
2621 06-03-2004 20:19:01 2.4 C 78 % -1.03 C
2622 06-03-2004 20:31:01 2.4 C 78 % -1.03 C
2623 06-03-2004 20:43:01 2.5 C 78 % -0.94 C
2624 06-03-2004 20:55:00 2.4 C 78 % -1.03 C
2625 06-03-2004 21:07:00 2.5 C 77 % -1.11 C
Sensor: Nr:Datum:Temp:Feuchte:Taupunkt:
Aussen-T/F 2626 06-03-2004 21:19:58 2.7 C 77 % -0.92 C
2627 06-03-2004 21:31:57 2.6 C 76 % -1.19 C
2628 06-03-2004 21:43:57 2.6 C 76 % -1.19 C
2629 06-03-2004 21:55:01 2.6 C 76 % -1.19 C
2630 06-03-2004 22:07:01 2.5 C 77 % -1.11 C
2631 06-03-2004 22:19:01 2.5 C 78 % -0.94 C
2632 06-03-2004 22:31:01 2.5 C 78 % -0.94 C
2633 06-03-2004 22:43:01 2.5 C 78 % -0.94 C
2634 06-03-2004 22:55:01 2.4 C 78 % -1.03 C
2635 06-03-2004 23:07:01 2.7 C 74 % -1.46 C
2636 06-03-2004 23:19:01 2.6 C 70 % -2.31 C
2637 06-03-2004 23:31:01 2.5 C 69 % -2.6 C
2638 06-03-2004 23:43:01 2.4 C 69 % -2.69 C
2639 06-03-2004 23:55:00 2.3 C 71 % -2.4 C
2640 07-03-2004 00:07:00 2.2 C 72 % -2.31 C
2641 07-03-2004 00:19:59 2.2 C 71 % -2.5 C
2642 07-03-2004 00:31:57 2.2 C 71 % -2.5 C
2643 07-03-2004 00:43:57 2.2 C 72 % -2.31 C
2644 07-03-2004 00:55:01 1.9 C 74 % -2.23 C
2645 07-03-2004 01:07:01 1.8 C 75 % -2.15 C
2646 07-03-2004 01:19:01 1.8 C 74 % -2.33 C
2647 07-03-2004 01:31:01 1.8 C 73 % -2.51 C
2648 07-03-2004 01:43:01 1.5 C 72 % -2.99 C
2649 07-03-2004 01:55:00 1.2 C 73 % -3.09 C
2650 07-03-2004 02:06:59 1.3 C 74 % -2.81 C
Sensor: Nr:Datum:Temp:Feuchte:Taupunkt:
Aussen-T/F 2651 07-03-2004 02:19:58 1.3 C 73 % -2.99 C
2652 07-03-2004 02:31:57 1.5 C 72 % -2.99 C
2653 07-03-2004 02:43:57 1.5 C 71 % -3.17 C
2654 07-03-2004 02:56:02 1.4 C 72 % -3.08 C
2655 07-03-2004 03:08:02 1.6 C 71 % -3.08 C
2656 07-03-2004 03:20:02 1.7 C 70 % -3.17 C
2657 07-03-2004 03:32:00 1.8 C 70 % -3.07 C
2658 07-03-2004 03:44:00 1.9 C 69 % -3.17 C
2659 07-03-2004 03:56:00 1.8 C 70 % -3.07 C
2660 07-03-2004 04:08:00 1.9 C 70 % -2.98 C
2661 07-03-2004 04:20:59 2 C 70 % -2.88 C
2662 07-03-2004 04:32:57 2 C 70 % -2.88 C
2663 07-03-2004 04:44:01 2.2 C 70 % -2.69 C
2664 07-03-2004 04:56:01 2.2 C 70 % -2.69 C
2665 07-03-2004 05:08:01 2.3 C 70 % -2.59 C
2666 07-03-2004 05:20:01 2.3 C 70 % -2.59 C
2667 07-03-2004 05:32:01 2.2 C 71 % -2.5 C
2668 07-03-2004 05:44:01 1.8 C 75 % -2.15 C
2669 07-03-2004 05:56:00 1.5 C 79 % -1.74 C
2670 07-03-2004 06:08:00 1.1 C 80 % -1.96 C
2671 07-03-2004 06:20:58 1 C 83 % -1.55 C
2672 07-03-2004 06:32:57 0.8 C 85 % -1.43 C
2673 07-03-2004 06:44:01 0.8 C 86 % -1.27 C
2674 07-03-2004 06:56:01 0.9 C 86 % -1.17 C
2675 07-03-2004 07:08:01 1 C 86 % -1.07 C
Sensor: Nr:Datum:Temp:Feuchte:Taupunkt:
Aussen-T/F 2676 07-03-2004 07:20:01 1.2 C 86 % -0.88 C
2677 07-03-2004 07:32:01 1.2 C 86 % -0.88 C
2678 07-03-2004 07:44:01 1.4 C 86 % -0.68 C
2679 07-03-2004 07:56:01 1.6 C 86 % -0.48 C
2680 07-03-2004 08:08:01 1.8 C 85 % -0.45 C
2681 07-03-2004 08:20:01 2 C 85 % -0.25 C
2682 07-03-2004 08:32:01 2.1 C 85 % -0.15 C
2683 07-03-2004 08:44:01 2.2 C 85 % -0.05 C
2684 07-03-2004 08:56:01 2.3 C 84 % -0.12 C
2685 07-03-2004 09:08:00 2.4 C 84 % -0.02 C
2686 07-03-2004 09:20:59 2.4 C 83 % -0.18 C
2687 07-03-2004 09:32:57 2.6 C 83 % 0.01 C
2688 07-03-2004 09:44:01 3 C 82 % 0.24 C
2689 07-03-2004 09:56:01 3.1 C 82 % 0.33 C
2690 07-03-2004 10:08:01 3 C 82 % 0.24 C
2691 07-03-2004 10:20:01 3 C 82 % 0.24 C
2692 07-03-2004 10:32:01 3.2 C 82 % 0.43 C
2693 07-03-2004 10:44:01 3.4 C 83 % 0.79 C
2694 07-03-2004 10:56:00 3.5 C 83 % 0.89 C
2695 07-03-2004 11:08:59 3.8 C 83 % 1.19 C
2696 07-03-2004 11:20:58 4 C 80 % 0.87 C
2697 07-03-2004 11:32:58 4.4 C 80 % 1.26 C
2698 07-03-2004 11:44:01 4.8 C 76 % 0.94 C
2699 07-03-2004 11:56:01 5.3 C 72 % 0.67 C
2700 07-03-2004 12:08:01 5.5 C 70 % 0.48 C
Sensor: Nr:Datum:Temp:Feuchte:Taupunkt:
Aussen-T/F 2701 07-03-2004 12:20:01 5.7 C 69 % 0.47 C
2702 07-03-2004 12:32:01 5.6 C 66 % -0.24 C
2703 07-03-2004 12:44:01 5.9 C 66 % 0.05 C
2704 07-03-2004 12:56:01 6.3 C 63 % -0.21 C
2705 07-03-2004 13:08:00 6.8 C 61 % -0.18 C
2706 07-03-2004 13:20:59 6.5 C 60 % -0.69 C
2707 07-03-2004 13:32:57 7.1 C 59 % -0.36 C
2708 07-03-2004 13:44:01 6.9 C 57 % -1.01 C
2709 07-03-2004 13:56:01 7.6 C 56 % -0.6 C
2710 07-03-2004 14:08:01 7.5 C 54 % -1.19 C
2711 07-03-2004 14:20:01 7.8 C 54 % -0.91 C
2712 07-03-2004 14:32:01 7.5 C 54 % -1.19 C
2713 07-03-2004 14:44:01 7.5 C 54 % -1.19 C
2714 07-03-2004 14:56:00 7.2 C 56 % -0.98 C
2715 07-03-2004 15:08:00 7 C 56 % -1.16 C
2716 07-03-2004 15:20:59 6.9 C 57 % -1.01 C
2717 07-03-2004 15:32:57 6.9 C 57 % -1.01 C
2718 07-03-2004 15:44:02 7 C 56 % -1.16 C
2719 07-03-2004 15:56:02 7.1 C 55 % -1.31 C
2720 07-03-2004 16:08:01 7.1 C 56 % -1.07 C
2721 07-03-2004 16:20:01 6.9 C 57 % -1.01 C
2722 07-03-2004 16:32:01 6.9 C 57 % -1.01 C
2723 07-03-2004 16:44:01 7 C 57 % -0.92 C
2724 07-03-2004 16:56:01 6.9 C 58 % -0.78 C
2725 07-03-2004 17:08:00 6.8 C 57 % -1.11 C
Sensor: Nr:Datum:Temp:Feuchte:Taupunkt:
Aussen-T/F 2726 07-03-2004 17:20:58 6.2 C 60 % -0.97 C
2727 07-03-2004 17:32:57 5.9 C 64 % -0.38 C
2728 07-03-2004 17:44:01 5.7 C 65 % -0.35 C
2729 07-03-2004 17:56:01 5.5 C 66 % -0.33 C
2730 07-03-2004 18:08:02 5.2 C 70 % 0.19 C
2731 07-03-2004 18:20:02 4.9 C 74 % 0.67 C
2732 07-03-2004 18:32:01 4.6 C 77 % 0.92 C
2733 07-03-2004 18:44:01 4.2 C 80 % 1.07 C
2734 07-03-2004 18:56:01 4.2 C 80 % 1.07 C
2735 07-03-2004 19:08:01 4.2 C 80 % 1.07 C
2736 07-03-2004 19:20:59 4.2 C 80 % 1.07 C
2737 07-03-2004 19:32:57 4.2 C 81 % 1.24 C
2738 07-03-2004 19:44:01 4.2 C 81 % 1.24 C
2739 07-03-2004 19:56:01 4.1 C 81 % 1.14 C
2740 07-03-2004 20:08:01 3.9 C 81 % 0.95 C
2741 07-03-2004 20:20:01 3.6 C 81 % 0.65 C
2742 07-03-2004 20:32:01 3.6 C 82 % 0.82 C
2743 07-03-2004 20:44:01 3.5 C 82 % 0.72 C
2744 07-03-2004 20:56:00 3.6 C 83 % 0.99 C
2745 07-03-2004 21:08:00 3.6 C 82 % 0.82 C
2746 07-03-2004 21:20:59 3.7 C 82 % 0.92 C
2747 07-03-2004 21:32:58 3.8 C 82 % 1.02 C
2748 07-03-2004 21:44:01 3.6 C 82 % 0.82 C
2749 07-03-2004 21:56:01 3.2 C 81 % 0.26 C
2750 07-03-2004 22:08:00 3.1 C 81 % 0.16 C
Sensor: Nr:Datum:Temp:Feuchte:Taupunkt:
Aussen-T/F 2751 07-03-2004 22:20:00 3.1 C 81 % 0.16 C
2752 07-03-2004 22:32:00 3.1 C 82 % 0.33 C
2753 07-03-2004 22:44:00 3.1 C 82 % 0.33 C
2754 07-03-2004 22:56:01 3.2 C 83 % 0.6 C
2755 07-03-2004 23:08:01 3.4 C 83 % 0.79 C
2756 07-03-2004 23:20:01 3.5 C 83 % 0.89 C
2757 07-03-2004 23:32:01 3.5 C 82 % 0.72 C
2758 07-03-2004 23:44:01 3.4 C 82 % 0.63 C
2759 07-03-2004 23:56:01 3.3 C 82 % 0.53 C
2760 08-03-2004 00:08:01 3.2 C 82 % 0.43 C
2761 08-03-2004 00:20:01 3.3 C 82 % 0.53 C
2762 08-03-2004 00:32:01 3.2 C 81 % 0.26 C
2763 08-03-2004 00:44:01 3 C 81 % 0.07 C
2764 08-03-2004 00:56:00 3.1 C 81 % 0.16 C
2765 08-03-2004 01:08:59 3 C 81 % 0.07 C
2766 08-03-2004 01:20:58 3.2 C 81 % 0.26 C
2767 08-03-2004 01:32:57 3.1 C 81 % 0.16 C
2768 08-03-2004 01:44:01 3.1 C 81 % 0.16 C
2769 08-03-2004 01:56:01 3.1 C 80 % -0.01 C
2770 08-03-2004 02:08:01 3.1 C 80 % -0.01 C
2771 08-03-2004 02:20:01 3.2 C 80 % 0.09 C
2772 08-03-2004 02:32:00 3.2 C 80 % 0.09 C
2773 08-03-2004 02:44:00 3.2 C 80 % 0.09 C
2774 08-03-2004 02:57:03 3.1 C 80 % -0.01 C
2775 08-03-2004 03:09:03 3 C 80 % -0.1 C
Sensor: Nr:Datum:Temp:Feuchte:Taupunkt:
Aussen-T/F 2776 08-03-2004 03:21:03 3.1 C 81 % 0.16 C
2777 08-03-2004 03:33:00 3.1 C 81 % 0.16 C
2778 08-03-2004 03:45:00 3.1 C 81 % 0.16 C
2779 08-03-2004 03:57:00 3.1 C 81 % 0.16 C
2780 08-03-2004 04:09:00 3.1 C 81 % 0.16 C
2781 08-03-2004 04:21:59 2.8 C 82 % 0.04 C
2782 08-03-2004 04:33:58 3 C 82 % 0.24 C
2783 08-03-2004 04:45:01 2.9 C 82 % 0.14 C
2784 08-03-2004 04:57:01 2.8 C 82 % 0.04 C
2785 08-03-2004 05:09:00 2.9 C 83 % 0.31 C
2786 08-03-2004 05:21:00 3.1 C 82 % 0.33 C
2787 08-03-2004 05:33:00 3.1 C 82 % 0.33 C
2788 08-03-2004 05:45:01 3.1 C 82 % 0.33 C
2789 08-03-2004 05:57:01 2.9 C 83 % 0.31 C
2790 08-03-2004 06:09:01 3.1 C 82 % 0.33 C
2791 08-03-2004 06:21:01 2.8 C 82 % 0.04 C
2792 08-03-2004 06:33:01 2.8 C 83 % 0.21 C
2793 08-03-2004 06:45:01 2.8 C 82 % 0.04 C
2794 08-03-2004 06:57:01 2.8 C 81 % -0.13 C
2795 08-03-2004 07:09:01 2.7 C 80 % -0.4 C
2796 08-03-2004 07:21:01 2.7 C 78 % -0.74 C
2797 08-03-2004 07:33:01 2.5 C 75 % -1.47 C
2798 08-03-2004 07:45:01 2.4 C 74 % -1.75 C
2799 08-03-2004 07:57:01 2.3 C 72 % -2.22 C
2800 08-03-2004 08:09:00 2.2 C 71 % -2.5 C
Sensor: Nr:Datum:Temp:Feuchte:Taupunkt:
Aussen-T/F 2801 08-03-2004 08:21:59 2.3 C 71 % -2.4 C
2802 08-03-2004 08:33:58 2.2 C 70 % -2.69 C
2803 08-03-2004 08:45:01 2.3 C 70 % -2.59 C
2804 08-03-2004 08:57:01 2.4 C 69 % -2.69 C
2805 08-03-2004 09:09:01 2.4 C 68 % -2.89 C
2806 08-03-2004 09:21:01 2.4 C 66 % -3.29 C
2807 08-03-2004 09:33:01 2.4 C 65 % -3.49 C
2808 08-03-2004 09:45:00 2.4 C 65 % -3.49 C
2809 08-03-2004 09:57:00 2.6 C 65 % -3.3 C
2810 08-03-2004 10:09:00 3.1 C 64 % -3.03 C
2811 08-03-2004 10:21:58 3.4 C 60 % -3.61 C
2812 08-03-2004 10:33:57 3.6 C 60 % -3.42 C
2813 08-03-2004 10:45:01 3.6 C 58 % -3.87 C
2814 08-03-2004 10:57:01 3.5 C 57 % -4.2 C
2815 08-03-2004 11:09:01 3.7 C 58 % -3.78 C
2816 08-03-2004 11:21:01 4 C 52 % -4.95 C
2817 08-03-2004 11:33:01 4.3 C 52 % -4.67 C
2818 08-03-2004 11:45:01 4 C 50 % -5.46 C
2819 08-03-2004 11:57:01 4 C 48 % -6 C
2820 08-03-2004 12:09:00 4.6 C 48 % -5.45 C
2821 08-03-2004 12:21:58 4.6 C 48 % -5.45 C
2822 08-03-2004 12:33:57 5.1 C 46 % -5.54 C
2823 08-03-2004 12:45:01 5.2 C 42 % -6.64 C
2824 08-03-2004 12:57:01 5 C 42 % -6.82 C
2825 08-03-2004 13:09:01 5.5 C 40 % -7 C
Sensor: Nr:Datum:Temp:Feuchte:Taupunkt:
Aussen-T/F 2826 08-03-2004 13:21:01 6.3 C 40 % -6.28 C
2827 08-03-2004 13:33:01 6 C 39 % -6.88 C
2828 08-03-2004 13:45:00 6.1 C 37 % -7.47 C
2829 08-03-2004 13:57:00 6.5 C 35 % -7.83 C
2830 08-03-2004 14:09:59 7 C 33 % -8.15 C
2831 08-03-2004 14:21:58 7.2 C 31 % -8.77 C
2832 08-03-2004 14:33:57 7.6 C 32 % -8.01 C
2833 08-03-2004 14:45:01 7.9 C 30 % -8.58 C
2834 08-03-2004 14:57:01 8.7 C 30 % -7.88 C
2835 08-03-2004 15:09:01 8.9 C 26 % -9.53 C
2836 08-03-2004 15:21:01 9 C 26 % -9.45 C
2837 08-03-2004 15:33:01 9.2 C 20 % -12.56 C
2838 08-03-2004 15:45:01 9 C 20 % -12.72 C
2839 08-03-2004 15:57:01 9.5 C 20 % -12.31 C
2840 08-03-2004 16:09:01 9.8 C 20 % -12.06 C
2841 08-03-2004 16:21:01 9.2 C 20 % -12.56 C
2842 08-03-2004 16:33:01 9.5 C 20 % -12.31 C
2843 08-03-2004 16:45:01 8.7 C 20 % -12.97 C
2844 08-03-2004 16:57:01 8.7 C 20 % -12.97 C
2845 08-03-2004 17:09:00 8.9 C 23 % -11.07 C
2846 08-03-2004 17:21:59 7.9 C 23 % -11.92 C
2847 08-03-2004 17:33:58 7.6 C 25 % -11.14 C
2848 08-03-2004 17:45:00 7.5 C 20 % -13.97 C
2849 08-03-2004 17:57:00 7.1 C 20 % -14.3 C
2850 08-03-2004 18:09:00 6.2 C 26 % -11.85 C
Sensor: Nr:Datum:Temp:Feuchte:Taupunkt:
Aussen-T/F 2851 08-03-2004 18:21:58 5.4 C 31 % -10.34 C
2852 08-03-2004 18:33:57 5.1 C 34 % -9.44 C
2853 08-03-2004 18:45:01 4.6 C 37 % -8.81 C
2854 08-03-2004 18:57:01 4.4 C 39 % -8.32 C
2855 08-03-2004 19:09:01 4.3 C 39 % -8.41 C
2856 08-03-2004 19:21:01 4.2 C 40 % -8.17 C
2857 08-03-2004 19:33:02 4 C 41 % -8.04 C
2858 08-03-2004 19:45:00 3.8 C 43 % -7.61 C
2859 08-03-2004 19:57:00 3.6 C 45 % -7.2 C
2860 08-03-2004 20:09:00 3.4 C 46 % -7.1 C
2861 08-03-2004 20:21:58 3.2 C 48 % -6.73 C
2862 08-03-2004 20:33:57 3 C 49 % -6.65 C
2863 08-03-2004 20:45:01 2.8 C 50 % -6.57 C
2864 08-03-2004 20:57:01 2.5 C 54 % -5.85 C
2865 08-03-2004 21:09:01 2.4 C 54 % -5.94 C
2866 08-03-2004 21:21:01 2.1 C 56 % -5.74 C
2867 08-03-2004 21:33:01 1.8 C 58 % -5.57 C
2868 08-03-2004 21:45:00 1.6 C 58 % -5.75 C
2869 08-03-2004 21:57:00 1.5 C 61 % -5.19 C
2870 08-03-2004 22:09:00 1.3 C 61 % -5.37 C
2871 08-03-2004 22:21:58 1.3 C 60 % -5.59 C
2872 08-03-2004 22:33:57 1.4 C 59 % -5.72 C
2873 08-03-2004 22:45:01 1.4 C 60 % -5.5 C
2874 08-03-2004 22:57:01 1.3 C 60 % -5.59 C
2875 08-03-2004 23:09:01 1.3 C 60 % -5.59 C
Sensor: Nr:Datum:Temp:Feuchte:Taupunkt:
Aussen-T/F 2876 08-03-2004 23:21:01 1.3 C 61 % -5.37 C
2877 08-03-2004 23:33:01 1.4 C 61 % -5.28 C
2878 08-03-2004 23:45:01 1.4 C 61 % -5.28 C
2879 08-03-2004 23:57:01 1.7 C 62 % -4.78 C
2880 09-03-2004 00:09:01 1.6 C 61 % -5.09 C
2881 09-03-2004 00:21:01 1.5 C 61 % -5.19 C
2882 09-03-2004 00:33:01 1.2 C 63 % -5.05 C
2883 09-03-2004 00:45:00 1.2 C 64 % -4.84 C
2884 09-03-2004 00:57:00 1.5 C 64 % -4.55 C
2885 09-03-2004 01:09:00 1.1 C 67 % -4.33 C
2886 09-03-2004 01:21:59 1 C 74 % -3.1 C
2887 09-03-2004 01:33:57 0.8 C 78 % -2.59 C
2888 09-03-2004 01:45:01 0.7 C 79 % -2.51 C
2889 09-03-2004 01:57:01 0.8 C 81 % -2.08 C
2890 09-03-2004 02:09:01 1.1 C 81 % -1.79 C
2891 09-03-2004 02:21:01 1.2 C 83 % -1.36 C
2892 09-03-2004 02:33:01 1.2 C 82 % -1.52 C
2893 09-03-2004 02:46:01 1.1 C 82 % -1.62 C
2894 09-03-2004 02:58:01 1.2 C 82 % -1.52 C
2895 09-03-2004 03:10:00 1 C 81 % -1.88 C
2896 09-03-2004 03:22:00 1.1 C 82 % -1.62 C
2897 09-03-2004 03:34:01 1 C 82 % -1.72 C
2898 09-03-2004 03:46:01 1.2 C 82 % -1.52 C
2899 09-03-2004 03:58:01 1.3 C 82 % -1.43 C
2900 09-03-2004 04:10:00 1 C 81 % -1.88 C
Sensor: Nr:Datum:Temp:Feuchte:Taupunkt:
Aussen-T/F 2901 09-03-2004 04:22:00 0.4 C 81 % -2.47 C
2902 09-03-2004 04:34:00 0.3 C 82 % -2.4 C
2903 09-03-2004 04:46:01 0.3 C 83 % -2.24 C
2904 09-03-2004 04:58:01 0.3 C 84 % -2.08 C
2905 09-03-2004 05:10:01 0.4 C 84 % -1.98 C
2906 09-03-2004 05:22:01 0.4 C 84 % -1.98 C
2907 09-03-2004 05:34:00 0.4 C 84 % -1.98 C
2908 09-03-2004 05:46:01 0.4 C 84 % -1.98 C
2909 09-03-2004 05:58:01 0.3 C 81 % -2.57 C
2910 09-03-2004 06:10:01 0.3 C 80 % -2.73 C
2911 09-03-2004 06:22:01 0.3 C 80 % -2.73 C
2912 09-03-2004 06:34:01 0.2 C 80 % -2.83 C
2913 09-03-2004 06:46:00 0.1 C 81 % -2.76 C
2914 09-03-2004 06:58:00 0 C 80 % -3.03 C
2915 09-03-2004 07:10:00 0 C 80 % -3.03 C
2916 09-03-2004 07:22:58 0.1 C 81 % -2.76 C
2917 09-03-2004 07:34:57 0.1 C 80 % -2.93 C
2918 09-03-2004 07:46:01 0.2 C 80 % -2.83 C
2919 09-03-2004 07:58:01 0.2 C 80 % -2.83 C
2920 09-03-2004 08:10:01 0.2 C 80 % -2.83 C
2921 09-03-2004 08:22:01 0.4 C 80 % -2.64 C
2922 09-03-2004 08:34:01 0.5 C 80 % -2.54 C
2923 09-03-2004 08:46:01 0.4 C 79 % -2.81 C
2924 09-03-2004 08:58:01 0.2 C 79 % -3 C
2925 09-03-2004 09:10:01 0 C 79 % -3.2 C
Sensor: Nr:Datum:Temp:Feuchte:Taupunkt:
Aussen-T/F 2926 09-03-2004 09:22:01 0 C 78 % -3.37 C
2927 09-03-2004 09:34:01 0.2 C 75 % -3.69 C
2928 09-03-2004 09:46:00 0.5 C 73 % -3.76 C
2929 09-03-2004 09:58:00 0.7 C 70 % -4.13 C
2930 09-03-2004 10:10:00 1.2 C 65 % -4.63 C
2931 09-03-2004 10:22:59 1.6 C 63 % -4.67 C
2932 09-03-2004 10:34:58 2.2 C 58 % -5.19 C
2933 09-03-2004 10:46:01 2 C 56 % -5.84 C
2934 09-03-2004 10:58:01 1.8 C 58 % -5.57 C
2935 09-03-2004 11:10:01 1.7 C 56 % -6.12 C
2936 09-03-2004 11:22:01 2.1 C 55 % -5.98 C
2937 09-03-2004 11:34:01 2.4 C 53 % -6.18 C
2938 09-03-2004 11:46:00 2.8 C 49 % -6.83 C
2939 09-03-2004 11:58:00 2.9 C 51 % -6.22 C
2940 09-03-2004 12:10:00 4 C 51 % -5.2 C
2941 09-03-2004 12:22:58 4 C 46 % -6.55 C
2942 09-03-2004 12:34:57 4 C 48 % -6 C
2943 09-03-2004 12:46:01 4.1 C 47 % -6.18 C
2944 09-03-2004 12:58:01 4 C 47 % -6.27 C
2945 09-03-2004 13:10:01 3.9 C 49 % -5.82 C
2946 09-03-2004 13:22:01 4.3 C 47 % -6 C
2947 09-03-2004 13:34:01 4.7 C 44 % -6.49 C
2948 09-03-2004 13:46:00 4.7 C 41 % -7.4 C
2949 09-03-2004 13:58:00 4.8 C 43 % -6.7 C
2950 09-03-2004 14:10:59 4.7 C 42 % -7.09 C
Sensor: Nr:Datum:Temp:Feuchte:Taupunkt:
Aussen-T/F 2951 09-03-2004 14:22:58 4.8 C 43 % -6.7 C
2952 09-03-2004 14:34:57 4.9 C 43 % -6.61 C
2953 09-03-2004 14:46:01 4.8 C 43 % -6.7 C
2954 09-03-2004 14:58:01 5.1 C 42 % -6.73 C
2955 09-03-2004 15:10:01 5.1 C 40 % -7.36 C
2956 09-03-2004 15:22:01 4.8 C 39 % -7.96 C
2957 09-03-2004 15:34:01 4.6 C 41 % -7.49 C
2958 09-03-2004 15:46:01 4.5 C 41 % -7.58 C
2959 09-03-2004 15:58:01 4.5 C 40 % -7.9 C
2960 09-03-2004 16:10:01 4.8 C 39 % -7.96 C
2961 09-03-2004 16:22:01 5 C 37 % -8.45 C
2962 09-03-2004 16:34:01 4.7 C 38 % -8.38 C
2963 09-03-2004 16:46:01 4.3 C 38 % -8.74 C
2964 09-03-2004 16:58:01 4.5 C 39 % -8.23 C
2965 09-03-2004 17:10:00 4.4 C 41 % -7.68 C
2966 09-03-2004 17:22:58 3.9 C 40 % -8.44 C
2967 09-03-2004 17:34:57 3.8 C 40 % -8.53 C
2968 09-03-2004 17:46:01 3.6 C 40 % -8.71 C
2969 09-03-2004 17:58:01 3.5 C 42 % -8.18 C
2970 09-03-2004 18:10:02 3.2 C 42 % -8.45 C
2971 09-03-2004 18:22:02 2.9 C 48 % -7.01 C
2972 09-03-2004 18:34:02 2.7 C 46 % -7.74 C
2973 09-03-2004 18:46:03 2.4 C 48 % -7.47 C
2974 09-03-2004 18:58:03 2.2 C 49 % -7.39 C
2975 09-03-2004 19:10:01 2 C 50 % -7.31 C
Sensor: Nr:Datum:Temp:Feuchte:Taupunkt:
Aussen-T/F 2976 09-03-2004 19:22:59 1.7 C 52 % -7.08 C
2977 09-03-2004 19:34:58 1.3 C 53 % -7.21 C
2978 09-03-2004 19:46:02 1 C 54 % -7.24 C
2979 09-03-2004 19:58:02 0.7 C 58 % -6.6 C
2980 09-03-2004 20:10:01 0.4 C 59 % -6.66 C
2981 09-03-2004 20:22:01 0.3 C 61 % -6.32 C
2982 09-03-2004 20:34:01 0.1 C 62 % -6.3 C
2983 09-03-2004 20:46:01 0.1 C 63 % -6.09 C
2984 09-03-2004 20:58:01 0.1 C 64 % -5.88 C
2985 09-03-2004 21:10:01 -0.2 C 65 % -5.97 C
2986 09-03-2004 21:22:01 -0.3 C 65 % -6.07 C
2987 09-03-2004 21:34:01 -0.4 C 66 % -5.96 C
2988 09-03-2004 21:46:00 -0.3 C 65 % -6.07 C
2989 09-03-2004 21:58:00 -0.3 C 64 % -6.27 C
2990 09-03-2004 22:10:00 -0.3 C 64 % -6.27 C
2991 09-03-2004 22:22:59 -0.3 C 65 % -6.07 C
2992 09-03-2004 22:34:57 -0.2 C 65 % -5.97 C
2993 09-03-2004 22:46:01 -0.4 C 65 % -6.16 C
2994 09-03-2004 22:58:01 -0.4 C 66 % -5.96 C
2995 09-03-2004 23:10:01 -0.5 C 66 % -6.06 C
2996 09-03-2004 23:22:01 -0.6 C 66 % -6.16 C
2997 09-03-2004 23:34:01 -0.8 C 67 % -6.15 C
2998 09-03-2004 23:46:00 -0.7 C 68 % -5.86 C
2999 09-03-2004 23:58:00 -0.9 C 68 % -6.05 C
3000 10-03-2004 00:09:59 -0.6 C 69 % -5.57 C
Sensor: Nr:Datum:Temp:Feuchte:Taupunkt:
Aussen-T/F 3001 10-03-2004 00:22:58 -0.6 C 69 % -5.57 C
3002 10-03-2004 00:34:57 -0.7 C 69 % -5.67 C
3003 10-03-2004 00:46:01 -0.7 C 69 % -5.67 C
3004 10-03-2004 00:58:01 -0.5 C 70 % -5.29 C
3005 10-03-2004 01:10:01 -0.5 C 68 % -5.67 C
3006 10-03-2004 01:22:01 -0.7 C 69 % -5.67 C
3007 10-03-2004 01:34:01 -0.8 C 70 % -5.58 C
3008 10-03-2004 01:46:01 -0.7 C 71 % -5.29 C
3009 10-03-2004 01:58:01 -0.5 C 71 % -5.1 C
3010 10-03-2004 02:10:01 -0.4 C 71 % -5.01 C
3011 10-03-2004 02:22:01 -0.3 C 71 % -4.91 C
3012 10-03-2004 02:34:01 -0.2 C 71 % -4.81 C
3013 10-03-2004 02:47:01 -0.2 C 71 % -4.81 C
3014 10-03-2004 02:59:01 -0.2 C 72 % -4.63 C
3015 10-03-2004 03:11:00 -0.2 C 72 % -4.63 C
3016 10-03-2004 03:23:00 -0.2 C 74 % -4.26 C
3017 10-03-2004 03:35:01 -0.3 C 74 % -4.36 C
3018 10-03-2004 03:47:01 -0.3 C 76 % -4.01 C
3019 10-03-2004 03:59:01 -0.3 C 76 % -4.01 C
3020 10-03-2004 04:11:01 -0.2 C 76 % -3.91 C
3021 10-03-2004 04:23:00 -0.3 C 76 % -4.01 C
3022 10-03-2004 04:35:00 -0.2 C 77 % -3.74 C
3023 10-03-2004 04:47:01 -0.2 C 78 % -3.56 C
3024 10-03-2004 04:59:01 -0.3 C 78 % -3.66 C
3025 10-03-2004 05:11:01 -0.2 C 79 % -3.39 C
Sensor: Nr:Datum:Temp:Feuchte:Taupunkt:
Aussen-T/F 3026 10-03-2004 05:23:01 -0.3 C 79 % -3.49 C
3027 10-03-2004 05:35:01 -0.4 C 79 % -3.59 C
3028 10-03-2004 05:47:01 -0.4 C 79 % -3.59 C
3029 10-03-2004 05:59:01 -0.4 C 79 % -3.59 C
3030 10-03-2004 06:11:01 -0.4 C 79 % -3.59 C
3031 10-03-2004 06:23:01 -0.4 C 79 % -3.59 C
3032 10-03-2004 06:35:01 -0.4 C 79 % -3.59 C
3033 10-03-2004 06:47:00 -0.3 C 79 % -3.49 C
3034 10-03-2004 06:59:00 -0.3 C 79 % -3.49 C
3035 10-03-2004 07:11:00 -0.3 C 78 % -3.66 C
3036 10-03-2004 07:23:58 -0.4 C 78 % -3.76 C
3037 10-03-2004 07:35:57 -0.3 C 78 % -3.66 C
3038 10-03-2004 07:47:02 -0.3 C 78 % -3.66 C
3039 10-03-2004 07:59:02 -0.2 C 79 % -3.39 C
3040 10-03-2004 08:11:01 0 C 79 % -3.2 C
3041 10-03-2004 08:23:01 0 C 79 % -3.2 C
3042 10-03-2004 08:35:01 0.1 C 79 % -3.1 C
3043 10-03-2004 08:47:00 0.2 C 79 % -3 C
3044 10-03-2004 08:59:00 0.4 C 78 % -2.98 C
3045 10-03-2004 09:11:00 0.6 C 77 % -2.96 C
3046 10-03-2004 09:23:58 0.7 C 77 % -2.86 C
3047 10-03-2004 09:35:57 0.7 C 75 % -3.21 C
3048 10-03-2004 09:47:01 1 C 74 % -3.1 C
3049 10-03-2004 09:59:01 1 C 74 % -3.1 C
3050 10-03-2004 10:11:01 1.1 C 74 % -3 C
Sensor: Nr:Datum:Temp:Feuchte:Taupunkt:
Aussen-T/F 3051 10-03-2004 10:23:01 1.1 C 73 % -3.19 C
3052 10-03-2004 10:35:01 1.2 C 73 % -3.09 C
3053 10-03-2004 10:47:01 1.2 C 73 % -3.09 C
3054 10-03-2004 10:59:01 1.2 C 74 % -2.91 C
3055 10-03-2004 11:11:01 1.6 C 75 % -2.34 C
3056 10-03-2004 11:23:01 1.8 C 74 % -2.33 C
3057 10-03-2004 11:35:01 1.9 C 73 % -2.41 C
3058 10-03-2004 11:47:00 1.9 C 73 % -2.41 C
3059 10-03-2004 11:59:00 1.9 C 74 % -2.23 C
3060 10-03-2004 12:11:00 1.9 C 75 % -2.05 C
3061 10-03-2004 12:23:59 2.2 C 73 % -2.13 C
3062 10-03-2004 12:35:58 2 C 72 % -2.5 C
3063 10-03-2004 12:47:01 1.7 C 74 % -2.42 C
3064 10-03-2004 12:59:01 2 C 74 % -2.13 C
3065 10-03-2004 13:11:02 2 C 73 % -2.32 C
3066 10-03-2004 13:23:01 2.3 C 74 % -1.85 C
3067 10-03-2004 13:35:01 2.4 C 73 % -1.93 C
3068 10-03-2004 13:47:00 2.2 C 72 % -2.31 C
3069 10-03-2004 13:59:00 2.4 C 70 % -2.5 C
3070 10-03-2004 14:11:00 2.7 C 68 % -2.6 C
3071 10-03-2004 14:23:58 2.3 C 70 % -2.59 C
3072 10-03-2004 14:35:57 2.5 C 71 % -2.21 C
3073 10-03-2004 14:47:01 2.8 C 71 % -1.92 C
3074 10-03-2004 14:59:01 3.4 C 67 % -2.13 C
3075 10-03-2004 15:11:01 3.6 C 66 % -2.14 C
Sensor: Nr:Datum:Temp:Feuchte:Taupunkt:
Aussen-T/F 3076 10-03-2004 15:23:01 3.4 C 66 % -2.33 C
3077 10-03-2004 15:35:01 3.2 C 66 % -2.53 C
3078 10-03-2004 15:47:00 3.2 C 66 % -2.53 C
3079 10-03-2004 15:59:00 3.4 C 66 % -2.33 C
3080 10-03-2004 16:11:59 3.2 C 66 % -2.53 C
3081 10-03-2004 16:23:58 3 C 66 % -2.72 C
3082 10-03-2004 16:35:57 3 C 67 % -2.51 C
3083 10-03-2004 16:47:01 3.2 C 67 % -2.32 C
3084 10-03-2004 16:59:01 2.7 C 68 % -2.6 C
3085 10-03-2004 17:11:01 2.2 C 71 % -2.5 C
3086 10-03-2004 17:23:01 2.2 C 74 % -1.94 C
3087 10-03-2004 17:35:00 2.2 C 74 % -1.94 C
3088 10-03-2004 17:47:01 2.1 C 75 % -1.86 C
3089 10-03-2004 17:59:01 2 C 75 % -1.95 C
3090 10-03-2004 18:11:01 1.8 C 76 % -1.97 C
3091 10-03-2004 18:23:01 1.7 C 77 % -1.89 C
3092 10-03-2004 18:35:01 1.4 C 78 % -2.01 C
3093 10-03-2004 18:47:00 1.3 C 79 % -1.93 C
3094 10-03-2004 18:59:00 1.3 C 79 % -1.93 C
3095 10-03-2004 19:11:00 1.3 C 79 % -1.93 C
3096 10-03-2004 19:23:01 1.2 C 79 % -2.03 C
3097 10-03-2004 19:35:00 1.2 C 80 % -1.86 C
3098 10-03-2004 19:47:01 1.2 C 80 % -1.86 C
3099 10-03-2004 19:59:01 1.3 C 81 % -1.59 C
3100 10-03-2004 20:11:02 1.4 C 81 % -1.49 C
Sensor: Nr:Datum:Temp:Feuchte:Taupunkt:
Aussen-T/F 3101 10-03-2004 20:23:01 1.1 C 80 % -1.96 C
3102 10-03-2004 20:35:01 0.7 C 80 % -2.34 C
3103 10-03-2004 20:47:01 0.5 C 81 % -2.37 C
3104 10-03-2004 20:59:01 0.5 C 82 % -2.21 C
3105 10-03-2004 21:11:00 0.6 C 82 % -2.11 C
3106 10-03-2004 21:23:59 0.7 C 82 % -2.01 C
3107 10-03-2004 21:35:58 0.6 C 83 % -1.95 C
3108 10-03-2004 21:47:01 0.6 C 84 % -1.78 C
3109 10-03-2004 21:59:01 0.5 C 84 % -1.88 C
3110 10-03-2004 22:11:01 0.6 C 85 % -1.62 C
3111 10-03-2004 22:23:01 0.7 C 85 % -1.53 C
3112 10-03-2004 22:35:01 0.7 C 85 % -1.53 C
3113 10-03-2004 22:47:00 0.6 C 84 % -1.78 C
3114 10-03-2004 22:59:00 0.5 C 84 % -1.88 C
3115 10-03-2004 23:11:00 0.3 C 84 % -2.08 C
3116 10-03-2004 23:23:58 0.2 C 84 % -2.18 C
3117 10-03-2004 23:35:57 -0.2 C 84 % -2.57 C
3118 10-03-2004 23:47:01 -0.3 C 84 % -2.67 C
3119 10-03-2004 23:59:01 -0.3 C 84 % -2.67 C
3120 11-03-2004 00:11:01 -0.4 C 84 % -2.77 C
3121 11-03-2004 00:23:01 -0.7 C 83 % -3.22 C
3122 11-03-2004 00:35:01 -0.8 C 83 % -3.32 C
3123 11-03-2004 00:47:01 -1 C 83 % -3.51 C
3124 11-03-2004 00:59:01 -1.1 C 83 % -3.61 C
3125 11-03-2004 01:11:01 -1.1 C 83 % -3.61 C
Sensor: Nr:Datum:Temp:Feuchte:Taupunkt:
Aussen-T/F 3126 11-03-2004 01:23:01 -1.3 C 83 % -3.81 C
3127 11-03-2004 01:35:01 -1.3 C 84 % -3.65 C
3128 11-03-2004 01:47:00 -1.3 C 83 % -3.81 C
3129 11-03-2004 01:59:00 -1.3 C 83 % -3.81 C
3130 11-03-2004 02:11:00 -1.4 C 83 % -3.91 C
3131 11-03-2004 02:23:59 -1.1 C 84 % -3.45 C
3132 11-03-2004 02:35:57 -1 C 84 % -3.35 C
3133 11-03-2004 02:48:02 -0.8 C 85 % -3 C
3134 11-03-2004 03:00:02 -0.8 C 85 % -3 C
3135 11-03-2004 03:12:02 -0.8 C 84 % -3.16 C
3136 11-03-2004 03:24:02 -0.7 C 84 % -3.06 C
3137 11-03-2004 03:36:00 -0.7 C 84 % -3.06 C
3138 11-03-2004 03:48:00 -0.7 C 84 % -3.06 C
3139 11-03-2004 04:00:00 -0.7 C 84 % -3.06 C
3140 11-03-2004 04:12:59 -0.7 C 84 % -3.06 C
3141 11-03-2004 04:24:58 -0.7 C 84 % -3.06 C
3142 11-03-2004 04:36:57 -0.6 C 84 % -2.96 C
3143 11-03-2004 04:48:01 -0.7 C 84 % -3.06 C
3144 11-03-2004 05:00:01 -0.7 C 84 % -3.06 C
3145 11-03-2004 05:12:01 -0.7 C 84 % -3.06 C
3146 11-03-2004 05:24:01 -0.7 C 84 % -3.06 C
3147 11-03-2004 05:36:01 -0.7 C 84 % -3.06 C
3148 11-03-2004 05:48:01 -0.6 C 83 % -3.12 C
3149 11-03-2004 06:00:01 -0.7 C 83 % -3.22 C
3150 11-03-2004 06:12:01 -0.7 C 83 % -3.22 C
Sensor: Nr:Datum:Temp:Feuchte:Taupunkt:
Aussen-T/F 3151 11-03-2004 06:24:01 -0.6 C 83 % -3.12 C
3152 11-03-2004 06:36:01 -0.6 C 83 % -3.12 C
3153 11-03-2004 06:48:00 -0.6 C 83 % -3.12 C
3154 11-03-2004 07:00:00 -0.7 C 83 % -3.22 C
3155 11-03-2004 07:12:00 -0.7 C 82 % -3.38 C
3156 11-03-2004 07:24:59 -0.7 C 82 % -3.38 C
3157 11-03-2004 07:36:58 -0.7 C 82 % -3.38 C
3158 11-03-2004 07:48:01 -0.5 C 82 % -3.19 C
3159 11-03-2004 08:00:01 -0.5 C 82 % -3.19 C
3160 11-03-2004 08:12:01 -0.5 C 82 % -3.19 C
3161 11-03-2004 08:24:01 -0.3 C 82 % -2.99 C
3162 11-03-2004 08:36:01 -0.3 C 81 % -3.16 C
3163 11-03-2004 08:48:01 -0.1 C 81 % -2.96 C
3164 11-03-2004 09:00:01 -0.1 C 81 % -2.96 C
3165 11-03-2004 09:12:01 0 C 80 % -3.03 C
3166 11-03-2004 09:24:01 0.1 C 80 % -2.93 C
3167 11-03-2004 09:36:01 0.4 C 80 % -2.64 C
3168 11-03-2004 09:48:00 1 C 78 % -2.39 C
3169 11-03-2004 10:00:00 1.2 C 77 % -2.37 C
3170 11-03-2004 10:12:00 1.2 C 77 % -2.37 C
3171 11-03-2004 10:24:58 1.6 C 76 % -2.16 C
3172 11-03-2004 10:36:57 2 C 75 % -1.95 C
3173 11-03-2004 10:48:02 2 C 71 % -2.69 C
3174 11-03-2004 11:00:02 2.5 C 71 % -2.21 C
3175 11-03-2004 11:12:01 2.7 C 70 % -2.21 C
Sensor: Nr:Datum:Temp:Feuchte:Taupunkt:
Aussen-T/F 3176 11-03-2004 11:24:01 2.7 C 69 % -2.4 C
3177 11-03-2004 11:36:01 2.9 C 69 % -2.21 C
3178 11-03-2004 11:48:01 3.2 C 68 % -2.12 C
3179 11-03-2004 12:00:01 3.1 C 67 % -2.42 C
3180 11-03-2004 12:12:02 2.9 C 66 % -2.81 C
3181 11-03-2004 12:24:01 3.1 C 64 % -3.03 C
3182 11-03-2004 12:36:01 2.9 C 65 % -3.02 C
3183 11-03-2004 12:48:00 3.5 C 63 % -2.86 C
3184 11-03-2004 13:00:00 4 C 60 % -3.05 C
3185 11-03-2004 13:12:00 4.1 C 61 % -2.73 C
3186 11-03-2004 13:24:59 3.6 C 61 % -3.2 C
3187 11-03-2004 13:36:57 3.8 C 63 % -2.58 C
3188 11-03-2004 13:48:01 3.6 C 60 % -3.42 C
3189 11-03-2004 14:00:01 4.1 C 57 % -3.64 C
3190 11-03-2004 14:12:01 4.5 C 57 % -3.26 C
3191 11-03-2004 14:24:01 4.7 C 58 % -2.84 C
3192 11-03-2004 14:36:01 4.1 C 55 % -4.11 C
3193 11-03-2004 14:48:00 4.1 C 60 % -2.95 C
3194 11-03-2004 15:00:00 4.2 C 59 % -3.08 C
3195 11-03-2004 15:11:59 4.3 C 58 % -3.22 C
3196 11-03-2004 15:24:58 4.3 C 55 % -3.93 C
3197 11-03-2004 15:36:57 3.9 C 60 % -3.14 C
3198 11-03-2004 15:48:01 3.2 C 64 % -2.94 C
3199 11-03-2004 16:00:01 3.1 C 67 % -2.42 C
3200 11-03-2004 16:12:01 3 C 70 % -1.92 C
Sensor: Nr:Datum:Temp:Feuchte:Taupunkt:
Aussen-T/F 3201 11-03-2004 16:24:01 2.9 C 72 % -1.64 C
3202 11-03-2004 16:36:01 2.7 C 74 % -1.46 C
3203 11-03-2004 16:48:01 2.7 C 75 % -1.28 C
3204 11-03-2004 17:00:01 2.6 C 75 % -1.37 C
3205 11-03-2004 17:12:01 2.6 C 76 % -1.19 C
3206 11-03-2004 17:24:01 2.3 C 77 % -1.31 C
3207 11-03-2004 17:36:01 2.2 C 77 % -1.4 C
3208 11-03-2004 17:48:01 2.4 C 79 % -0.86 C
3209 11-03-2004 18:00:01 2.3 C 79 % -0.96 C
3210 11-03-2004 18:12:01 2.2 C 79 % -1.05 C
3211 11-03-2004 18:24:02 1.9 C 80 % -1.18 C
3212 11-03-2004 18:36:02 1.9 C 80 % -1.18 C
3213 11-03-2004 18:48:02 1.7 C 81 % -1.2 C
3214 11-03-2004 19:00:02 1.4 C 81 % -1.49 C
3215 11-03-2004 19:12:02 1.3 C 82 % -1.43 C
3216 11-03-2004 19:24:01 1.2 C 82 % -1.52 C
3217 11-03-2004 19:36:02 1.1 C 82 % -1.62 C
3218 11-03-2004 19:48:02 1.3 C 83 % -1.26 C
3219 11-03-2004 20:00:02 1.2 C 83 % -1.36 C
3220 11-03-2004 20:12:02 1.2 C 83 % -1.36 C
3221 11-03-2004 20:24:01 1.2 C 83 % -1.36 C
3222 11-03-2004 20:36:01 1.2 C 83 % -1.36 C
3223 11-03-2004 20:48:01 1.3 C 84 % -1.1 C
3224 11-03-2004 21:00:01 1.4 C 84 % -1 C
3225 11-03-2004 21:12:00 1.3 C 84 % -1.1 C
Sensor: Nr:Datum:Temp:Feuchte:Taupunkt:
Aussen-T/F 3226 11-03-2004 21:24:59 1.4 C 83 % -1.16 C
3227 11-03-2004 21:36:58 1.3 C 83 % -1.26 C
3228 11-03-2004 21:48:01 1.3 C 83 % -1.26 C
3229 11-03-2004 22:00:01 1.3 C 83 % -1.26 C
3230 11-03-2004 22:12:01 1.3 C 83 % -1.26 C
3231 11-03-2004 22:24:02 1.3 C 83 % -1.26 C
3232 11-03-2004 22:36:01 1.3 C 82 % -1.43 C
3233 11-03-2004 22:48:01 1.3 C 83 % -1.26 C
3234 11-03-2004 23:00:01 1.2 C 82 % -1.52 C
3235 11-03-2004 23:12:01 1.2 C 83 % -1.36 C
3236 11-03-2004 23:24:59 1.3 C 83 % -1.26 C
3237 11-03-2004 23:36:58 1.2 C 83 % -1.36 C
3238 11-03-2004 23:48:01 1.2 C 83 % -1.36 C
3239 12-03-2004 00:00:01 1.1 C 82 % -1.62 C
3240 12-03-2004 00:12:01 1.2 C 82 % -1.52 C
3241 12-03-2004 00:24:00 1.2 C 82 % -1.52 C
3242 12-03-2004 00:36:00 1.1 C 82 % -1.62 C
3243 12-03-2004 00:48:01 1.1 C 82 % -1.62 C
3244 12-03-2004 01:00:01 1 C 82 % -1.72 C
3245 12-03-2004 01:12:01 1 C 82 % -1.72 C
3246 12-03-2004 01:24:00 0.9 C 82 % -1.82 C
3247 12-03-2004 01:36:00 0.9 C 82 % -1.82 C
3248 12-03-2004 01:48:01 0.9 C 82 % -1.82 C
3249 12-03-2004 02:00:01 0.9 C 82 % -1.82 C
3250 12-03-2004 02:12:01 0.9 C 82 % -1.82 C
Sensor: Nr:Datum:Temp:Feuchte:Taupunkt:
Aussen-T/F 3251 12-03-2004 02:24:01 0.5 C 81 % -2.37 C
3252 12-03-2004 02:36:01 0.3 C 81 % -2.57 C
3253 12-03-2004 02:49:02 0.1 C 80 % -2.93 C
3254 12-03-2004 03:01:02 -0.4 C 80 % -3.42 C
3255 12-03-2004 03:13:02 -0.7 C 80 % -3.71 C
3256 12-03-2004 03:25:02 -0.9 C 81 % -3.74 C
3257 12-03-2004 03:37:00 -1 C 82 % -3.68 C
3258 12-03-2004 03:49:00 -1.2 C 82 % -3.87 C
3259 12-03-2004 04:01:00 -1.3 C 82 % -3.97 C
3260 12-03-2004 04:13:00 -1.2 C 83 % -3.71 C
3261 12-03-2004 04:25:59 -1.1 C 83 % -3.61 C
3262 12-03-2004 04:37:58 -1.1 C 83 % -3.61 C
3263 12-03-2004 04:49:01 -1 C 83 % -3.51 C
3264 12-03-2004 05:01:01 -1 C 84 % -3.35 C
3265 12-03-2004 05:13:01 -0.8 C 84 % -3.16 C
3266 12-03-2004 05:25:01 -0.7 C 84 % -3.06 C
3267 12-03-2004 05:37:00 -0.6 C 84 % -2.96 C
3268 12-03-2004 05:49:01 -0.4 C 83 % -2.93 C
3269 12-03-2004 06:01:01 -0.4 C 82 % -3.09 C
3270 12-03-2004 06:13:01 -0.6 C 81 % -3.45 C
3271 12-03-2004 06:25:01 -0.5 C 81 % -3.35 C
3272 12-03-2004 06:37:01 -0.4 C 81 % -3.25 C
3273 12-03-2004 06:49:00 -0.1 C 78 % -3.47 C
3274 12-03-2004 07:01:59 -0.1 C 77 % -3.64 C
3275 12-03-2004 07:12:59 -0.2 C 78 % -3.56 C
Sensor: Nr:Datum:Temp:Feuchte:Taupunkt:
Aussen-T/F 3276 12-03-2004 07:25:59 0 C 78 % -3.37 C
3277 12-03-2004 07:37:58 0 C 78 % -3.37 C
3278 12-03-2004 07:49:01 0.3 C 76 % -3.42 C
3279 12-03-2004 08:01:00 0.6 C 74 % -3.49 C
3280 12-03-2004 08:13:00 1 C 70 % -3.84 C
3281 12-03-2004 08:25:00 1.2 C 69 % -3.84 C
3282 12-03-2004 08:37:01 1.5 C 69 % -3.55 C
3283 12-03-2004 08:49:01 1.7 C 67 % -3.75 C
3284 12-03-2004 09:01:01 1.7 C 65 % -4.16 C
3285 12-03-2004 09:13:01 1.8 C 65 % -4.06 C
3286 12-03-2004 09:25:01 2.2 C 65 % -3.68 C
3287 12-03-2004 09:37:01 2.3 C 61 % -4.43 C
3288 12-03-2004 09:49:01 2.4 C 61 % -4.34 C
3289 12-03-2004 10:01:01 2.9 C 61 % -3.86 C
3290 12-03-2004 10:13:01 3.3 C 58 % -4.16 C
3291 12-03-2004 10:25:02 3.6 C 56 % -4.34 C
3292 12-03-2004 10:37:01 4.2 C 54 % -4.26 C
3293 12-03-2004 10:49:00 4.2 C 54 % -4.26 C
3294 12-03-2004 11:01:00 4.5 C 53 % -4.23 C
3295 12-03-2004 11:13:00 4.3 C 52 % -4.67 C
3296 12-03-2004 11:25:59 4.5 C 54 % -3.98 C
3297 12-03-2004 11:37:57 4.7 C 52 % -4.3 C
3298 12-03-2004 11:49:01 5.4 C 51 % -3.91 C
3299 12-03-2004 12:01:01 5.9 C 48 % -4.25 C
3300 12-03-2004 12:13:01 5.9 C 48 % -4.25 C
Sensor: Nr:Datum:Temp:Feuchte:Taupunkt:
Aussen-T/F 3301 12-03-2004 12:25:01 6 C 46 % -4.72 C
3302 12-03-2004 12:37:01 6 C 44 % -5.31 C
3303 12-03-2004 12:49:00 6.7 C 43 % -4.97 C
3304 12-03-2004 13:01:00 6.5 C 43 % -5.16 C
3305 12-03-2004 13:13:00 6.2 C 43 % -5.43 C
3306 12-03-2004 13:25:58 6 C 44 % -5.31 C
3307 12-03-2004 13:37:57 6.2 C 45 % -4.83 C
3308 12-03-2004 13:49:01 6.3 C 43 % -5.34 C
3309 12-03-2004 14:01:01 6.5 C 42 % -5.46 C
3310 12-03-2004 14:13:01 6.6 C 43 % -5.07 C
3311 12-03-2004 14:25:01 6.3 C 43 % -5.34 C
3312 12-03-2004 14:37:01 6.3 C 43 % -5.34 C
3313 12-03-2004 14:49:02 6.6 C 44 % -4.76 C
3314 12-03-2004 15:01:01 6.5 C 45 % -4.56 C
3315 12-03-2004 15:13:01 6.4 C 45 % -4.65 C
3316 12-03-2004 15:25:01 6.5 C 44 % -4.85 C
3317 12-03-2004 15:37:02 6.5 C 43 % -5.16 C
3318 12-03-2004 15:49:01 6.4 C 42 % -5.56 C
3319 12-03-2004 16:01:01 6.2 C 42 % -5.74 C
3320 12-03-2004 16:13:01 6.2 C 42 % -5.74 C
3321 12-03-2004 16:25:01 6.2 C 41 % -6.05 C
3322 12-03-2004 16:37:01 6.2 C 41 % -6.05 C
3323 12-03-2004 16:49:00 6.2 C 43 % -5.43 C
3324 12-03-2004 17:01:00 5.9 C 47 % -4.53 C
3325 12-03-2004 17:13:00 5.8 C 48 % -4.34 C
Sensor: Nr:Datum:Temp:Feuchte:Taupunkt:
Aussen-T/F 3326 12-03-2004 17:25:59 5.7 C 49 % -4.16 C
3327 12-03-2004 17:37:58 5.9 C 49 % -3.98 C
3328 12-03-2004 17:49:01 5.9 C 49 % -3.98 C
3329 12-03-2004 18:01:01 5.9 C 50 % -3.71 C
3330 12-03-2004 18:13:01 5.9 C 51 % -3.44 C
3331 12-03-2004 18:25:01 5.9 C 52 % -3.19 C
3332 12-03-2004 18:37:00 5.9 C 54 % -2.68 C
3333 12-03-2004 18:49:01 5.9 C 55 % -2.43 C
3334 12-03-2004 19:01:01 5.7 C 59 % -1.67 C
3335 12-03-2004 19:13:01 5.6 C 62 % -1.09 C
3336 12-03-2004 19:25:01 5.6 C 62 % -1.09 C
3337 12-03-2004 19:37:01 5.8 C 62 % -0.9 C
3338 12-03-2004 19:49:01 5.8 C 62 % -0.9 C
3339 12-03-2004 20:01:02 5.5 C 66 % -0.33 C
3340 12-03-2004 20:13:02 5.5 C 67 % -0.13 C
3341 12-03-2004 20:25:02 5.7 C 68 % 0.27 C
3342 12-03-2004 20:37:01 5.7 C 69 % 0.47 C
3343 12-03-2004 20:49:02 5.8 C 69 % 0.56 C
3344 12-03-2004 21:01:01 5.9 C 68 % 0.46 C
3345 12-03-2004 21:13:01 6 C 67 % 0.35 C
3346 12-03-2004 21:25:02 6 C 67 % 0.35 C
3347 12-03-2004 21:37:02 6.1 C 67 % 0.44 C
3348 12-03-2004 21:49:01 6.1 C 67 % 0.44 C
3349 12-03-2004 22:01:00 6.2 C 67 % 0.54 C
3350 12-03-2004 22:13:00 6.2 C 67 % 0.54 C
Sensor: Nr:Datum:Temp:Feuchte:Taupunkt:
Aussen-T/F 3351 12-03-2004 22:25:00 6.2 C 68 % 0.75 C
3352 12-03-2004 22:37:58 6.1 C 68 % 0.65 C
3353 12-03-2004 22:49:01 6 C 69 % 0.76 C
3354 12-03-2004 23:01:01 6.1 C 69 % 0.85 C
3355 12-03-2004 23:13:01 6.2 C 69 % 0.95 C
3356 12-03-2004 23:25:01 6.1 C 69 % 0.85 C
3357 12-03-2004 23:37:01 6.1 C 70 % 1.05 C
3358 12-03-2004 23:49:00 6 C 70 % 0.95 C
3359 13-03-2004 00:01:00 6.4 C 70 % 1.34 C
3360 13-03-2004 00:13:00 6.3 C 70 % 1.24 C
3361 13-03-2004 00:25:59 6.4 C 71 % 1.54 C
3362 13-03-2004 00:37:57 6.3 C 71 % 1.44 C
3363 13-03-2004 00:49:01 6.2 C 72 % 1.54 C
3364 13-03-2004 01:01:01 6.3 C 72 % 1.63 C
3365 13-03-2004 01:13:01 6.3 C 72 % 1.63 C
3366 13-03-2004 01:25:01 6.3 C 72 % 1.63 C
3367 13-03-2004 01:37:01 6.4 C 72 % 1.73 C
3368 13-03-2004 01:49:01 6.4 C 73 % 1.92 C
3369 13-03-2004 02:01:01 6.4 C 72 % 1.73 C
3370 13-03-2004 02:13:01 6.4 C 73 % 1.92 C
3371 13-03-2004 02:25:01 6.6 C 72 % 1.92 C
3372 13-03-2004 02:37:01 6.7 C 72 % 2.02 C
3373 13-03-2004 02:50:01 6.8 C 72 % 2.12 C
3374 13-03-2004 03:02:01 6.8 C 72 % 2.12 C
3375 13-03-2004 03:14:00 7 C 70 % 1.91 C
Sensor: Nr:Datum:Temp:Feuchte:Taupunkt:
Aussen-T/F 3376 13-03-2004 03:26:00 7 C 70 % 1.91 C
3377 13-03-2004 03:38:01 6.9 C 72 % 2.21 C
3378 13-03-2004 03:50:01 7 C 71 % 2.11 C
3379 13-03-2004 04:02:01 7.1 C 70 % 2.01 C
3380 13-03-2004 04:14:01 7.2 C 70 % 2.11 C
3381 13-03-2004 04:26:00 7.3 C 70 % 2.2 C
3382 13-03-2004 04:38:00 7.4 C 69 % 2.1 C
3383 13-03-2004 04:50:01 7.4 C 69 % 2.1 C
3384 13-03-2004 05:02:01 7.6 C 69 % 2.29 C
3385 13-03-2004 05:14:01 7.5 C 69 % 2.19 C
3386 13-03-2004 05:26:01 7.6 C 69 % 2.29 C
3387 13-03-2004 05:38:01 7.6 C 70 % 2.49 C
3388 13-03-2004 05:50:00 7.6 C 70 % 2.49 C
3389 13-03-2004 06:02:59 7.5 C 71 % 2.59 C
3390 13-03-2004 06:14:58 7.3 C 72 % 2.6 C
3391 13-03-2004 06:26:58 7.2 C 73 % 2.69 C
3392 13-03-2004 06:38:57 7.2 C 74 % 2.89 C
3393 13-03-2004 06:50:01 7.2 C 74 % 2.89 C
3394 13-03-2004 07:02:01 7.3 C 74 % 2.98 C
3395 13-03-2004 07:14:01 7.4 C 74 % 3.08 C
3396 13-03-2004 07:26:01 7.5 C 73 % 2.98 C
3397 13-03-2004 07:38:00 7.5 C 73 % 2.98 C
3398 13-03-2004 07:50:01 7.8 C 73 % 3.27 C
3399 13-03-2004 08:02:01 7.9 C 72 % 3.17 C
3400 13-03-2004 08:14:01 8.1 C 71 % 3.17 C
Sensor: Nr:Datum:Temp:Feuchte:Taupunkt:
Aussen-T/F 3401 13-03-2004 08:26:01 8.4 C 70 % 3.26 C
3402 13-03-2004 08:38:01 8.9 C 68 % 3.32 C
3403 13-03-2004 08:50:01 9 C 66 % 3 C
3404 13-03-2004 09:02:03 9.3 C 66 % 3.28 C
3405 13-03-2004 09:14:03 9.5 C 66 % 3.47 C
3406 13-03-2004 09:26:58 9.7 C 65 % 3.45 C
3407 13-03-2004 09:38:58 9.8 C 65 % 3.54 C
3408 13-03-2004 09:50:01 10 C 63 % 3.29 C
3409 13-03-2004 10:02:01 10.1 C 63 % 3.39 C
3410 13-03-2004 10:14:01 10.1 C 62 % 3.16 C
3411 13-03-2004 10:26:02 10.1 C 61 % 2.93 C
3412 13-03-2004 10:38:03 10.2 C 61 % 3.03 C
3413 13-03-2004 10:50:01 10.4 C 60 % 2.98 C
3414 13-03-2004 11:02:01 10.5 C 59 % 2.84 C
3415 13-03-2004 11:14:01 10.8 C 58 % 2.88 C
3416 13-03-2004 11:26:01 11.1 C 55 % 2.41 C
3417 13-03-2004 11:38:01 11.3 C 54 % 2.34 C
3418 13-03-2004 11:50:01 11.4 C 52 % 1.91 C
3419 13-03-2004 12:02:00 11.6 C 50 % 1.54 C
3420 13-03-2004 12:14:00 11.7 C 49 % 1.36 C
3421 13-03-2004 12:26:59 11.8 C 48 % 1.16 C
3422 13-03-2004 12:38:58 11.9 C 48 % 1.25 C
3423 13-03-2004 12:50:01 12.1 C 45 % 0.54 C
3424 13-03-2004 13:02:01 12.5 C 45 % 0.91 C
3425 13-03-2004 13:14:01 12.5 C 43 % 0.28 C
Sensor: Nr:Datum:Temp:Feuchte:Taupunkt:
Aussen-T/F 3426 13-03-2004 13:26:00 12.7 C 43 % 0.46 C
3427 13-03-2004 13:38:00 13 C 41 % 0.07 C
3428 13-03-2004 13:50:01 12.7 C 41 % -0.2 C
3429 13-03-2004 14:02:01 12.6 C 40 % -0.62 C
3430 13-03-2004 14:14:01 12.5 C 41 % -0.38 C
3431 13-03-2004 14:26:01 12.4 C 42 % -0.14 C
3432 13-03-2004 14:38:01 12.6 C 42 % 0.04 C
3433 13-03-2004 14:50:01 12.5 C 46 % 1.21 C
3434 13-03-2004 15:02:01 12.9 C 47 % 1.87 C
3435 13-03-2004 15:14:01 12.7 C 47 % 1.69 C
3436 13-03-2004 15:26:00 12.9 C 46 % 1.57 C
3437 13-03-2004 15:38:00 12.6 C 45 % 1 C
3438 13-03-2004 15:50:01 12.5 C 45 % 0.91 C
3439 13-03-2004 16:02:01 12.7 C 45 % 1.09 C
3440 13-03-2004 16:14:01 12.7 C 44 % 0.78 C
3441 13-03-2004 16:26:01 12.9 C 43 % 0.64 C
3442 13-03-2004 16:38:08 12.8 C 42 % 0.22 C
3443 13-03-2004 16:50:02 12.9 C 40 % -0.36 C
3444 13-03-2004 17:02:01 12.6 C 40 % -0.62 C
3445 13-03-2004 17:14:01 12.4 C 40 % -0.8 C
3446 13-03-2004 17:26:02 12.4 C 41 % -0.47 C
3447 13-03-2004 17:38:02 12.7 C 39 % -0.88 C
3448 13-03-2004 17:50:01 12.2 C 40 % -0.98 C
3449 13-03-2004 18:02:01 11.9 C 40 % -1.25 C
3450 13-03-2004 18:14:01 11.5 C 41 % -1.28 C
Sensor: Nr:Datum:Temp:Feuchte:Taupunkt:
Aussen-T/F 3451 13-03-2004 18:26:01 11.2 C 45 % -0.28 C
3452 13-03-2004 18:38:01 10.7 C 47 % -0.14 C
3453 13-03-2004 18:50:01 10.4 C 48 % -0.12 C
3454 13-03-2004 19:02:01 10.1 C 50 % 0.16 C
3455 13-03-2004 19:14:01 9.8 C 50 % -0.11 C
3456 13-03-2004 19:26:00 9.7 C 51 % 0.07 C
3457 13-03-2004 19:38:00 9.2 C 52 % -0.13 C
3458 13-03-2004 19:50:02 9.1 C 54 % 0.3 C
3459 13-03-2004 20:02:02 8.8 C 56 % 0.52 C
3460 13-03-2004 20:14:02 8.6 C 57 % 0.58 C
3461 13-03-2004 20:26:01 8.4 C 58 % 0.63 C
3462 13-03-2004 20:38:01 8.3 C 58 % 0.54 C
3463 13-03-2004 20:50:00 8.3 C 57 % 0.3 C
3464 13-03-2004 21:13:59 8.2 C 57 % 0.2 C
3465 13-03-2004 21:14:58 8 C 58 % 0.25 C
3466 13-03-2004 21:26:58 7.9 C 60 % 0.63 C
3467 13-03-2004 21:38:57 7.8 C 60 % 0.53 C
3468 13-03-2004 21:50:01 7.7 C 60 % 0.44 C
3469 13-03-2004 22:02:01 7.7 C 59 % 0.21 C
3470 13-03-2004 22:14:01 7.7 C 58 % -0.03 C
3471 13-03-2004 22:26:01 7.7 C 58 % -0.03 C
3472 13-03-2004 22:38:01 7.5 C 58 % -0.21 C
3473 13-03-2004 22:50:00 7.4 C 58 % -0.31 C
3474 13-03-2004 23:02:58 7.4 C 58 % -0.31 C
3475 13-03-2004 23:14:57 7.1 C 61 % 0.1 C
Sensor: Nr:Datum:Temp:Feuchte:Taupunkt:
Aussen-T/F 3476 13-03-2004 23:26:57 7.3 C 59 % -0.17 C
3477 13-03-2004 23:38:57 7.2 C 60 % -0.03 C
3478 13-03-2004 23:50:01 7.2 C 59 % -0.26 C
3479 14-03-2004 00:02:01 7.1 C 59 % -0.36 C
3480 14-03-2004 00:14:01 7.1 C 60 % -0.13 C
3481 14-03-2004 00:26:01 7.1 C 60 % -0.13 C
3482 14-03-2004 00:38:01 7 C 60 % -0.22 C
3483 14-03-2004 00:50:01 6.9 C 61 % -0.09 C
3484 14-03-2004 01:02:01 6.8 C 62 % 0.04 C
3485 14-03-2004 01:14:01 6.7 C 63 % 0.17 C
3486 14-03-2004 01:26:01 6.6 C 64 % 0.29 C
3487 14-03-2004 01:38:01 6.5 C 65 % 0.41 C
3488 14-03-2004 01:50:01 6.4 C 65 % 0.31 C
3489 14-03-2004 02:02:01 6.3 C 65 % 0.22 C
3490 14-03-2004 02:14:01 6.2 C 65 % 0.12 C
3491 14-03-2004 02:26:01 6 C 66 % 0.14 C
3492 14-03-2004 02:38:00 5.9 C 68 % 0.46 C
3493 14-03-2004 02:51:03 5.7 C 69 % 0.47 C
3494 14-03-2004 03:03:03 5.5 C 69 % 0.28 C
3495 14-03-2004 03:15:02 5.3 C 71 % 0.48 C
3496 14-03-2004 03:27:02 5.1 C 71 % 0.29 C
3497 14-03-2004 03:39:00 4.8 C 72 % 0.19 C
3498 14-03-2004 03:51:00 4.7 C 73 % 0.28 C
3499 14-03-2004 04:03:00 4.7 C 73 % 0.28 C
3500 14-03-2004 04:15:59 4.7 C 73 % 0.28 C
Sensor: Nr:Datum:Temp:Feuchte:Taupunkt:
Aussen-T/F 3501 14-03-2004 04:27:59 4.9 C 74 % 0.67 C
3502 14-03-2004 04:39:58 4.7 C 74 % 0.47 C
3503 14-03-2004 04:51:01 5.2 C 74 % 0.95 C
3504 14-03-2004 05:03:00 5.5 C 73 % 1.06 C
3505 14-03-2004 05:15:00 5.5 C 72 % 0.86 C
3506 14-03-2004 05:27:00 5.5 C 72 % 0.86 C
3507 14-03-2004 05:39:00 5.5 C 72 % 0.86 C
3508 14-03-2004 05:51:01 5.4 C 72 % 0.77 C
3509 14-03-2004 06:03:01 5.4 C 72 % 0.77 C
3510 14-03-2004 06:15:01 5.6 C 72 % 0.96 C
3511 14-03-2004 06:27:01 5.8 C 73 % 1.34 C
3512 14-03-2004 06:39:00 5.8 C 72 % 1.15 C
3513 14-03-2004 06:51:01 5.9 C 73 % 1.44 C
3514 14-03-2004 07:03:01 6 C 72 % 1.35 C
3515 14-03-2004 07:15:01 6.2 C 72 % 1.54 C
3516 14-03-2004 07:27:01 6.8 C 73 % 2.31 C
3517 14-03-2004 07:39:01 7 C 68 % 1.51 C
3518 14-03-2004 07:51:00 6.9 C 68 % 1.41 C
3519 14-03-2004 08:03:00 7.2 C 69 % 1.9 C
3520 14-03-2004 08:15:58 7.5 C 68 % 1.99 C
3521 14-03-2004 08:27:58 7.5 C 68 % 1.99 C
3522 14-03-2004 08:39:57 7.7 C 67 % 1.97 C
3523 14-03-2004 08:51:01 7.8 C 67 % 2.07 C
3524 14-03-2004 09:03:01 8 C 65 % 1.83 C
3525 14-03-2004 09:15:01 8.2 C 64 % 1.81 C
Sensor: Nr:Datum:Temp:Feuchte:Taupunkt:
Aussen-T/F 3526 14-03-2004 09:27:01 8.4 C 63 % 1.78 C
3527 14-03-2004 09:39:02 8.6 C 62 % 1.74 C
3528 14-03-2004 09:51:02 8.8 C 61 % 1.71 C
3529 14-03-2004 10:03:01 9.1 C 59 % 1.52 C
3530 14-03-2004 10:15:01 9.2 C 58 % 1.38 C
3531 14-03-2004 10:27:01 9.1 C 58 % 1.29 C
3532 14-03-2004 10:39:01 9.4 C 57 % 1.33 C
3533 14-03-2004 10:51:00 9.6 C 56 % 1.27 C
3534 14-03-2004 11:03:00 9.6 C 55 % 1.02 C
3535 14-03-2004 11:15:59 10.1 C 52 % 0.7 C
3536 14-03-2004 11:27:59 10.2 C 51 % 0.53 C
3537 14-03-2004 11:39:57 10.7 C 50 % 0.72 C
3538 14-03-2004 11:51:01 10.8 C 48 % 0.24 C
3539 14-03-2004 12:03:01 10.8 C 47 % -0.04 C
3540 14-03-2004 12:15:01 11.6 C 45 % 0.09 C
3541 14-03-2004 12:27:01 12.3 C 41 % -0.56 C
3542 14-03-2004 12:39:01 12.3 C 40 % -0.89 C
3543 14-03-2004 12:51:00 12.4 C 39 % -1.15 C
3544 14-03-2004 13:03:00 12.8 C 36 % -1.88 C
3545 14-03-2004 13:15:58 13.3 C 35 % -1.82 C
3546 14-03-2004 13:27:58 13.4 C 34 % -2.12 C
3547 14-03-2004 13:39:57 13.9 C 33 % -2.08 C
3548 14-03-2004 13:51:01 14.2 C 32 % -2.24 C
3549 14-03-2004 14:03:01 14.1 C 35 % -1.11 C
3550 14-03-2004 14:15:01 14.2 C 33 % -1.82 C
Sensor: Nr:Datum:Temp:Feuchte:Taupunkt:
Aussen-T/F 3551 14-03-2004 14:27:01 14.3 C 35 % -0.93 C
3552 14-03-2004 14:39:01 14.6 C 32 % -1.89 C
3553 14-03-2004 14:51:00 15 C 28 % -3.34 C
3554 14-03-2004 15:03:00 14.6 C 29 % -3.21 C
3555 14-03-2004 15:15:58 14.2 C 29 % -3.56 C
3556 14-03-2004 15:27:58 14.7 C 28 % -3.59 C
3557 14-03-2004 15:39:57 14.5 C 28 % -3.77 C
3558 14-03-2004 15:51:01 15.1 C 26 % -4.24 C
3559 14-03-2004 16:03:01 14.9 C 28 % -3.42 C
3560 14-03-2004 16:15:01 15.1 C 27 % -3.74 C
3561 14-03-2004 16:27:01 15.1 C 27 % -3.74 C
3562 14-03-2004 16:39:01 14.5 C 28 % -3.77 C
3563 14-03-2004 16:51:00 14 C 29 % -3.73 C
3564 14-03-2004 17:03:59 13.7 C 30 % -3.54 C
3565 14-03-2004 17:15:58 13.5 C 30 % -3.71 C
3566 14-03-2004 17:27:58 13.5 C 30 % -3.71 C
3567 14-03-2004 17:39:57 13.4 C 33 % -2.52 C
3568 14-03-2004 17:51:01 13.2 C 31 % -3.54 C
3569 14-03-2004 18:03:01 13 C 32 % -3.29 C
3570 14-03-2004 18:15:01 12.7 C 36 % -1.97 C
3571 14-03-2004 18:27:01 12.3 C 40 % -0.89 C
3572 14-03-2004 18:39:01 12.2 C 40 % -0.98 C
3573 14-03-2004 18:51:01 12.1 C 41 % -0.74 C
3574 14-03-2004 19:03:00 11.9 C 43 % -0.27 C
3575 14-03-2004 19:15:58 11.9 C 44 % 0.05 C
Sensor: Nr:Datum:Temp:Feuchte:Taupunkt:
Aussen-T/F 3576 14-03-2004 19:27:58 11.7 C 46 % 0.48 C
3577 14-03-2004 19:39:57 11.8 C 45 % 0.27 C
3578 14-03-2004 19:51:01 11.6 C 46 % 0.39 C
3579 14-03-2004 20:03:01 11.6 C 47 % 0.69 C
3580 14-03-2004 20:15:01 11.4 C 47 % 0.5 C
3581 14-03-2004 20:27:01 11.4 C 47 % 0.5 C
3582 14-03-2004 20:39:01 11.3 C 48 % 0.7 C
3583 14-03-2004 20:50:59 11.1 C 50 % 1.08 C
3584 14-03-2004 21:03:59 10.9 C 52 % 1.44 C
3585 14-03-2004 21:15:58 10.9 C 52 % 1.44 C
3586 14-03-2004 21:27:58 10.6 C 53 % 1.43 C
3587 14-03-2004 21:39:57 10.5 C 52 % 1.07 C
3588 14-03-2004 21:51:01 10.3 C 53 % 1.15 C
3589 14-03-2004 22:03:01 10.2 C 54 % 1.32 C
3590 14-03-2004 22:15:01 10.1 C 54 % 1.23 C
3591 14-03-2004 22:27:01 10.1 C 54 % 1.23 C
3592 14-03-2004 22:39:00 10 C 55 % 1.39 C
3593 14-03-2004 22:51:01 9.9 C 56 % 1.55 C
3594 14-03-2004 23:03:02 10.3 C 56 % 1.92 C
3595 14-03-2004 23:15:01 9.9 C 55 % 1.3 C
3596 14-03-2004 23:27:01 10.2 C 54 % 1.32 C
3597 14-03-2004 23:39:01 10.2 C 53 % 1.06 C
3598 14-03-2004 23:51:00 10.2 C 54 % 1.32 C
3599 15-03-2004 00:03:00 10.4 C 52 % 0.98 C
3600 15-03-2004 00:15:59 10.8 C 50 % 0.81 C
Sensor: Nr:Datum:Temp:Feuchte:Taupunkt:
Aussen-T/F 3601 15-03-2004 00:27:59 10.6 C 50 % 0.62 C
3602 15-03-2004 00:39:58 10.8 C 48 % 0.24 C
3603 15-03-2004 00:51:01 11.3 C 45 % -0.19 C
3604 15-03-2004 01:03:01 11.4 C 43 % -0.72 C
3605 15-03-2004 01:15:01 11.5 C 43 % -0.63 C
3606 15-03-2004 01:27:01 11.4 C 43 % -0.72 C
3607 15-03-2004 01:39:01 11.3 C 43 % -0.81 C
3608 15-03-2004 01:51:00 11.2 C 43 % -0.9 C
3609 15-03-2004 02:03:00 11 C 43 % -1.08 C
3610 15-03-2004 02:15:59 11.1 C 43 % -0.99 C
3611 15-03-2004 02:27:59 11 C 44 % -0.77 C
3612 15-03-2004 02:39:57 11.1 C 43 % -0.99 C
3613 15-03-2004 02:52:03 10.8 C 45 % -0.64 C
3614 15-03-2004 03:04:03 10.7 C 46 % -0.43 C
3615 15-03-2004 03:16:02 10.3 C 48 % -0.21 C
3616 15-03-2004 03:28:02 10.2 C 48 % -0.31 C
3617 15-03-2004 03:40:00 10.5 C 46 % -0.61 C
3618 15-03-2004 03:52:00 10.6 C 46 % -0.52 C
3619 15-03-2004 04:04:00 10.6 C 46 % -0.52 C
3620 15-03-2004 04:16:59 10.5 C 46 % -0.61 C
3621 15-03-2004 04:28:59 10.5 C 46 % -0.61 C
3622 15-03-2004 04:40:58 10.4 C 47 % -0.41 C
3623 15-03-2004 04:52:01 10.2 C 47 % -0.59 C
3624 15-03-2004 05:04:01 10.3 C 47 % -0.5 C
3625 15-03-2004 05:16:01 10.2 C 47 % -0.59 C
Sensor: Nr:Datum:Temp:Feuchte:Taupunkt:
Aussen-T/F 3626 15-03-2004 05:28:01 10.3 C 47 % -0.5 C
3627 15-03-2004 05:40:01 10.4 C 46 % -0.7 C
3628 15-03-2004 05:52:00 10.6 C 46 % -0.52 C
3629 15-03-2004 06:04:00 10.6 C 46 % -0.52 C
3630 15-03-2004 06:16:59 10.5 C 46 % -0.61 C
3631 15-03-2004 06:28:59 10.7 C 46 % -0.43 C
3632 15-03-2004 06:40:58 10.8 C 46 % -0.34 C
3633 15-03-2004 06:52:01 10.8 C 46 % -0.34 C
3634 15-03-2004 07:04:01 10.8 C 46 % -0.34 C
3635 15-03-2004 07:16:01 10.8 C 46 % -0.34 C
3636 15-03-2004 07:28:01 10.9 C 46 % -0.25 C
3637 15-03-2004 07:40:02 10.8 C 46 % -0.34 C
3638 15-03-2004 07:52:00 10.8 C 48 % 0.24 C
3639 15-03-2004 08:04:00 10.7 C 49 % 0.44 C
3640 15-03-2004 08:16:59 10.8 C 49 % 0.53 C
3641 15-03-2004 08:28:59 10.8 C 50 % 0.81 C
3642 15-03-2004 08:40:58 11 C 49 % 0.71 C
3643 15-03-2004 08:52:01 11.1 C 49 % 0.8 C
3644 15-03-2004 09:04:01 11.5 C 48 % 0.89 C
3645 15-03-2004 09:16:00 11.5 C 48 % 0.89 C
3646 15-03-2004 09:28:00 11.5 C 48 % 0.89 C
3647 15-03-2004 09:40:00 11.6 C 48 % 0.98 C
3648 15-03-2004 09:52:01 11.7 C 48 % 1.07 C
3649 15-03-2004 10:04:01 11.8 C 47 % 0.87 C
3650 15-03-2004 10:16:01 12 C 47 % 1.05 C
Sensor: Nr:Datum:Temp:Feuchte:Taupunkt:
Aussen-T/F 3651 15-03-2004 10:28:01 12 C 48 % 1.34 C
3652 15-03-2004 10:40:01 11.9 C 49 % 1.54 C
3653 15-03-2004 10:52:00 11.9 C 49 % 1.54 C
3654 15-03-2004 11:04:59 12 C 48 % 1.34 C
3655 15-03-2004 11:16:58 12.9 C 48 % 2.17 C
3656 15-03-2004 11:28:58 12.3 C 48 % 1.62 C
3657 15-03-2004 11:40:57 12.7 C 48 % 1.99 C
3658 15-03-2004 11:52:01 12.6 C 48 % 1.89 C
3659 15-03-2004 12:04:01 12.8 C 49 % 2.37 C
3660 15-03-2004 12:16:01 12.7 C 50 % 2.56 C
3661 15-03-2004 12:28:01 12.8 C 50 % 2.65 C
3662 15-03-2004 12:40:01 13.2 C 48 % 2.44 C
3663 15-03-2004 12:52:01 13.7 C 46 % 2.3 C
3664 15-03-2004 13:04:01 13.8 C 46 % 2.4 C
3665 15-03-2004 13:16:01 13.8 C 47 % 2.7 C
3666 15-03-2004 13:28:01 13.5 C 47 % 2.42 C
3667 15-03-2004 13:40:01 13.4 C 47 % 2.33 C
3668 15-03-2004 13:52:00 13.7 C 46 % 2.3 C
3669 15-03-2004 14:04:00 13.4 C 46 % 2.03 C
3670 15-03-2004 14:16:58 13.4 C 46 % 2.03 C
3671 15-03-2004 14:28:58 13.6 C 45 % 1.91 C
3672 15-03-2004 14:40:57 13.5 C 46 % 2.12 C
3673 15-03-2004 14:52:01 13.5 C 46 % 2.12 C
3674 15-03-2004 15:04:01 13.6 C 46 % 2.21 C
3675 15-03-2004 15:16:01 13.9 C 45 % 2.18 C
Sensor: Nr:Datum:Temp:Feuchte:Taupunkt:
Aussen-T/F 3676 15-03-2004 15:28:01 13.9 C 45 % 2.18 C
3677 15-03-2004 15:40:01 14.2 C 45 % 2.45 C
3678 15-03-2004 15:52:00 14.2 C 44 % 2.14 C
3679 15-03-2004 16:04:59 14.2 C 44 % 2.14 C
3680 15-03-2004 16:16:58 14.3 C 44 % 2.23 C
3681 15-03-2004 16:28:58 14.2 C 44 % 2.14 C
3682 15-03-2004 16:40:57 14.4 C 44 % 2.32 C
3683 15-03-2004 16:52:01 14.4 C 44 % 2.32 C
3684 15-03-2004 17:04:01 14.3 C 45 % 2.54 C
3685 15-03-2004 17:16:01 14.3 C 45 % 2.54 C
3686 15-03-2004 17:28:01 14.2 C 45 % 2.45 C
3687 15-03-2004 17:40:01 14.1 C 45 % 2.36 C
3688 15-03-2004 17:52:00 14.1 C 46 % 2.67 C
3689 15-03-2004 18:04:00 14 C 46 % 2.58 C
3690 15-03-2004 18:16:59 14 C 46 % 2.58 C
3691 15-03-2004 18:28:59 13.9 C 47 % 2.79 C
3692 15-03-2004 18:40:58 13.8 C 48 % 2.99 C
3693 15-03-2004 18:52:01 13.7 C 48 % 2.9 C
3694 15-03-2004 19:04:01 13.4 C 49 % 2.92 C
3695 15-03-2004 19:16:01 12.9 C 52 % 3.29 C
3696 15-03-2004 19:28:01 12.2 C 54 % 3.18 C
3697 15-03-2004 19:40:02 12 C 55 % 3.25 C
3698 15-03-2004 19:52:00 11.5 C 58 % 3.54 C
3699 15-03-2004 20:04:00 11.1 C 59 % 3.4 C
3700 15-03-2004 20:16:59 10.9 C 61 % 3.69 C
Sensor: Nr:Datum:Temp:Feuchte:Taupunkt:
Aussen-T/F 3701 15-03-2004 20:28:59 10.5 C 62 % 3.54 C
3702 15-03-2004 20:40:58 10.2 C 63 % 3.48 C
3703 15-03-2004 20:52:01 10.1 C 64 % 3.61 C
3704 15-03-2004 21:04:01 9.8 C 65 % 3.54 C
3705 15-03-2004 21:16:00 9.6 C 65 % 3.35 C
3706 15-03-2004 21:28:00 9.5 C 67 % 3.69 C
3707 15-03-2004 21:40:01 9.5 C 67 % 3.69 C
3708 15-03-2004 21:52:01 9.4 C 67 % 3.59 C
3709 15-03-2004 22:04:01 9.2 C 67 % 3.4 C
3710 15-03-2004 22:16:01 8.8 C 68 % 3.23 C
3711 15-03-2004 22:28:01 8.6 C 69 % 3.24 C
3712 15-03-2004 22:40:01 8.6 C 70 % 3.45 C
3713 15-03-2004 22:52:00 8.8 C 70 % 3.64 C
3714 15-03-2004 23:04:00 8.9 C 69 % 3.53 C
3715 15-03-2004 23:16:58 8.9 C 69 % 3.53 C
3716 15-03-2004 23:28:58 8.9 C 70 % 3.74 C
3717 15-03-2004 23:40:57 8.8 C 70 % 3.64 C
3718 15-03-2004 23:52:01 8.6 C 69 % 3.24 C
3719 16-03-2004 00:04:01 8.6 C 71 % 3.65 C
3720 16-03-2004 00:16:01 8.6 C 71 % 3.65 C
3721 16-03-2004 00:28:01 8.3 C 70 % 3.16 C
3722 16-03-2004 00:40:01 8.3 C 71 % 3.36 C
3723 16-03-2004 00:52:00 8.5 C 72 % 3.75 C
3724 16-03-2004 01:04:59 8.6 C 71 % 3.65 C
3725 16-03-2004 01:16:58 8.6 C 71 % 3.65 C
Sensor: Nr:Datum:Temp:Feuchte:Taupunkt:
Aussen-T/F 3726 16-03-2004 01:28:58 8.7 C 70 % 3.54 C
3727 16-03-2004 01:40:57 8.8 C 70 % 3.64 C
3728 16-03-2004 01:52:01 8.7 C 70 % 3.54 C
3729 16-03-2004 02:04:01 8.5 C 70 % 3.35 C
3730 16-03-2004 02:16:01 8.7 C 70 % 3.54 C
3731 16-03-2004 02:28:01 8.6 C 71 % 3.65 C
3732 16-03-2004 02:40:01 8.8 C 71 % 3.84 C
3733 16-03-2004 02:53:02 9 C 71 % 4.03 C
3734 16-03-2004 03:05:02 9.2 C 71 % 4.22 C
3735 16-03-2004 03:17:02 9.2 C 69 % 3.82 C
3736 16-03-2004 03:29:02 9.3 C 70 % 4.12 C
3737 16-03-2004 03:41:00 9.5 C 71 % 4.51 C
3738 16-03-2004 03:53:00 9.6 C 70 % 4.41 C
3739 16-03-2004 04:05:00 9.6 C 70 % 4.41 C
3740 16-03-2004 04:17:58 9.6 C 70 % 4.41 C
3741 16-03-2004 04:29:58 9.5 C 70 % 4.31 C
3742 16-03-2004 04:41:57 9.6 C 71 % 4.61 C
3743 16-03-2004 04:53:01 9.4 C 70 % 4.21 C
3744 16-03-2004 05:05:01 9.2 C 71 % 4.22 C
3745 16-03-2004 05:17:01 8.8 C 72 % 4.04 C
3746 16-03-2004 05:29:01 8.7 C 74 % 4.33 C
3747 16-03-2004 05:41:01 8.5 C 74 % 4.14 C
3748 16-03-2004 05:53:01 8.9 C 74 % 4.53 C
3749 16-03-2004 06:05:01 9.6 C 71 % 4.61 C
3750 16-03-2004 06:17:01 9.9 C 69 % 4.49 C
Sensor: Nr:Datum:Temp:Feuchte:Taupunkt:
Aussen-T/F 3751 16-03-2004 06:29:01 9.7 C 69 % 4.3 C
3752 16-03-2004 06:41:01 9 C 70 % 3.83 C
3753 16-03-2004 06:53:00 8.6 C 72 % 3.85 C
3754 16-03-2004 07:05:00 8.5 C 73 % 3.95 C
3755 16-03-2004 07:17:59 8.8 C 75 % 4.62 C
3756 16-03-2004 07:29:59 8.8 C 74 % 4.43 C
3757 16-03-2004 07:41:57 8.4 C 73 % 3.85 C
3758 16-03-2004 07:53:01 8.2 C 73 % 3.66 C
3759 16-03-2004 08:05:01 8.1 C 73 % 3.56 C
3760 16-03-2004 08:17:01 8 C 74 % 3.66 C
3761 16-03-2004 08:29:01 8 C 74 % 3.66 C
3762 16-03-2004 08:41:01 8.1 C 75 % 3.94 C
3763 16-03-2004 08:53:01 8.4 C 75 % 4.23 C
3764 16-03-2004 09:05:00 9.7 C 72 % 4.9 C
3765 16-03-2004 09:17:58 11.5 C 63 % 4.71 C
3766 16-03-2004 09:29:58 12.4 C 57 % 4.13 C
3767 16-03-2004 09:41:57 12.9 C 55 % 4.09 C
3768 16-03-2004 09:53:01 13 C 53 % 3.66 C
3769 16-03-2004 10:05:01 13.1 C 52 % 3.48 C
3770 16-03-2004 10:17:01 13.3 C 52 % 3.66 C
3771 16-03-2004 10:29:01 13.5 C 52 % 3.85 C
3772 16-03-2004 10:41:01 13.9 C 51 % 3.94 C
3773 16-03-2004 10:53:01 14.1 C 49 % 3.56 C
3774 16-03-2004 11:05:02 14.2 C 49 % 3.65 C
3775 16-03-2004 11:17:01 14.5 C 49 % 3.93 C
Sensor: Nr:Datum:Temp:Feuchte:Taupunkt:
Aussen-T/F 3776 16-03-2004 11:29:01 14.7 C 48 % 3.82 C
3777 16-03-2004 11:41:01 14.9 C 48 % 4 C
3778 16-03-2004 11:53:01 14.9 C 47 % 3.7 C
3779 16-03-2004 12:05:00 15.3 C 46 % 3.76 C
3780 16-03-2004 12:17:59 15.6 C 45 % 3.72 C
3781 16-03-2004 12:29:59 15.9 C 45 % 4 C
3782 16-03-2004 12:41:57 16.4 C 43 % 3.8 C
3783 16-03-2004 12:53:01 16.9 C 42 % 3.92 C
3784 16-03-2004 13:05:01 17.5 C 40 % 3.77 C
3785 16-03-2004 13:17:01 17.7 C 40 % 3.95 C
3786 16-03-2004 13:29:01 17.8 C 40 % 4.03 C
3787 16-03-2004 13:41:01 18.5 C 39 % 4.3 C
3788 16-03-2004 13:53:00 18.8 C 38 % 4.2 C
3789 16-03-2004 14:05:00 18.5 C 38 % 3.93 C
3790 16-03-2004 14:17:58 18.5 C 38 % 3.93 C
3791 16-03-2004 14:29:58 18.9 C 38 % 4.29 C
3792 16-03-2004 14:41:57 19.4 C 36 % 3.96 C
3793 16-03-2004 14:53:01 19.3 C 36 % 3.87 C
3794 16-03-2004 15:05:01 19.8 C 36 % 4.31 C
3795 16-03-2004 15:17:01 20 C 36 % 4.49 C
3796 16-03-2004 15:29:01 19.8 C 36 % 4.31 C
3797 16-03-2004 15:41:01 20 C 36 % 4.49 C
3798 16-03-2004 15:53:01 19.9 C 36 % 4.4 C
3799 16-03-2004 16:05:01 20.4 C 37 % 5.24 C
3800 16-03-2004 16:17:01 20.4 C 37 % 5.24 C
Sensor: Nr:Datum:Temp:Feuchte:Taupunkt:
Aussen-T/F 3801 16-03-2004 16:29:01 20.2 C 37 % 5.06 C
3802 16-03-2004 16:41:01 20 C 37 % 4.88 C
3803 16-03-2004 16:53:00 19.8 C 37 % 4.7 C
3804 16-03-2004 17:05:00 19.8 C 37 % 4.7 C
3805 16-03-2004 17:17:58 20 C 37 % 4.88 C
3806 16-03-2004 17:29:58 19.7 C 37 % 4.62 C
3807 16-03-2004 17:41:58 19.7 C 38 % 5 C
3808 16-03-2004 17:53:01 19 C 40 % 5.11 C
3809 16-03-2004 18:05:01 18.2 C 43 % 5.43 C
3810 16-03-2004 18:17:01 17.3 C 45 % 5.27 C
3811 16-03-2004 18:29:01 16.4 C 48 % 5.37 C
3812 16-03-2004 18:41:01 15.8 C 50 % 5.41 C
3813 16-03-2004 18:53:00 15.5 C 52 % 5.7 C
3814 16-03-2004 19:05:00 15 C 53 % 5.51 C
3815 16-03-2004 19:17:58 14.7 C 55 % 5.76 C
3816 16-03-2004 19:29:58 14.4 C 55 % 5.49 C
3817 16-03-2004 19:41:57 14.2 C 56 % 5.56 C
3818 16-03-2004 19:53:01 14 C 57 % 5.63 C
3819 16-03-2004 20:05:01 13.6 C 58 % 5.5 C
3820 16-03-2004 20:17:01 13.4 C 59 % 5.56 C
3821 16-03-2004 20:29:01 13.3 C 60 % 5.71 C
3822 16-03-2004 20:41:01 13 C 60 % 5.43 C
3823 16-03-2004 20:53:01 12.8 C 62 % 5.71 C
3824 16-03-2004 21:05:00 12.6 C 62 % 5.52 C
3825 16-03-2004 21:17:59 12.2 C 62 % 5.14 C
Sensor: Nr:Datum:Temp:Feuchte:Taupunkt:
Aussen-T/F 3826 16-03-2004 21:29:59 12 C 63 % 5.18 C
3827 16-03-2004 21:41:57 11.6 C 64 % 5.03 C
3828 16-03-2004 21:53:01 11.4 C 65 % 5.06 C
3829 16-03-2004 22:05:01 11.2 C 65 % 4.87 C
3830 16-03-2004 22:17:01 10.8 C 66 % 4.71 C
3831 16-03-2004 22:29:01 10.5 C 67 % 4.64 C
3832 16-03-2004 22:41:01 10.2 C 67 % 4.36 C
3833 16-03-2004 22:53:00 9.9 C 69 % 4.49 C
3834 16-03-2004 23:05:00 9.6 C 69 % 4.2 C
3835 16-03-2004 23:17:58 9.5 C 70 % 4.31 C
3836 16-03-2004 23:29:58 9.4 C 70 % 4.21 C
3837 16-03-2004 23:41:57 9.1 C 71 % 4.13 C
3838 16-03-2004 23:53:01 9 C 72 % 4.23 C
3839 17-03-2004 00:05:01 8.9 C 73 % 4.33 C
3840 17-03-2004 00:17:01 8.8 C 72 % 4.04 C
3841 17-03-2004 00:29:01 8.4 C 73 % 3.85 C
3842 17-03-2004 00:41:01 8.3 C 74 % 3.95 C
3843 17-03-2004 00:53:00 8.2 C 75 % 4.04 C
3844 17-03-2004 01:05:59 8.1 C 75 % 3.94 C
3845 17-03-2004 01:17:58 7.8 C 75 % 3.65 C
3846 17-03-2004 01:29:58 7.6 C 76 % 3.65 C
3847 17-03-2004 01:41:57 7.3 C 76 % 3.36 C
3848 17-03-2004 01:53:01 7.2 C 76 % 3.26 C
3849 17-03-2004 02:05:01 7.1 C 77 % 3.35 C
3850 17-03-2004 02:17:01 6.8 C 77 % 3.06 C
Sensor: Nr:Datum:Temp:Feuchte:Taupunkt:
Aussen-T/F 3851 17-03-2004 02:29:01 6.7 C 77 % 2.96 C
3852 17-03-2004 02:41:00 6.3 C 78 % 2.75 C
3853 17-03-2004 02:54:03 6.2 C 79 % 2.84 C
3854 17-03-2004 03:06:03 6.1 C 80 % 2.92 C
3855 17-03-2004 03:18:02 6.1 C 80 % 2.92 C
3856 17-03-2004 03:30:02 5.8 C 81 % 2.8 C
3857 17-03-2004 03:42:00 5.8 C 82 % 2.97 C
3858 17-03-2004 03:54:00 5.6 C 82 % 2.78 C
3859 17-03-2004 04:06:00 5.5 C 82 % 2.68 C
3860 17-03-2004 04:18:59 5.1 C 81 % 2.12 C
3861 17-03-2004 04:30:58 5.2 C 81 % 2.21 C
3862 17-03-2004 04:42:58 5.2 C 81 % 2.21 C
3863 17-03-2004 04:54:01 5 C 81 % 2.02 C
3864 17-03-2004 05:06:00 4.9 C 83 % 2.26 C
3865 17-03-2004 05:18:00 4.7 C 83 % 2.07 C
3866 17-03-2004 05:30:00 4.6 C 82 % 1.8 C
3867 17-03-2004 05:42:00 4.5 C 82 % 1.7 C
3868 17-03-2004 05:54:01 4.5 C 83 % 1.87 C
3869 17-03-2004 06:06:01 4.4 C 84 % 1.94 C
3870 17-03-2004 06:18:01 4.4 C 84 % 1.94 C
3871 17-03-2004 06:30:01 4.2 C 83 % 1.58 C
3872 17-03-2004 06:42:01 4 C 83 % 1.38 C
3873 17-03-2004 06:54:01 3.9 C 84 % 1.45 C
3874 17-03-2004 07:06:01 4 C 83 % 1.38 C
3875 17-03-2004 07:18:01 4 C 83 % 1.38 C
Sensor: Nr:Datum:Temp:Feuchte:Taupunkt:
Aussen-T/F 3876 17-03-2004 07:30:01 4 C 83 % 1.38 C
3877 17-03-2004 07:42:01 3.8 C 84 % 1.35 C
3878 17-03-2004 07:54:00 3.6 C 85 % 1.32 C
3879 17-03-2004 08:06:00 4.1 C 86 % 1.97 C
3880 17-03-2004 08:18:59 4.5 C 85 % 2.2 C
3881 17-03-2004 08:30:58 4.8 C 84 % 2.33 C
3882 17-03-2004 08:42:58 4.9 C 83 % 2.26 C
3883 17-03-2004 08:54:01 4.9 C 83 % 2.26 C
3884 17-03-2004 09:06:01 5 C 83 % 2.36 C
3885 17-03-2004 09:18:01 5.3 C 83 % 2.65 C
3886 17-03-2004 09:30:01 5.9 C 84 % 3.41 C
3887 17-03-2004 09:42:01 6.3 C 82 % 3.46 C
3888 17-03-2004 09:54:00 6.9 C 80 % 3.7 C
3889 17-03-2004 10:06:00 7.3 C